[[{"header":{"parameterUnit":"m.s-1","parameterCategory":1,"la1":30.6,"la2":28.766,"lo1":-90.7593,"lo2":-88.6598,"dy":0.0162,"dx":0.0183,"nx":116,"ny":114,"refTime":"2023-03-27T06:00:00:Z","depth":0,"parameterNumber":2,"parameterNumberName":"U-component_of_WINDS"},"data":[0.0,0.0,0.0,0.0,0.0,0.0,0.0,0.0,0.0,0.0,0.0,0.0,0.0,0.0,0.0,0.0,0.0,0.0,0.0,0.0,0.0,0.0,0.0,0.0,0.0,0.0,0.0,0.0,0.0,0.0,0.0,0.0,0.0,0.0,0.0,0.0,0.0,0.0,0.0,0.0,0.0,0.0,0.0,0.0,0.0,0.0,0.0,0.0,0.0,0.0,0.0,0.0,0.0,0.0,0.0,0.0,0.0,0.0,0.0,0.0,0.0,0.0,0.0,0.0,0.0,0.0,0.0,0.0,0.0,0.0,0.0,0.0,0.0,0.0,0.0,0.0,0.0,0.0,0.0,0.0,0.0,0.0,0.0,0.0,0.0,0.0,0.0,0.0,0.0,0.0,0.0,0.0,0.0,0.0,0.0,0.0,0.0,0.0,0.0,0.0,0.0,0.0,0.0,0.0,0.0,0.0,0.0,0.0,0.0,0.0,0.0,0.0,0.0,0.0,0.0,0.0,0.0,0.0,0.0,0.0,0.0,0.0,0.0,0.0,0.0,0.0,0.0,0.0,0.0,0.0,0.0,0.0,0.0,0.0,0.0,0.0,0.0,0.0,0.0,0.0,0.0,0.0,0.0,0.0,0.0,0.0,0.0,0.0,0.0,0.0,0.0,0.0,0.0,0.0,0.0,0.0,0.0,0.0,0.0,0.0,0.0,0.0,0.0,0.0,0.0,0.0,0.0,0.0,0.0,0.0,0.0,0.0,0.0,0.0,0.0,0.0,0.0,0.0,0.0,0.0,0.0,0.0,0.0,0.0,0.0,0.0,0.0,0.0,0.0,0.0,0.0,0.0,0.0,0.0,0.0,0.0,0.0,0.0,0.0,0.0,0.0,0.0,0.0,0.0,0.0,0.0,0.0,0.0,0.0,0.0,0.0,0.0,0.0,0.0,0.0,0.0,0.0,0.0,0.0,0.0,0.0,0.0,0.0,0.0,0.0,0.0,0.0,0.0,0.0,0.0,0.0,0.0,0.0,0.0,0.0,0.0,0.0,0.0,0.0,0.0,0.0,0.0,0.0,0.0,0.0,0.0,0.0,0.0,0.0,0.0,0.0,0.0,0.0,0.0,0.0,0.0,0.0,0.0,0.0,0.0,0.0,0.0,0.0,0.0,0.0,0.0,0.0,0.0,0.0,0.0,0.0,0.0,0.0,0.0,0.0,0.0,0.0,0.0,0.0,0.0,0.0,0.0,0.0,0.0,0.0,0.0,0.0,0.0,0.0,0.0,0.0,0.0,0.0,0.0,0.0,0.0,0.0,0.0,0.0,0.0,0.0,0.0,0.0,0.0,0.0,0.0,0.0,0.0,0.0,0.0,0.0,0.0,0.0,0.0,0.0,0.0,0.0,0.0,0.0,0.0,0.0,0.0,0.0,0.0,0.0,0.0,0.0,0.0,0.0,0.0,0.0,0.0,0.0,0.0,0.0,0.0,0.0,0.0,0.0,0.0,0.0,0.0,0.0,0.0,0.0,0.0,0.0,0.0,0.0,0.0,0.0,0.0,0.0,0.0,0.0,0.0,0.0,0.0,0.0,0.0,0.0,0.0,0.0,0.0,0.0,0.0,0.0,0.0,0.0,0.0,0.0,0.0,0.0,0.0,0.0,0.0,0.0,0.0,0.0,0.0,0.0,0.0,0.0,0.0,0.0,0.0,0.0,0.0,0.0,0.0,0.0,0.0,0.0,0.0,0.0,0.0,0.0,0.0,0.0,0.0,0.0,0.0,0.0,0.0,0.0,0.0,0.0,0.0,0.0,0.0,0.0,0.0,0.0,0.0,0.0,0.0,0.0,0.0,0.0,0.0,0.0,0.0,0.0,0.0,0.0,0.0,0.0,0.0,0.0,0.0,0.0,0.0,0.0,0.0,0.0,0.0,0.0,0.0,0.0,0.0,0.0,0.0,0.0,0.0,0.0,0.0,0.0,0.0,0.0,0.0,0.0,0.0,0.0,0.0,0.0,0.0,0.0,0.0,0.0,0.0,0.0,0.0,0.0,0.0,0.0,0.0,0.0,0.0,0.0,0.0,0.0,0.0,0.0,0.0,0.0,0.0,0.0,0.0,0.0,0.0,0.0,0.0,0.0,0.0,0.0,0.0,0.0,0.0,0.0,0.0,0.0,0.0,0.0,0.0,0.0,0.0,0.0,0.0,0.0,0.0,0.0,0.0,0.0,0.0,0.0,0.0,0.0,0.0,0.0,0.0,0.0,0.0,0.0,0.0,0.0,0.0,0.0,0.0,0.0,0.0,0.0,0.0,0.0,0.0,0.0,0.0,0.0,0.0,0.0,0.0,0.0,0.0,0.0,0.0,0.0,0.0,0.0,0.0,0.0,0.0,0.0,0.0,0.0,0.0,0.0,0.0,0.0,0.0,0.0,0.0,0.0,0.0,0.0,0.0,0.0,0.0,0.0,0.0,0.0,0.0,0.0,0.0,0.0,0.0,0.0,0.0,0.0,0.0,0.0,0.0,0.0,0.0,0.0,0.0,0.0,0.0,0.0,0.0,0.0,0.0,0.0,0.0,0.0,0.0,0.0,0.0,0.0,0.0,0.0,0.0,0.0,0.0,0.0,0.0,0.0,0.0,0.0,0.0,0.0,0.0,0.0,0.0,0.0,0.0,0.0,0.0,0.0,0.0,0.0,0.0,0.0,0.0,0.0,0.0,0.0,0.0,0.0,0.0,0.0,0.0,0.0,0.0,0.0,0.0,0.0,0.0,0.0,0.0,0.0,0.0,0.0,0.0,0.0,0.0,0.0,0.0,0.0,0.0,0.0,0.0,0.0,0.0,0.0,0.0,0.0,0.0,0.0,0.0,0.0,0.0,0.0,0.0,0.0,0.0,0.0,0.0,0.0,0.0,0.0,0.0,0.0,0.0,0.0,0.0,0.0,0.0,0.0,0.0,0.0,0.0,0.0,0.0,0.0,0.0,0.0,0.0,0.0,0.0,0.0,0.0,0.0,0.0,0.0,0.0,0.0,0.0,0.0,0.0,0.0,0.0,0.0,0.0,0.0,0.0,0.0,0.0,0.0,0.0,0.0,0.0,0.0,0.0,0.0,0.0,0.0,0.0,0.0,0.0,0.0,0.0,0.0,0.0,0.0,0.0,0.0,0.0,0.0,0.0,0.0,0.0,0.0,0.0,0.0,0.0,0.0,0.0,0.0,0.0,0.0,0.0,0.0,0.0,0.0,0.0,0.0,0.0,0.0,0.0,0.0,0.0,0.0,0.0,0.0,0.0,0.0,0.0,0.0,0.0,0.0,0.0,0.0,0.0,0.0,0.0,0.0,0.0,0.0,0.0,0.0,0.0,0.0,0.0,0.0,0.0,0.0,0.0,0.0,0.0,0.0,0.0,0.0,0.0,0.0,0.0,0.0,0.0,0.0,0.0,0.0,0.0,0.0,0.0,0.0,0.0,0.0,0.0,0.0,0.0,0.0,0.0,0.0,0.0,0.0,0.0,0.0,0.0,0.0,0.0,0.0,0.0,0.0,0.0,0.0,0.0,0.0,0.0,0.0,0.0,0.0,0.0,0.0,0.0,0.0,0.0,0.0,0.0,0.0,0.0,0.0,0.0,0.0,0.0,0.0,0.0,0.0,0.0,0.0,0.0,0.0,0.0,0.0,0.0,0.0,0.0,0.0,0.0,0.0,0.0,0.0,0.0,0.0,0.0,0.0,0.0,0.0,0.0,0.0,0.0,0.0,0.0,0.0,0.0,0.0,0.0,0.0,0.0,0.0,0.0,0.0,0.0,0.0,0.0,0.0,0.0,0.0,0.0,0.0,0.0,0.0,0.0,0.0,0.0,0.0,0.0,0.0,0.0,0.0,0.0,0.0,0.0,0.0,0.0,0.0,0.0,0.0,0.0,0.0,0.0,0.0,0.0,0.0,0.0,0.0,0.0,0.0,0.0,0.0,0.0,0.0,0.0,0.0,0.0,0.0,0.0,0.0,0.0,0.0,0.0,0.0,0.0,0.0,0.0,0.0,0.0,0.0,0.0,0.0,0.0,0.0,0.0,0.0,0.0,0.0,0.0,0.0,0.0,0.0,0.0,0.0,0.0,0.0,0.0,0.0,0.0,0.0,0.0,0.0,0.0,0.0,0.0,0.0,0.0,0.0,0.0,0.0,0.0,0.0,0.0,0.0,0.0,0.0,0.0,0.0,0.0,0.0,0.0,0.0,0.0,0.0,0.0,0.0,0.0,0.0,0.0,0.0,0.0,0.0,0.0,0.0,0.0,0.0,0.0,0.0,0.0,0.0,0.0,0.0,0.0,0.0,0.0,0.0,0.0,0.0,0.0,0.0,0.0,0.0,0.0,0.0,0.0,0.0,0.0,0.0,0.0,0.0,0.0,0.0,0.0,0.0,0.0,0.0,0.0,0.0,0.0,0.0,0.0,0.0,0.0,0.0,0.0,0.0,0.0,0.0,0.0,0.0,0.0,0.0,0.0,0.0,0.0,0.0,0.0,0.0,0.0,0.0,0.0,0.0,0.0,0.0,0.0,0.0,0.0,0.0,0.0,0.0,0.0,0.0,0.0,0.0,0.0,0.0,0.0,0.0,0.0,0.0,0.0,0.0,0.0,0.0,0.0,0.0,0.0,0.0,0.0,0.0,0.0,0.0,0.0,0.0,0.0,0.0,0.0,0.0,0.0,0.0,0.0,0.0,0.0,0.0,0.0,0.0,0.0,0.0,0.0,0.0,0.0,0.0,0.0,0.0,0.0,0.0,0.0,0.0,0.0,0.0,0.0,0.0,0.0,0.0,0.0,0.0,0.0,0.0,0.0,0.0,0.0,0.0,0.0,0.0,0.0,0.0,0.0,0.0,0.0,0.0,0.0,0.0,0.0,0.0,0.0,0.0,0.0,0.0,0.0,0.0,0.0,0.0,0.0,0.0,0.0,0.0,0.0,0.0,0.0,0.0,0.0,0.0,0.0,0.0,0.0,0.0,0.0,0.0,0.0,0.0,0.0,0.0,0.0,0.0,0.0,0.0,0.0,0.0,0.0,0.0,0.0,0.0,0.0,0.0,0.0,0.0,0.0,0.0,0.0,0.0,0.0,0.0,0.0,0.0,0.0,0.0,0.0,0.0,0.0,0.0,0.0,0.0,0.0,0.0,0.0,0.0,0.0,0.0,0.0,0.0,0.0,0.0,0.0,0.0,0.0,0.0,0.0,0.0,0.0,0.0,0.0,0.0,0.0,0.0,0.0,0.0,0.0,0.0,0.0,0.0,0.0,0.0,0.0,0.0,0.0,0.0,0.0,0.0,0.0,0.0,0.0,0.0,0.0,0.0,0.0,0.0,0.0,0.0,0.0,0.0,0.0,0.0,0.0,0.0,0.0,0.0,0.0,0.0,0.0,0.0,0.0,0.0,0.0,0.0,0.0,0.0,0.0,0.0,0.0,0.0,0.0,0.0,0.0,0.0,0.0,0.0,0.0,0.0,0.0,0.0,0.0,0.0,0.0,0.0,0.0,0.0,0.0,0.0,0.0,0.0,0.0,0.0,0.0,0.0,0.0,0.0,0.0,0.0,0.0,0.0,0.0,0.0,0.0,0.0,0.0,0.0,0.0,0.0,0.0,0.0,0.0,0.0,0.0,0.0,0.0,0.0,0.0,0.0,0.0,0.0,0.0,0.0,0.0,0.0,0.0,0.0,0.0,0.0,0.0,0.0,0.0,0.0,0.0,0.0,0.0,0.0,0.0,0.0,0.0,0.0,0.0,0.0,0.0,0.0,0.0,0.0,0.0,0.0,0.0,0.0,0.0,0.0,0.0,0.0,0.0,0.0,0.0,0.0,0.0,0.0,0.0,0.0,0.0,0.0,0.0,0.0,0.0,0.0,0.0,0.0,0.0,0.0,0.0,0.0,0.0,0.0,0.0,0.0,0.0,0.0,0.0,0.0,0.0,0.0,0.0,0.0,0.0,0.0,0.0,0.0,0.0,0.0,0.0,0.0,0.0,0.0,0.0,0.0,0.0,0.0,0.0,0.0,0.0,0.0,0.0,0.0,0.0,0.0,0.0,0.0,0.0,0.0,0.0,0.0,0.0,-3.4035,-3.411,0.0,0.0,0.0,0.0,0.0,0.0,0.0,0.0,0.0,0.0,0.0,0.0,0.0,0.0,0.0,0.0,0.0,0.0,0.0,0.0,0.0,0.0,0.0,0.0,0.0,0.0,0.0,0.0,0.0,0.0,0.0,0.0,0.0,0.0,0.0,0.0,0.0,0.0,-3.4775,-3.4775,-3.4775,-3.4775,-3.4775,-3.4775,0.0,0.0,0.0,0.0,0.0,0.0,0.0,0.0,0.0,0.0,0.0,0.0,0.0,0.0,0.0,0.0,0.0,0.0,0.0,0.0,0.0,0.0,0.0,0.0,0.0,0.0,0.0,0.0,0.0,0.0,0.0,0.0,0.0,0.0,0.0,0.0,0.0,0.0,0.0,0.0,0.0,0.0,0.0,0.0,0.0,0.0,0.0,0.0,0.0,0.0,0.0,0.0,0.0,0.0,0.0,0.0,0.0,0.0,0.0,0.0,0.0,0.0,0.0,0.0,0.0,0.0,0.0,0.0,0.0,0.0,-3.4311,-3.4283,0.0,0.0,0.0,0.0,0.0,0.0,0.0,0.0,0.0,0.0,0.0,0.0,0.0,0.0,0.0,0.0,0.0,0.0,0.0,0.0,0.0,0.0,0.0,0.0,-3.4775,-3.4775,-3.4775,0.0,0.0,0.0,0.0,0.0,0.0,0.0,0.0,0.0,0.0,-3.4775,-3.4775,-3.4775,-3.4775,-3.4775,-3.4775,-3.4775,-3.4775,0.0,0.0,0.0,0.0,0.0,0.0,0.0,0.0,0.0,0.0,0.0,0.0,0.0,0.0,0.0,0.0,0.0,0.0,0.0,0.0,0.0,0.0,0.0,0.0,0.0,0.0,0.0,0.0,0.0,0.0,0.0,0.0,0.0,0.0,0.0,0.0,0.0,0.0,0.0,0.0,0.0,0.0,0.0,0.0,0.0,0.0,0.0,0.0,0.0,0.0,0.0,0.0,0.0,0.0,0.0,0.0,0.0,0.0,0.0,0.0,0.0,0.0,0.0,-3.5476,-3.5476,-3.5524,-3.5476,-3.538,-3.5162,-3.4428,-3.4399,-3.4813,-3.4372,0.0,0.0,0.0,0.0,0.0,0.0,0.0,0.0,0.0,0.0,0.0,0.0,0.0,0.0,0.0,0.0,0.0,0.0,0.0,0.0,0.0,-3.4775,-3.4775,-3.4775,-3.4775,-3.4775,0.0,0.0,0.0,0.0,0.0,0.0,0.0,-3.4775,-3.4775,-3.4775,-3.4775,-3.4775,-3.4775,-3.4775,-3.4775,-3.4775,-3.4775,-3.4775,-3.4775,0.0,0.0,0.0,0.0,0.0,0.0,0.0,0.0,0.0,0.0,0.0,0.0,0.0,0.0,0.0,0.0,0.0,0.0,0.0,0.0,0.0,0.0,0.0,0.0,0.0,0.0,0.0,0.0,0.0,0.0,0.0,0.0,0.0,0.0,0.0,0.0,0.0,0.0,0.0,0.0,0.0,-3.3998,-3.4539,0.0,0.0,0.0,0.0,0.0,0.0,0.0,0.0,0.0,0.0,0.0,0.0,0.0,-3.562,-3.562,-3.538,-3.5259,-3.5259,-3.5017,-3.5017,-3.5235,-3.5017,-3.5017,-3.5163,-3.4824,0.0,-3.5162,-3.5089,0.0,0.0,0.0,0.0,0.0,0.0,0.0,0.0,0.0,0.0,0.0,0.0,0.0,0.0,0.0,0.0,0.0,0.0,0.0,0.0,0.0,-3.4775,-3.4775,-3.4775,-3.4775,-3.4775,-3.4775,0.0,0.0,0.0,0.0,0.0,-3.4775,-3.4775,-3.4775,-3.4775,-3.4775,-3.4775,-3.4775,-3.4775,-3.4775,-3.4775,-3.4775,-3.4775,-3.4775,-3.4775,0.0,0.0,0.0,0.0,0.0,0.0,0.0,0.0,0.0,0.0,0.0,0.0,0.0,0.0,0.0,0.0,0.0,0.0,0.0,0.0,0.0,0.0,0.0,0.0,0.0,0.0,0.0,0.0,0.0,0.0,0.0,0.0,0.0,0.0,0.0,0.0,0.0,0.0,0.0,-3.3937,-3.4399,-3.4361,-3.489,-3.5255,0.0,0.0,0.0,0.0,0.0,0.0,0.0,0.0,0.0,-3.5138,-3.5138,-3.5138,-3.5138,-3.5017,-3.4969,-3.4969,-3.5185,-3.5329,-3.5428,-3.5618,-3.5763,-3.5862,-3.5763,-3.5763,-3.5814,-3.521,-3.5114,-3.538,0.0,0.0,0.0,0.0,-3.5524,-3.538,0.0,0.0,0.0,0.0,0.0,0.0,0.0,0.0,0.0,0.0,0.0,0.0,-3.4775,-3.4775,-3.4775,-3.4775,-3.4775,-3.4775,-3.4775,-3.4775,0.0,0.0,0.0,-3.4775,-3.4775,-3.4775,-3.4775,-3.4775,-3.4775,-3.4775,-3.4775,-3.4775,-3.4775,-3.4775,-3.4775,-3.4775,-3.4775,-3.4775,-3.4775,0.0,0.0,0.0,0.0,0.0,0.0,0.0,0.0,0.0,0.0,0.0,0.0,0.0,0.0,0.0,0.0,0.0,0.0,0.0,0.0,0.0,0.0,0.0,0.0,0.0,0.0,0.0,0.0,0.0,0.0,0.0,0.0,0.0,0.0,0.0,0.0,0.0,0.0,-3.4264,-3.4627,-3.4246,-3.492,-3.5332,0.0,0.0,0.0,0.0,0.0,0.0,-3.5066,-3.492,-3.4775,-3.4775,-3.4919,-3.4991,-3.4991,-3.5111,-3.5232,-3.5183,-3.5641,-3.5809,-3.5833,-3.6218,-3.6411,-3.6411,-3.6411,-3.6411,-3.6338,-3.54,-3.5137,-3.526,-3.5139,-3.5235,-3.5428,-3.5428,-3.5284,-3.509,0.0,0.0,0.0,0.0,0.0,0.0,0.0,0.0,0.0,0.0,0.0,-3.4775,-3.4775,-3.4775,-3.4775,-3.4775,-3.4775,-3.4775,-3.4775,-3.4775,-3.4775,-3.4775,-3.4775,-3.4775,-3.4775,-3.4775,-3.4775,-3.4775,-3.4775,-3.4775,-3.4775,-3.4775,-3.4775,-3.4775,-3.4775,-3.4775,-3.4775,-3.4775,-3.4775,-3.4775,0.0,0.0,0.0,0.0,0.0,0.0,0.0,0.0,0.0,0.0,0.0,0.0,0.0,0.0,0.0,0.0,0.0,0.0,0.0,0.0,0.0,0.0,0.0,0.0,0.0,0.0,0.0,0.0,0.0,0.0,0.0,0.0,0.0,0.0,0.0,0.0,0.0,0.0,0.0,-3.4751,-3.4823,0.0,0.0,0.0,0.0,-3.4823,-3.4823,-3.4823,-3.4823,-3.4823,-3.4775,-3.4775,-3.5255,-3.5569,-3.5569,-3.6074,-3.6314,-3.6314,-3.6362,-3.6362,-3.6362,-3.6386,-3.6411,-3.6411,-3.6411,-3.6411,-3.6362,-3.5809,-3.5569,-3.5521,-3.5016,-3.4823,-3.4823,-3.4823,-3.4823,-3.4823,0.0,0.0,0.0,0.0,0.0,0.0,0.0,0.0,0.0,-3.4775,-3.4775,-3.4775,-3.4775,-3.4775,-3.4775,-3.4775,-3.4775,-3.4775,-3.4775,-3.4775,-3.4775,-3.4775,-3.4775,-3.4775,-3.4775,-3.4775,-3.4775,-3.4775,-3.4775,-3.4775,-3.4775,-3.4775,-3.4775,-3.4775,-3.4775,-3.4775,-3.4775,-3.4775,-3.4775,-3.4775,-3.4775,-3.4775,0.0,0.0,0.0,0.0,0.0,0.0,0.0,0.0,0.0,0.0,0.0,0.0,0.0,0.0,0.0,0.0,0.0,0.0,0.0,0.0,0.0,0.0,0.0,0.0,0.0,0.0,0.0,0.0,0.0,0.0,0.0,0.0,0.0,0.0,0.0,0.0,0.0,-3.4775,-3.4775,0.0,-3.4775,-3.4775,-3.4775,-3.4775,-3.4775,-3.4919,-3.5328,-3.5328,-3.5497,-3.5833,-3.6026,-3.6122,-3.6122,-3.6314,-3.6411,-3.6411,-3.6747,-3.6916,-3.6916,-3.7252,-3.7421,-3.7421,-3.7421,-3.7421,-3.7372,-3.6843,-3.6435,-3.6098,-3.5905,-3.5833,-3.5833,-3.5833,-3.5833,-3.5833,0.0,0.0,0.0,0.0,0.0,0.0,0.0,0.0,-3.4775,-3.4775,-3.4775,-3.4775,-3.4775,-3.4775,-3.4775,-3.4775,-3.4775,-3.4775,-3.4775,-3.4775,-3.4775,-3.4775,-3.4775,-3.4775,-3.4775,-3.4775,-3.4775,-3.4775,-3.4775,-3.4775,-3.4775,-3.4775,-3.4775,-3.4775,-3.4775,-3.4775,-3.4775,-3.4775,-3.4775,-3.4775,-3.4775,-3.4775,-3.4775,0.0,0.0,0.0,0.0,0.0,0.0,0.0,0.0,0.0,0.0,0.0,0.0,0.0,0.0,0.0,0.0,0.0,0.0,0.0,0.0,0.0,0.0,0.0,0.0,0.0,0.0,0.0,0.0,0.0,0.0,0.0,0.0,0.0,0.0,-3.4775,-3.4775,-3.4775,-3.4775,-3.4775,-3.4775,-3.4943,-3.5039,-3.5039,-3.5256,-3.5521,-3.5857,-3.5881,-3.605,-3.6386,-3.6579,-3.6675,-3.6675,-3.6843,-3.694,-3.694,-3.73,-3.7469,-3.7469,-3.7829,-3.7974,-3.7974,-3.7974,-3.7974,-3.795,-3.7613,-3.7252,-3.6892,-3.6555,-3.6411,-3.6411,-3.6411,-3.6411,-3.6411,0.0,0.0,0.0,0.0,0.0,0.0,0.0,-3.4775,-3.4775,-3.4775,-3.4775,-3.4775,-3.4775,-3.4775,-3.4775,-3.4775,-3.4775,-3.4775,-3.4775,-3.4775,-3.4775,-3.4775,-3.4775,-3.4775,-3.4775,-3.4775,-3.4775,-3.4775,-3.4799,-3.4799,-3.4847,-3.4823,-3.4823,-3.4799,-3.4799,-3.4799,-3.4775,-3.4775,-3.4775,-3.4775,-3.4775,-3.4775,-3.4775,0.0,0.0,0.0,0.0,0.0,0.0,0.0,0.0,0.0,0.0,0.0,0.0,0.0,0.0,0.0,0.0,0.0,0.0,0.0,0.0,0.0,0.0,0.0,0.0,0.0,0.0,0.0,0.0,0.0,0.0,0.0,0.0,0.0,-3.4775,-3.4775,-3.4799,-3.4799,-3.4799,-3.4799,-3.4823,-3.5352,-3.5641,-3.5641,-3.6122,-3.6411,-3.6435,-3.6435,-3.6435,-3.6459,-3.694,-3.7204,-3.7204,-3.7733,-3.7998,-3.7998,-3.7998,-3.8022,-3.8046,-3.8046,-3.8046,-3.8046,-3.8046,-3.8046,-3.8046,-3.8046,-3.8046,-3.7926,-3.6867,-3.6459,-3.6459,-3.6459,-3.6459,-3.6459,0.0,0.0,0.0,0.0,0.0,0.0,0.0,-3.4775,-3.4775,-3.4775,-3.4775,-3.4775,-3.4775,-3.4775,-3.4775,-3.4775,-3.4775,-3.4775,-3.4775,-3.4775,-3.4775,-3.4775,-3.4775,-3.4775,-3.4775,-3.4775,-3.4775,-3.4775,-3.5208,-3.54,-3.54,-3.5785,-3.5761,-3.54,-3.54,-3.5135,-3.4775,-3.4775,-3.4775,-3.4775,-3.4775,-3.4775,-3.4775,0.0,0.0,0.0,0.0,0.0,0.0,0.0,0.0,0.0,0.0,0.0,0.0,0.0,0.0,0.0,0.0,0.0,0.0,0.0,0.0,0.0,0.0,0.0,0.0,0.0,0.0,0.0,0.0,0.0,0.0,0.0,-3.4775,-3.4775,-3.4775,-3.4775,-3.4919,-3.5352,-3.54,-3.5545,-3.593,-3.6098,-3.6194,-3.6194,-3.6314,-3.6579,-3.6964,-3.6988,-3.7156,-3.7541,-3.7685,-3.7757,-3.7757,-3.7902,-3.819,-3.8599,-3.8599,-3.8791,-3.9152,-3.9152,-3.9152,-3.9152,-3.9152,-3.9152,-3.9152,-3.9152,-3.9152,-3.9056,-3.7974,-3.7541,-3.7541,-3.7541,-3.7541,-3.7541,0.0,0.0,0.0,0.0,0.0,0.0,0.0,-3.4775,-3.4775,-3.4775,-3.4775,-3.4775,-3.4775,-3.4775,-3.4775,-3.4775,-3.4775,-3.4775,-3.4775,-3.4775,-3.4775,-3.4775,-3.4775,-3.4775,-3.4775,-3.4991,-3.516,-3.516,-3.5689,-3.5954,-3.5954,-3.6266,-3.6242,-3.5954,-3.5954,-3.5665,-3.516,-3.516,-3.504,-3.4775,-3.4775,-3.4775,-3.4775,-3.4775,-3.4775,-3.4775,-3.4775,-3.4775,-3.4775,-3.4775,0.0,0.0,0.0,0.0,0.0,0.0,0.0,0.0,0.0,0.0,0.0,0.0,0.0,0.0,0.0,0.0,0.0,0.0,0.0,0.0,0.0,0.0,0.0,0.0,-3.4967,-3.516,-3.516,-3.516,-3.528,-3.5569,-3.5809,-3.6074,-3.6362,-3.6603,-3.6747,-3.6747,-3.694,-3.7204,-3.7517,-3.7517,-3.7661,-3.7974,-3.7974,-3.8094,-3.8334,-3.8334,-3.8599,-3.9152,-3.9152,-3.932,-3.9609,-3.9609,-3.9609,-3.9609,-3.9609,-3.9609,-3.9609,-3.9609,-3.9609,-3.9513,0.0,0.0,0.0,0.0,-3.7974,-3.7974,0.0,0.0,0.0,0.0,0.0,0.0,0.0,-3.4823,-3.4823,-3.4775,-3.4775,-3.4775,-3.4775,-3.4775,-3.4775,-3.4775,-3.4775,-3.4775,-3.4775,-3.4775,-3.4775,-3.4775,-3.4775,-3.4775,-3.4775,-3.5352,-3.5617,-3.5617,-3.6218,-3.6483,-3.6483,-3.6555,-3.6555,-3.6483,-3.6483,-3.617,-3.5617,-3.5617,-3.5304,-3.4775,-3.4775,-3.4775,-3.4775,-3.4775,-3.4775,-3.4775,-3.4775,-3.4775,-3.4775,-3.4775,0.0,0.0,0.0,0.0,0.0,0.0,0.0,0.0,0.0,0.0,0.0,0.0,0.0,0.0,0.0,0.0,0.0,0.0,0.0,0.0,0.0,0.0,0.0,0.0,-3.5304,-3.5641,-3.5689,-3.5761,-3.5785,-3.5785,-3.6218,-3.6507,-3.6579,-3.7012,-3.7276,-3.7276,-3.7709,-3.7974,-3.7974,-3.7974,0.0,0.0,0.0,-3.8334,-3.8912,-3.8912,-3.9176,-3.9705,-3.9705,-3.9729,-3.9777,-3.9777,-3.9777,-3.9777,-3.9777,-3.9777,-3.9777,-3.9777,-3.9753,-3.9657,-3.9104,-3.8912,-3.8839,-3.8359,-3.8166,-3.8166,0.0,0.0,0.0,0.0,0.0,0.0,0.0,-3.5114,-3.5017,-3.4823,-3.4775,-3.4775,-3.4775,-3.4775,-3.4775,-3.4775,-3.4775,-3.4775,-3.4775,-3.4775,-3.4775,-3.4775,-3.4775,-3.4775,-3.4775,-3.5352,-3.5617,-3.5617,-3.6579,-3.7036,-3.706,-3.7469,-3.7445,-3.7036,-3.7036,-3.6507,-3.5617,-3.5617,-3.5304,-3.4775,-3.4775,-3.4775,-3.4775,-3.4775,-3.4775,-3.4775,-3.4775,-3.4775,-3.4775,-3.4775,-3.4775,-3.4775,-3.4775,0.0,0.0,0.0,0.0,0.0,0.0,0.0,0.0,0.0,0.0,0.0,0.0,0.0,0.0,0.0,0.0,0.0,0.0,0.0,0.0,-3.54,-3.5545,-3.5761,-3.6194,-3.6627,-3.6892,-3.6892,-3.6988,-3.7204,-3.7637,-3.7757,-3.7829,-3.7829,-3.7926,-3.7974,-3.7974,-3.7974,-3.819,-3.8647,-3.8671,-3.8912,-3.9441,-3.9465,-3.9705,-4.0234,-4.0234,0.0,-4.0884,-4.0884,-4.0884,-4.0884,-4.0884,-4.0884,-4.0884,-4.0884,-4.0619,-4.0186,-3.9657,-3.9465,-3.9441,-3.9345,-3.9296,-3.9296,0.0,0.0,0.0,0.0,0.0,0.0,0.0,-3.5235,-3.5114,-3.4823,-3.4775,-3.4775,-3.4775,-3.4775,-3.4775,-3.4775,-3.4775,-3.4775,-3.4775,-3.4775,-3.4775,-3.4775,-3.4775,-3.4895,-3.5208,-3.5737,-3.6146,-3.6411,-3.7204,-3.7589,-3.7589,-3.7853,-3.7829,-3.7589,-3.7589,-3.7012,-3.6002,-3.6002,-3.5545,-3.4775,-3.4775,-3.4775,-3.4775,-3.4775,-3.4775,-3.4775,-3.4775,-3.4775,-3.4775,-3.4775,-3.4775,-3.4775,-3.4775,-3.4775,-3.4775,0.0,0.0,0.0,0.0,0.0,0.0,0.0,0.0,0.0,0.0,0.0,0.0,0.0,0.0,-3.4775,-3.4775,0.0,-3.5304,-3.5569,-3.605,-3.6507,-3.6771,-3.7252,-3.7493,-3.7228,-3.7421,-3.7685,-3.795,-3.7974,-3.7974,-3.7974,-3.7974,-3.8094,-3.8383,-3.8407,-3.8647,-3.92,-3.9224,-3.9465,-3.9994,-3.9994,-4.0258,-4.0787,-4.0787,-4.0932,-4.1172,-4.1172,-4.1172,-4.1172,-4.1172,-4.1172,-4.1172,-4.1172,-4.1028,-4.0763,-4.0499,-4.0066,-3.9609,-3.9609,-3.9609,-3.9609,0.0,0.0,0.0,0.0,0.0,0.0,0.0,0.0,-3.5235,-3.492,-3.492,-3.492,-3.4823,-3.4823,-3.4872,-3.4775,-3.4775,-3.4775,-3.4775,-3.4775,-3.4775,-3.4775,-3.4775,-3.4967,-3.5449,-3.5978,-3.6507,-3.7036,-3.7565,-3.7878,-3.7974,-3.7974,-3.7974,-3.7974,-3.7878,-3.73,-3.6386,-3.629,-3.5713,-3.4775,-3.4775,-3.4775,-3.4775,-3.4775,-3.4775,-3.4775,-3.4775,-3.4775,-3.4775,-3.4775,-3.4775,-3.4775,-3.4775,-3.4775,-3.4775,-3.4775,-3.4775,0.0,0.0,0.0,0.0,0.0,0.0,0.0,0.0,-3.4775,-3.4775,-3.4775,-3.4775,-3.4799,-3.4968,-3.5328,-3.5689,-3.5881,-3.6651,-3.7228,-3.7324,-3.7709,-3.7829,-3.7397,-3.7733,-3.7974,-3.7974,-3.7974,-3.7974,-3.7974,-3.8094,-3.8334,-3.8791,-3.8912,-3.9224,-3.9753,-3.9753,-4.0018,-4.0547,-4.0547,-4.0763,-4.1172,-4.1172,-4.1172,-4.1172,-4.1172,-4.1172,-4.1172,-4.1172,-4.1172,-4.1172,-4.1172,-4.1172,-4.1172,-4.1172,-4.0667,-3.9922,-3.9922,-3.9922,-3.9922,0.0,0.0,0.0,0.0,0.0,0.0,0.0,0.0,0.0,-3.5211,-3.538,-3.5332,-3.4823,-3.5017,-3.5066,-3.4823,-3.4775,-3.4775,-3.4775,-3.4775,-3.4775,-3.4775,-3.4775,-3.4799,-3.4871,-3.5449,-3.5954,-3.6483,-3.7012,-3.7517,-3.7974,-3.7974,-3.7974,-3.795,-3.7493,-3.6964,-3.6362,-3.5905,-3.5376,-3.4775,-3.4775,-3.4775,-3.4775,-3.4775,-3.4775,-3.4775,-3.4775,-3.4775,-3.4775,-3.4775,-3.4775,-3.4775,-3.4775,-3.4775,-3.4775,-3.4775,-3.4775,-3.4775,-3.4775,-3.4775,-3.4775,-3.4775,-3.4775,-3.4775,0.0,-3.4775,-3.4775,-3.4775,-3.4775,-3.4968,-3.5449,-3.5569,-3.593,-3.6867,-3.7108,-3.7348,-3.7829,-3.795,-3.795,-3.7902,-3.795,-3.7974,-3.7974,-3.7974,-3.7974,-3.7974,-3.8455,-3.8743,-3.8815,-3.9272,-3.9753,-4.0282,-4.0306,-4.0571,-4.11,-4.11,-4.1124,-4.1172,-4.1172,-4.1172,-4.1172,-4.1172,-4.1172,-4.1172,-4.1172,-4.1172,-4.1172,-4.1172,-4.1172,-4.1172,-4.1172,-4.1124,-4.1004,-4.1004,-4.1004,-4.1004,0.0,0.0,0.0,0.0,0.0,0.0,0.0,0.0,0.0,0.0,-3.5524,-3.5524,-3.5284,-3.538,-3.5332,-3.5066,-3.5017,-3.4969,-3.4823,-3.4775,-3.4775,-3.4775,-3.4775,-3.4968,-3.528,-3.5497,-3.5881,-3.6411,-3.6627,-3.6843,-3.706,-3.706,-3.706,-3.706,-3.6819,-3.6435,-3.593,-3.5713,-3.5304,-3.4775,-3.4775,-3.4775,-3.4775,-3.4775,-3.4775,-3.4775,-3.4775,-3.4775,0.0,0.0,-3.4775,-3.4775,-3.4775,-3.4775,-3.4775,-3.4775,-3.4775,-3.4775,-3.4775,-3.4775,-3.4775,-3.4775,-3.4775,-3.4775,-3.4775,-3.4775,-3.4775,-3.4775,-3.5064,-3.5352,-3.5569,-3.6122,-3.6675,-3.7132,-3.7445,-3.7733,-3.795,-3.7974,-3.7974,-3.7974,-3.7974,-3.7974,-3.7974,-3.7974,-3.8118,-3.8455,-3.8695,-3.908,-3.9705,-3.9946,-4.0306,-4.0836,-4.086,-4.0956,-4.1172,-4.1172,-4.1172,-4.1172,-4.1172,-4.1172,-4.1172,-4.1172,-4.1172,-4.1172,-4.1172,-4.1172,-4.1172,-4.1172,-4.1172,-4.1172,-4.1172,-4.1172,-4.1172,-4.1172,-4.1172,-4.1172,0.0,0.0,0.0,0.0,0.0,0.0,0.0,0.0,0.0,0.0,0.0,-3.5812,-3.5716,-3.562,-3.5524,-3.5332,-3.5332,-3.5235,-3.492,-3.492,-3.4872,-3.4775,-3.4775,-3.4967,-3.54,-3.54,-3.5665,-3.6194,-3.6194,-3.6266,-3.6411,-3.6411,-3.6411,-3.6386,-3.6266,-3.5978,-3.5617,-3.5449,-3.5184,-3.4775,-3.4775,-3.4775,-3.4775,-3.4775,-3.4775,-3.4775,-3.4775,-3.4775,0.0,0.0,-3.4775,-3.4775,-3.4775,-3.4775,-3.4775,-3.4775,-3.4775,-3.4775,-3.4775,-3.4775,-3.4775,-3.4775,-3.4775,-3.4775,-3.4775,-3.4775,-3.4823,-3.4967,-3.5352,-3.5713,-3.6002,-3.6675,-3.7252,-3.7397,-3.7733,-3.7974,-3.7974,-3.7974,-3.7974,-3.7974,-3.7974,-3.7974,-3.7974,-3.8118,-3.8383,-3.8791,-3.908,-3.9585,-4.0355,-4.0547,-4.0787,-4.1172,-4.1172,-4.1172,-4.1172,-4.1172,-4.1172,-4.1172,-4.1172,-4.1172,-4.1172,-4.1172,-4.1172,-4.1172,-4.1172,-4.1268,-4.1413,-4.1413,-4.1485,-4.1629,-4.1629,-4.1629,-4.1629,-4.1629,-4.1437,-4.1172,0.0,0.0,0.0,0.0,0.0,0.0,0.0,0.0,0.0,0.0,0.0,0.0,0.0,-3.5764,-3.562,-3.5572,-3.5572,-3.5476,-3.5235,-3.5187,-3.5066,-3.4823,-3.4775,-3.4799,-3.4799,-3.4799,-3.5112,-3.5641,-3.5641,-3.5905,-3.6411,-3.6411,-3.6411,-3.6386,-3.5881,-3.5641,-3.5593,-3.5064,-3.4799,-3.4775,-3.4775,-3.4775,-3.4775,-3.4775,-3.4775,-3.4775,-3.4775,0.0,0.0,0.0,-3.4775,-3.4775,-3.4775,-3.4775,-3.4775,-3.4775,-3.4775,-3.4775,-3.4775,-3.4775,-3.4775,-3.4775,-3.4775,-3.4775,-3.4775,-3.4775,-3.4968,-3.5497,-3.5617,-3.593,-3.6964,-3.718,-3.7348,-3.7878,-3.7974,-3.7974,-3.7974,-3.7974,-3.7974,-3.7974,-3.7974,-3.7974,-3.7974,-3.8479,-3.8791,-3.8815,-3.9753,-4.0355,-4.0403,-4.0884,-4.1172,-4.1172,-4.1172,-4.1172,-4.1172,-4.1172,-4.1172,-4.1172,-4.1172,-4.1172,-4.1172,-4.1172,-4.1172,-4.1172,-4.1172,-4.1485,-4.2,-4.2,-4.2313,-4.2771,-4.2771,-4.2771,-4.2771,-4.2771,-4.2062,-4.1172,0.0,0.0,0.0,0.0,0.0,0.0,0.0,0.0,0.0,0.0,0.0,0.0,0.0,0.0,0.0,0.0,-3.586,-3.5764,-3.5476,-3.5476,-3.538,-3.5066,-3.5066,-3.4969,-3.4775,-3.4775,-3.4871,-3.5039,-3.5039,-3.5184,-3.5352,-3.5352,-3.5352,-3.5352,-3.5184,-3.5039,-3.5088,-3.4847,-3.4775,-3.4775,-3.4775,-3.4775,-3.4775,-3.4775,-3.4775,-3.4775,0.0,0.0,0.0,0.0,0.0,-3.4775,-3.4775,-3.4775,-3.4775,-3.4775,-3.4775,-3.4775,-3.4775,-3.4775,-3.4775,-3.4775,-3.4775,-3.4775,-3.4775,-3.5088,-3.54,-3.5569,-3.617,-3.6771,-3.7132,-3.7469,-3.7781,-3.795,-3.7974,-3.7974,-3.7974,-3.7974,-3.7974,-3.7974,-3.7974,-3.8118,-3.8503,-3.8695,-3.896,-3.932,-3.9994,-4.0547,-4.0908,-4.1076,-4.1172,-4.1172,-4.1172,-4.1172,-4.1172,-4.1172,-4.1172,-4.1196,-4.1533,-4.1701,-4.1725,-4.2121,-4.223,-4.223,-4.223,-4.2327,-4.2554,-4.2554,-4.2651,-4.2819,-4.2819,-4.2819,-4.2819,-4.2819,-4.2602,-4.223,0.0,0.0,0.0,0.0,0.0,0.0,0.0,0.0,0.0,0.0,0.0,0.0,0.0,0.0,0.0,0.0,0.0,-3.6051,-3.5764,-3.5716,-3.562,-3.5356,-3.5332,-3.5259,-3.5066,-3.509,-3.5017,-3.492,-3.492,-3.4872,-3.4775,-3.4775,-3.4775,-3.4775,-3.4775,-3.4775,-3.4775,-3.4775,-3.4775,-3.4775,-3.4775,-3.4775,-3.4775,-3.4775,-3.4775,0.0,0.0,0.0,0.0,0.0,0.0,-3.4775,-3.4775,-3.4775,-3.4775,-3.4775,-3.4775,-3.4775,-3.4775,-3.4775,-3.4775,-3.4775,-3.4919,-3.5112,-3.5112,-3.5521,-3.5954,-3.6146,-3.6723,-3.7252,-3.7445,-3.7757,-3.7974,-3.7974,-3.7974,-3.7974,-3.7974,-3.7974,-3.7974,-3.7974,-3.8166,-3.8431,-3.8791,-3.9152,-3.9513,-3.985,-4.0379,-4.0836,-4.1172,-4.1172,-4.1172,-4.1172,-4.1172,-4.1172,-4.1172,-4.1172,-4.1268,-4.1461,-4.1856,-4.2062,-4.2313,-4.2651,-4.2819,-4.2819,-4.2819,-4.2916,-4.3024,-4.3024,-4.3144,-4.3337,-4.3337,-4.3337,-4.3337,-4.3337,-4.3337,-4.3265,0.0,0.0,0.0,0.0,0.0,0.0,0.0,0.0,0.0,0.0,0.0,0.0,0.0,0.0,0.0,0.0,0.0,0.0,-3.6051,-3.6003,-3.5908,-3.562,-3.562,-3.562,-3.562,-3.562,-3.5476,-3.5235,-3.5235,-3.5066,-3.4775,-3.4775,-3.4775,-3.4775,-3.4775,-3.4775,-3.4775,-3.4775,-3.4775,-3.4775,-3.4775,-3.4775,-3.4775,-3.4775,0.0,0.0,0.0,0.0,0.0,-3.4775,-3.4775,-3.4775,-3.4775,-3.4775,-3.4775,-3.4775,-3.4775,-3.4775,-3.4775,-3.4799,-3.4823,-3.4823,-3.5207,-3.5641,-3.5617,-3.6026,-3.6555,-3.706,-3.718,-3.7348,-3.7878,-3.7974,-3.7974,-3.7974,-3.7974,-3.7974,-3.7974,-3.7974,-3.7998,-3.8022,-3.8503,-3.8839,-3.8888,-3.9801,-4.0403,-4.0427,-4.0908,-4.1172,-4.1172,-4.1172,-4.1172,-4.1172,-4.1172,-4.1172,-4.1172,-4.122,-4.1485,-4.2014,-4.2038,-4.2303,-4.2867,-4.2891,-4.2916,-4.2916,-4.2916,-4.312,-4.3553,-4.3553,-4.3866,-4.4285,-4.4285,-4.4285,-4.4285,-4.4285,-4.4285,-4.4141,0.0,0.0,0.0,0.0,0.0,0.0,0.0,0.0,0.0,0.0,0.0,0.0,0.0,0.0,0.0,0.0,0.0,0.0,-3.631,-3.631,-3.6193,-3.5908,-3.5908,-3.5812,-3.562,0.0,0.0,-3.5235,-3.5235,-3.5066,-3.4775,-3.4775,-3.4775,-3.4775,-3.4775,-3.4775,-3.4775,-3.4775,-3.4775,-3.4775,0.0,-3.4775,-3.4775,0.0,0.0,0.0,0.0,0.0,-3.4775,-3.4775,-3.4775,-3.4775,-3.4775,-3.4775,-3.4775,-3.4775,-3.4775,-3.4775,-3.4775,-3.5112,-3.5425,-3.5425,-3.5809,-3.6098,-3.5713,-3.6026,-3.6435,-3.6579,-3.6916,-3.7348,-3.7878,-3.7974,-3.7974,-3.7974,-3.7974,-3.7974,-3.7974,-3.7974,-3.8142,-3.8551,-3.8743,-3.9128,-3.9922,-4.0234,-4.0571,-4.0956,-4.11,-4.1172,-4.1172,-4.1172,-4.1172,-4.1172,-4.1172,-4.1172,-4.1172,-4.1581,-4.2097,-4.2627,-4.2928,-4.3192,-4.3337,-4.3746,-4.3938,-4.3938,-4.3938,-4.401,-4.4069,-4.4069,-4.4165,-4.4285,-4.4285,-4.4285,-4.4285,-4.4285,-4.4285,-4.4237,0.0,0.0,0.0,0.0,0.0,0.0,0.0,0.0,0.0,0.0,0.0,0.0,0.0,0.0,0.0,0.0,0.0,0.0,0.0,-3.6405,-3.631,-3.6193,-3.6193,-3.5974,-3.5561,0.0,0.0,0.0,0.0,0.0,-3.4631,-3.4872,-3.492,-3.4775,-3.4775,-3.4775,-3.4775,-3.4775,0.0,0.0,0.0,0.0,0.0,0.0,0.0,0.0,0.0,-3.4775,-3.4775,-3.4775,-3.4775,-3.4775,-3.4775,-3.4775,-3.4775,-3.4775,-3.4775,-3.4823,-3.5112,-3.54,-3.5665,-3.5905,-3.6362,-3.6603,-3.6074,-3.6362,-3.6675,-3.6459,-3.6819,-3.7276,-3.7589,-3.7829,-3.7974,-3.7974,-3.7974,-3.7974,-3.7974,-3.819,-3.8455,-3.8767,-3.9224,-3.9753,-4.0331,-4.0595,-4.086,-4.1172,-4.1172,-4.1172,-4.1172,-4.1172,-4.1172,-4.1172,-4.1172,-4.1293,-4.1533,-4.2062,-4.2591,-4.3096,-4.3385,-4.3649,-4.389,-4.4141,-4.4285,-4.4285,-4.4285,-4.4285,-4.4285,-4.4285,-4.4285,-4.4285,-4.4285,-4.4285,-4.4285,-4.4285,-4.4285,-4.4285,0.0,0.0,0.0,0.0,0.0,0.0,0.0,0.0,0.0,0.0,0.0,0.0,0.0,0.0,0.0,0.0,0.0,0.0,0.0,0.0,0.0,0.0,-3.6304,-3.5981,-3.5408,-3.5382,-3.5019,-3.4293,-3.4835,0.0,0.0,0.0,0.0,0.0,0.0,0.0,0.0,0.0,0.0,0.0,0.0,0.0,0.0,0.0,0.0,0.0,-3.4775,-3.4775,-3.4775,-3.4775,-3.4775,-3.4775,-3.4775,-3.4775,-3.4775,-3.4775,-3.4775,-3.4895,-3.5473,-3.5665,-3.5833,-3.6386,-3.6867,-3.706,-3.6531,-3.6699,-3.6867,-3.6386,-3.6723,-3.7108,-3.718,-3.7637,-3.7974,-3.7974,-3.7974,-3.7974,-3.7974,-3.8455,-3.8839,-3.8912,-3.9801,-4.0427,-4.0499,-4.0908,-4.1172,-4.1172,-4.1172,-4.1172,-4.1172,-4.1172,-4.122,-4.1293,-4.1293,-4.1581,-4.2158,-4.2699,-4.312,-4.3625,-4.3625,-4.3866,-4.4285,-4.4285,-4.4285,-4.4285,-4.4285,-4.4285,-4.4285,-4.4285,-4.4285,-4.4285,-4.4285,-4.4285,-4.4285,-4.4285,-4.4285,-4.4285,0.0,0.0,0.0,0.0,0.0,0.0,0.0,0.0,0.0,0.0,-3.6405,-3.6405,0.0,0.0,0.0,0.0,0.0,0.0,0.0,0.0,0.0,0.0,-3.5633,-3.5382,-3.4831,-3.4831,-3.469,-3.4293,-3.4392,0.0,0.0,0.0,0.0,0.0,0.0,0.0,0.0,0.0,0.0,0.0,0.0,0.0,0.0,0.0,0.0,0.0,-3.4775,-3.4775,-3.4775,-3.4775,-3.4775,-3.4775,-3.4775,-3.4775,-3.4775,-3.4775,-3.4775,-3.4895,-3.5473,-3.593,-3.6386,-3.6916,-3.7132,-3.706,-3.6531,-3.6146,-3.5857,-3.5785,-3.617,-3.6675,-3.7108,-3.7637,-3.7974,-3.7974,-3.7974,-3.7974,-3.7974,-3.8455,-3.8984,-3.9417,-4.0018,-4.0571,-4.1004,-4.1124,-4.1172,-4.1172,-4.1172,-4.1172,-4.1172,-4.1172,-4.1389,-4.1822,-4.1846,-4.2279,-4.3241,-4.3337,-4.3649,-4.4141,-4.4141,-4.4189,-4.4285,-4.4285,-4.4285,-4.4285,-4.4285,-4.4285,-4.4285,-4.4285,-4.4285,-4.4285,-4.4285,-4.4285,-4.4285,-4.4285,-4.4285,-4.4285,0.0,0.0,0.0,0.0,0.0,0.0,0.0,-3.6405,-3.6405,-3.6405,-3.6405,-3.6405,-3.6405,-3.6405,-3.6405,0.0,0.0,0.0,0.0,0.0,0.0,0.0,0.0,0.0,0.0,-3.4299,-3.4059,-3.367,0.0,-3.411,-3.4156,-3.429,-3.4475,-3.475,-3.4654,0.0,0.0,0.0,0.0,0.0,0.0,0.0,0.0,0.0,0.0,0.0,0.0,-3.4775,-3.4775,-3.4775,-3.4775,-3.4775,-3.4775,-3.4775,-3.4775,-3.4775,-3.4775,-3.4895,-3.5473,-3.5809,-3.6122,-3.6651,-3.6771,-3.6651,-3.6122,-3.5785,-3.5545,-3.5256,-3.5617,-3.6146,-3.6675,-3.7204,-3.7661,-3.7926,-3.7974,-3.7974,-3.7974,-3.8695,-3.932,-3.9585,-4.0306,-4.0908,-4.1172,-4.1172,-4.1172,-4.1172,-4.1172,-4.1172,-4.1172,-4.1172,-4.1437,-4.1966,-4.2289,-4.276,-4.3505,-4.3794,-4.4021,-4.4285,-4.4285,-4.4285,-4.4285,-4.4285,-4.4285,-4.4285,-4.4285,-4.4285,-4.4285,-4.4285,-4.4285,-4.4285,-4.4285,-4.4285,-4.4285,-4.4285,-4.4285,-4.4285,0.0,0.0,0.0,0.0,0.0,0.0,0.0,-3.6405,-3.6405,-3.6405,-3.6405,-3.6405,-3.6405,-3.6405,-3.6405,0.0,0.0,0.0,0.0,0.0,0.0,0.0,0.0,0.0,0.0,0.0,0.0,-3.3111,-3.352,0.0,0.0,0.0,0.0,0.0,-3.4433,-3.4534,-3.4775,0.0,0.0,0.0,0.0,-3.4775,0.0,0.0,0.0,0.0,0.0,-3.4775,-3.4775,-3.4775,-3.4775,-3.4775,-3.4775,-3.4775,-3.4775,-3.4775,-3.4775,-3.4895,-3.5473,-3.5617,-3.5737,-3.6266,-3.6314,-3.6122,-3.5713,-3.5521,-3.5328,-3.4871,-3.5256,-3.5785,-3.6314,-3.6843,-3.7372,-3.7902,-3.7974,-3.7974,-3.7974,-3.8912,-3.9609,-3.9609,-4.0547,-4.1172,-4.1172,-4.1172,-4.1172,-4.1172,-4.1172,-4.1172,-4.1172,-4.1293,-4.1605,-4.211,-4.2699,-4.3168,-4.3697,-4.4069,-4.4285,-4.4285,-4.4285,-4.4285,-4.4285,-4.4285,-4.4285,-4.4285,-4.4285,-4.4285,-4.4285,-4.4285,-4.4285,-4.4285,-4.4285,-4.4285,-4.4285,-4.4285,-4.4285,-4.4285,0.0,0.0,0.0,0.0,0.0,0.0,0.0,-3.6405,-3.6405,-3.6405,-3.6405,-3.6405,-3.6405,-3.6405,-3.6405,0.0,0.0,0.0,0.0,0.0,0.0,0.0,0.0,0.0,0.0,0.0,0.0,-3.3111,-3.3162,0.0,0.0,0.0,0.0,0.0,0.0,-3.4534,-3.4775,-3.4775,0.0,0.0,0.0,0.0,0.0,0.0,0.0,0.0,0.0,-3.4775,-3.4775,-3.4775,-3.4775,-3.4775,-3.4775,-3.4775,-3.4775,-3.4775,-3.4775,-3.4895,-3.5473,-3.5617,-3.5737,-3.6266,-3.605,-3.5689,-3.5617,-3.5256,-3.4847,-3.4799,-3.5256,-3.5785,-3.6314,-3.6843,-3.7372,-3.7902,-3.7974,-3.7974,-3.7974,-3.8912,-3.9609,-3.9609,-4.0547,-4.1172,-4.1172,-4.1172,-4.1172,-4.1172,-4.1172,-4.1172,-4.1172,-4.1629,-4.2134,-4.2723,-4.3168,-4.3697,-4.4213,-4.4261,-4.4285,-4.4285,-4.4285,-4.4285,-4.4285,-4.4285,-4.4285,-4.4285,-4.4285,-4.4285,0.0,-4.4285,-4.4285,-4.4285,-4.4285,-4.4285,-4.4285,-4.4285,-4.4285,-4.4285,0.0,0.0,0.0,0.0,0.0,0.0,-3.6405,-3.6405,-3.6405,-3.6405,-3.6405,-3.6405,-3.6405,-3.6405,-3.6405,-3.6405,0.0,0.0,0.0,0.0,0.0,0.0,0.0,0.0,0.0,0.0,-3.3111,-3.3111,-3.3111,0.0,0.0,0.0,0.0,0.0,0.0,-3.405,-3.4318,-3.4655,0.0,0.0,0.0,0.0,0.0,0.0,0.0,0.0,0.0,0.0,-3.4775,-3.4775,-3.4775,-3.4775,-3.4775,-3.4775,-3.4775,-3.4775,-3.4775,-3.4823,-3.5039,-3.5136,-3.5184,-3.54,-3.5304,-3.5136,-3.5136,-3.4919,-3.4775,-3.4775,-3.4943,-3.54,-3.6242,-3.6579,-3.6988,-3.7853,-3.7974,-3.7974,-3.7974,-3.8647,-3.9248,-3.9561,-4.0258,-4.0836,-4.1148,-4.1172,-4.1172,-4.1172,-4.1485,-4.1653,-4.1653,-4.1846,-4.2351,-4.3192,-4.3409,-4.377,-4.4285,-4.4285,-4.4285,-4.4285,-4.4285,-4.4285,-4.4285,-4.4285,-4.4285,-4.4285,-4.4285,-4.4285,0.0,-4.4285,-4.4285,-4.4285,-4.4285,-4.4285,-4.4285,-4.4285,-4.4285,-4.4285,0.0,0.0,0.0,0.0,0.0,-3.6452,-3.6405,-3.6405,-3.6405,-3.6405,-3.6405,-3.6405,-3.6405,-3.6405,-3.6405,-3.6405,-3.6405,0.0,0.0,0.0,0.0,0.0,0.0,0.0,0.0,0.0,-3.3111,-3.3111,-3.3111,-3.3111,0.0,0.0,-3.2934,-3.3236,0.0,0.0,0.0,0.0,0.0,0.0,0.0,0.0,0.0,0.0,0.0,0.0,0.0,0.0,0.0,0.0,0.0,-3.4775,-3.4775,-3.4775,-3.4775,-3.4775,-3.4775,-3.4775,-3.4775,-3.4775,-3.4775,-3.4775,-3.4775,-3.4775,-3.4775,-3.4775,-3.4775,-3.4775,-3.4775,-3.516,-3.6218,-3.6411,-3.6747,-3.7805,-3.7974,-3.7974,-3.7974,-3.8455,-3.9008,-3.9537,-4.0066,-4.0595,-4.1124,-4.1172,-4.1172,-4.1172,-4.1677,-4.2038,-4.2265,-4.2351,-4.276,-4.3481,-4.3673,-4.3938,-4.4285,-4.4285,-4.4285,-4.4285,-4.4285,-4.4285,-4.4285,-4.4285,-4.4285,-4.4285,-4.4285,-4.4285,0.0,-4.4285,-4.4285,-4.4285,-4.4285,-4.4285,-4.4285,-4.4285,-4.4285,-4.4285,0.0,0.0,0.0,0.0,0.0,0.0,-3.6452,-3.6405,-3.6405,-3.6405,-3.6405,-3.6405,-3.6405,-3.6405,-3.6405,-3.6405,-3.6405,0.0,0.0,0.0,0.0,0.0,0.0,0.0,0.0,0.0,-3.3111,-3.3111,-3.3111,-3.3111,-3.3111,-3.3111,-3.3109,-3.3211,0.0,0.0,0.0,0.0,0.0,0.0,0.0,0.0,0.0,0.0,0.0,0.0,0.0,0.0,0.0,0.0,0.0,0.0,0.0,-3.4775,-3.4775,-3.4775,-3.4775,-3.4775,-3.4775,-3.4775,-3.4775,-3.4775,-3.4775,-3.4775,-3.4775,-3.4775,-3.4775,-3.4775,-3.4775,-3.516,-3.6218,-3.6411,-3.6747,-3.7805,-3.7974,-3.7974,-3.7974,-3.8455,-3.9008,-3.9537,-4.0066,-4.0595,-4.1124,-4.1172,-4.1172,-4.1172,-4.1677,-4.2265,-4.2771,-4.3216,-4.3505,-4.3505,-4.3997,-4.4285,-4.4285,-4.4285,-4.4285,-4.4285,-4.4285,-4.4285,-4.4285,-4.4285,-4.4285,-4.4285,-4.4285,-4.4285,0.0,-4.4285,-4.4285,-4.4285,-4.4285,-4.4285,-4.4285,-4.4285,-4.4285,-4.4285,0.0,0.0,0.0,0.0,0.0,0.0,0.0,-3.6499,-3.6405,-3.6405,-3.6405,-3.6405,-3.6405,-3.6405,-3.6405,-3.6405,-3.6405,0.0,0.0,0.0,0.0,0.0,0.0,0.0,0.0,0.0,-3.3445,-3.3111,-3.3111,-3.3111,-3.3111,-3.2896,-3.2779,-3.2671,-3.3032,-3.3295,0.0,0.0,0.0,0.0,0.0,0.0,-3.4775,0.0,0.0,0.0,0.0,0.0,0.0,0.0,0.0,0.0,0.0,0.0,0.0,-3.4775,-3.4775,-3.4775,-3.4775,-3.4775,-3.4775,-3.4775,-3.4775,-3.4775,-3.4775,-3.4775,-3.4775,-3.4775,-3.4775,-3.516,-3.6218,-3.6411,-3.6747,-3.7805,-3.7974,-3.7974,-3.7974,-3.8142,-3.8575,-3.9489,-4.0403,-4.1004,-4.1172,-4.1172,-4.1172,-4.1172,-4.2014,-4.2651,-4.2819,-4.3601,-4.4021,-4.4021,-4.4189,-4.4285,-4.4285,-4.4285,-4.4285,-4.4285,-4.4285,-4.4285,-4.4285,-4.4285,-4.4285,-4.4285,-4.4285,-4.4285,-4.4285,-4.4285,-4.4285,-4.4285,-4.4285,-4.4285,-4.4285,-4.4285,-4.4285,-4.4285,0.0,0.0,0.0,0.0,0.0,0.0,0.0,-3.6499,-3.6405,-3.6405,-3.6405,-3.6405,-3.6405,-3.6405,-3.6405,-3.6405,-3.6405,0.0,0.0,0.0,0.0,0.0,0.0,0.0,0.0,-3.4123,-3.3746,-3.3395,-3.3212,-3.3111,-3.3111,-3.2939,-3.268,-3.2425,-3.2983,-3.3293,0.0,0.0,0.0,0.0,0.0,0.0,-3.4775,0.0,0.0,0.0,0.0,0.0,0.0,0.0,0.0,0.0,0.0,0.0,0.0,0.0,-3.4775,-3.4775,-3.4775,-3.4775,-3.4775,-3.4775,-3.4775,-3.4775,-3.4775,-3.4775,-3.4775,-3.4775,-3.4775,-3.516,-3.6218,-3.6411,-3.6747,-3.7805,-3.7974,-3.7974,-3.7974,-3.7974,-3.8383,-3.9465,-4.0547,-4.1172,-4.1172,-4.1172,-4.1172,-4.1172,-4.199,-4.2602,-4.2819,-4.3577,-4.4069,-4.4285,-4.4285,-4.4285,-4.4285,-4.4285,-4.4285,-4.4285,-4.4285,-4.4285,-4.4285,-4.4285,-4.4285,-4.4285,-4.4285,-4.4285,0.0,-4.4285,-4.4285,-4.4285,-4.4285,-4.4285,-4.4285,-4.4285,-4.4285,-4.4309,0.0,0.0,0.0,0.0,0.0,0.0,0.0,-3.6405,-3.6405,-3.6405,-3.6405,-3.6405,-3.6405,-3.6405,-3.6405,-3.6405,0.0,0.0,0.0,0.0,0.0,0.0,0.0,0.0,-3.5508,-3.455,-3.3997,-3.3947,-3.3395,-3.3187,-3.3187,-3.3136,-3.2878,-3.2542,-3.3506,-3.3722,-3.3404,-3.4414,-3.4775,-3.4775,-3.4775,-3.4775,0.0,0.0,0.0,0.0,0.0,0.0,0.0,0.0,0.0,0.0,0.0,0.0,0.0,0.0,0.0,0.0,0.0,-3.4775,-3.4775,-3.4775,-3.4775,-3.4775,-3.4775,-3.4775,0.0,-3.4775,-3.4775,-3.516,-3.6218,-3.6411,-3.6747,-3.7805,-3.7974,-3.7974,-3.7974,-3.8046,-3.8479,-3.9489,-4.0547,-4.1172,-4.1172,-4.1172,-4.1172,-4.1172,-4.1677,-4.2265,-4.2795,-4.3241,-4.377,-4.4261,-4.4285,-4.4285,-4.4285,-4.4285,-4.4285,-4.4285,-4.4285,-4.4285,-4.4285,-4.4285,-4.4285,-4.4285,-4.4285,-4.4285,-4.4285,-4.4285,-4.4285,-4.4285,-4.4285,-4.4285,-4.4285,-4.4285,-4.4309,-4.4405,0.0,0.0,0.0,0.0,0.0,0.0,0.0,0.0,0.0,0.0,-3.6405,-3.6405,-3.6405,-3.6405,-3.6405,0.0,0.0,0.0,0.0,0.0,0.0,0.0,0.0,0.0,-3.5508,-3.5232,-3.4906,-3.4525,-3.3972,-3.3696,-3.3696,-3.3269,-3.3164,-3.3281,-3.335,-3.3576,-3.3862,-3.451,-3.4775,-3.4775,-3.4775,-3.4775,0.0,0.0,0.0,0.0,-3.4775,-3.4775,0.0,0.0,0.0,0.0,0.0,0.0,0.0,0.0,-3.4775,-3.4775,-3.4775,0.0,-3.4775,-3.4775,-3.4775,-3.4775,0.0,-3.4775,-3.4775,-3.4775,-3.4775,-3.516,-3.6218,-3.6411,-3.6747,-3.7805,-3.7974,-3.7974,-3.7974,-3.8695,-3.932,-3.9585,-4.0547,-4.1172,-4.1172,-4.1172,-4.1172,-4.1172,-4.1677,-4.2265,-4.2795,-4.3241,-4.377,-4.4261,-4.4285,-4.4285,-4.4285,-4.4285,-4.4285,-4.4285,-4.4285,-4.4285,-4.4285,-4.4285,-4.4285,-4.4285,-4.4285,-4.4285,-4.4285,-4.4285,-4.4285,-4.4285,-4.4285,-4.4285,-4.4285,-4.4285,-4.4549,-4.4909,0.0,0.0,0.0,0.0,0.0,0.0,0.0,0.0,0.0,0.0,0.0,-3.6405,-3.6405,-3.6405,0.0,0.0,0.0,0.0,0.0,0.0,0.0,0.0,0.0,-3.6279,-3.5931,-3.5633,-3.5357,-3.5056,-3.455,-3.4274,-3.4274,-3.3972,-3.3865,-3.3896,-3.378,-3.3827,-3.403,-3.4558,-3.4775,-3.4775,-3.4775,0.0,0.0,0.0,0.0,0.0,-3.4775,-3.4775,0.0,-3.4775,-3.4775,-3.4775,0.0,0.0,0.0,0.0,-3.4775,-3.4775,-3.4775,-3.4775,-3.4775,-3.4775,-3.4775,-3.4775,-3.4775,-3.4775,-3.4775,-3.4775,-3.4775,-3.516,-3.6218,-3.6411,-3.6747,-3.7805,-3.7974,-3.7974,-3.7974,-3.8912,-3.9609,-3.9609,-4.0547,-4.1172,-4.1172,-4.1172,-4.1172,-4.1172,-4.1461,-4.1904,-4.2375,-4.288,-4.3409,-4.3938,-4.4141,-4.4285,-4.4285,-4.4285,-4.4285,-4.4285,-4.4285,-4.4285,-4.4285,-4.4285,-4.4285,-4.4285,-4.4285,-4.4285,-4.4285,-4.4285,-4.4285,-4.4285,-4.4285,-4.4285,-4.4309,-4.4573,-4.4837,-4.5149,0.0,0.0,0.0,0.0,0.0,0.0,0.0,0.0,0.0,0.0,0.0,0.0,0.0,0.0,0.0,0.0,0.0,0.0,0.0,0.0,0.0,0.0,0.0,-3.6405,-3.6405,-3.5906,-3.5633,-3.5633,-3.5082,-3.4806,-3.4806,-3.4731,-3.4595,-3.4491,-3.4546,-3.4412,-3.415,-3.4583,-3.4775,-3.4775,-3.4775,0.0,0.0,0.0,0.0,0.0,0.0,0.0,0.0,-3.4775,-3.4775,-3.4775,-3.4775,0.0,0.0,0.0,0.0,0.0,-3.4775,-3.4775,-3.4775,-3.4775,-3.4775,-3.4775,-3.4775,-3.4775,-3.4775,-3.4775,-3.4895,-3.5256,-3.6218,-3.6459,-3.6843,-3.7829,-3.7974,-3.7974,-3.7974,-3.8912,-3.9609,-3.9609,-4.0547,-4.1172,-4.1172,-4.1172,-4.1172,-4.1172,-4.1172,-4.1413,-4.1942,-4.253,-4.3,-4.3505,-4.3997,-4.4285,-4.4285,-4.4285,-4.4285,-4.4285,-4.4285,-4.4285,-4.4285,-4.4285,-4.4285,-4.4285,-4.4285,0.0,-4.4285,-4.4285,-4.4285,-4.4285,-4.4285,-4.4333,-4.4453,-4.4909,-4.5173,-4.5525,0.0,0.0,0.0,0.0,0.0,0.0,0.0,0.0,0.0,0.0,0.0,0.0,0.0,0.0,0.0,0.0,0.0,0.0,0.0,0.0,0.0,-3.6405,-3.6405,-3.6405,-3.6405,-3.6329,-3.6279,-3.6279,-3.568,-3.5382,-3.5357,-3.4906,-3.4703,-3.4758,-3.5204,-3.5162,-3.4655,-3.4751,-3.4775,-3.4775,-3.4775,0.0,0.0,0.0,0.0,0.0,0.0,0.0,0.0,-3.4775,-3.4775,-3.4775,-3.4775,0.0,0.0,0.0,0.0,0.0,-3.4775,-3.4775,-3.4775,-3.4775,-3.4775,-3.4775,-3.4775,-3.4775,-3.4775,-3.4775,-3.5184,-3.5689,-3.629,-3.6771,-3.7276,-3.7878,-3.7974,-3.7974,-3.7974,-3.8912,-3.9609,-3.9609,-4.0547,-4.1172,-4.1172,-4.1172,-4.1172,-4.1172,-4.1172,-4.1413,-4.1942,-4.253,-4.3,-4.3505,-4.3997,-4.4285,-4.4285,-4.4285,-4.4285,-4.4285,-4.4285,-4.4285,-4.4285,-4.4285,-4.4285,-4.4285,0.0,-4.4285,-4.4285,-4.4285,-4.4285,-4.4285,-4.4285,-4.4573,-4.4957,-4.5053,-4.5694,-4.6559,0.0,0.0,0.0,0.0,0.0,0.0,0.0,0.0,0.0,0.0,0.0,0.0,0.0,0.0,0.0,0.0,0.0,0.0,0.0,0.0,0.0,-3.6405,-3.6405,-3.6405,-3.6405,-3.6405,-3.6405,-3.6405,-3.6107,-3.5981,-3.5981,-3.573,-3.5301,-3.4834,-3.5375,-3.5161,-3.4366,-3.4655,-3.4775,-3.4775,0.0,0.0,0.0,0.0,0.0,0.0,0.0,0.0,0.0,0.0,-3.4775,-3.4775,-3.4775,0.0,0.0,0.0,0.0,0.0,-3.4775,-3.4775,-3.4775,-3.4775,-3.4775,-3.4775,-3.4775,-3.4775,-3.4775,-3.4775,-3.5256,-3.5785,-3.6314,-3.6843,-3.7372,-3.7902,-3.7974,-3.7974,-3.7974,-3.8912,-3.9609,-3.9609,-4.0547,-4.1172,-4.1172,-4.1172,-4.1172,-4.1172,-4.1172,-4.1293,-4.1533,-4.2062,-4.2567,-4.3096,-4.3625,-4.3973,-4.4285,-4.4285,-4.4285,-4.4285,-4.4285,-4.4285,-4.4285,-4.4285,-4.4285,-4.4285,0.0,-4.4285,-4.4285,-4.4285,-4.4285,-4.4309,-4.4597,-4.4861,-4.5149,-4.5766,-4.6487,-4.7161,0.0,0.0,0.0,0.0,0.0,0.0,0.0,0.0,0.0,0.0,0.0,0.0,0.0,0.0,0.0,0.0,0.0,0.0,0.0,0.0,-3.6405,-3.6405,-3.6405,-3.6405,-3.6405,-3.6405,-3.6405,-3.6405,-3.6405,-3.6405,-3.6405,-3.6405,-3.5896,-3.503,-3.5424,-3.5088,-3.4198,-3.4607,-3.4775,-3.4775,0.0,0.0,0.0,0.0,0.0,0.0,0.0,0.0,0.0,0.0,0.0,0.0,0.0,0.0,0.0,-3.4775,-3.4775,-3.4775,-3.4775,-3.4775,-3.4775,-3.4775,-3.4775,-3.4775,-3.4775,-3.4775,-3.4871,-3.4943,-3.5425,-3.5954,-3.6483,-3.7012,-3.7517,-3.7926,-3.7974,-3.7974,-3.7974,-3.8912,-3.9609,-3.9609,-4.0547,-4.1172,-4.1172,-4.1172,-4.1172,-4.1172,-4.1172,-4.1172,-4.1172,-4.1677,-4.2265,-4.2795,-4.3241,-4.377,-4.4285,-4.4285,-4.4285,-4.4285,-4.4285,-4.4285,-4.4285,-4.4285,-4.4285,-4.4285,-4.4285,-4.4285,-4.4285,-4.4285,-4.4285,-4.4333,-4.4861,-4.5221,-4.5621,-4.6559,-4.7161,-4.7497,0.0,0.0,0.0,0.0,0.0,0.0,0.0,0.0,0.0,0.0,0.0,0.0,0.0,0.0,0.0,0.0,0.0,0.0,0.0,0.0,-3.6405,-3.6405,-3.6405,-3.6405,-3.6405,-3.6405,-3.6405,-3.6405,-3.6405,-3.6405,-3.6405,-3.6405,-3.6096,-3.5571,-3.5596,-3.5307,-3.4727,-3.4751,-3.4775,-3.4775,-3.4775,0.0,0.0,0.0,0.0,0.0,0.0,0.0,0.0,0.0,0.0,0.0,0.0,0.0,-3.4775,-3.4775,-3.4775,-3.4775,-3.4775,-3.4775,-3.4775,-3.4775,-3.4775,-3.4775,-3.4775,-3.4775,-3.4919,-3.5449,-3.5978,-3.6507,-3.7036,-3.7565,-3.7926,-3.7974,-3.7974,-3.7974,-3.7974,-3.8912,-3.9609,-3.9609,-4.0547,-4.1172,-4.1172,-4.1172,-4.1172,-4.1172,-4.1172,-4.1172,-4.1172,-4.1677,-4.2265,-4.2795,-4.3241,-4.377,-4.4285,-4.4285,-4.4285,-4.4285,-4.4285,-4.4285,-4.4285,-4.4285,-4.4285,-4.4285,-4.4285,-4.4285,-4.4285,-4.4285,-4.4285,-4.4333,-4.4861,-4.5742,-4.6655,-4.7233,-4.7473,-4.7497,0.0,0.0,0.0,0.0,0.0,0.0,0.0,0.0,0.0,0.0,0.0,0.0,0.0,0.0,0.0,0.0,0.0,0.0,0.0,-3.6405,-3.6405,-3.6405,-3.6405,-3.6405,-3.6405,-3.6405,-3.6405,-3.6405,-3.6405,-3.6405,-3.6405,-3.6405,-3.6121,-3.562,-3.562,-3.5307,-3.4775,-3.4775,-3.4775,-3.4775,-3.4775,-3.4775,0.0,0.0,0.0,0.0,0.0,0.0,0.0,0.0,-3.4775,-3.4775,-3.4775,-3.4775,-3.4775,-3.4775,-3.4775,-3.4775,-3.4775,-3.4775,-3.4775,-3.4775,-3.4775,-3.4775,-3.4775,-3.4775,-3.4919,-3.5497,-3.6026,-3.6675,-3.7517,-3.7853,-3.7974,-3.7974,-3.7974,-3.7974,-3.7974,-3.8912,-3.9609,-3.9609,-4.0547,-4.1172,-4.1172,-4.1172,-4.1172,-4.1172,-4.1172,-4.1172,-4.1172,-4.1365,-4.187,-4.2795,-4.2952,-4.3457,-4.4285,-4.4285,-4.4285,-4.4285,-4.4285,-4.4285,-4.4285,-4.4285,-4.4285,-4.4285,-4.4285,-4.4285,-4.4285,-4.4285,-4.4477,-4.4861,-4.579,-4.6559,-4.7233,-4.7425,-4.7497,-4.7497,0.0,0.0,0.0,0.0,0.0,0.0,0.0,0.0,0.0,0.0,0.0,0.0,0.0,0.0,0.0,0.0,0.0,0.0,-3.6405,-3.6405,-3.6405,-3.6405,-3.6405,-3.6405,-3.6405,-3.6405,-3.6405,-3.6405,-3.6405,-3.6405,-3.6405,-3.6405,-3.6121,-3.562,-3.562,-3.5307,-3.4775,-3.4775,-3.4775,-3.4775,-3.4775,-3.4775,0.0,0.0,0.0,0.0,0.0,0.0,0.0,0.0,-3.4775,-3.4775,-3.4775,-3.4775,-3.4775,-3.4775,-3.4775,-3.4775,-3.4775,-3.4775,-3.4775,-3.4677,-3.4726,-3.4775,-3.4677,-3.487,-3.5183,-3.5761,-3.6411,-3.7132,-3.7853,-3.7974,-3.7974,-3.7974,-3.7974,-3.7974,-3.7974,-3.8912,-3.9609,-3.9609,-4.0547,-4.1172,-4.1172,-4.1172,-4.1172,-4.1172,-4.1172,-4.1172,-4.1172,-4.1172,-4.1677,-4.2795,-4.2819,-4.3265,-4.4285,-4.4285,-4.4285,-4.4285,-4.4285,-4.4285,-4.4285,-4.4285,-4.4285,-4.4285,-4.4285,-4.4285,-4.4285,-4.4285,-4.4693,-4.5414,-4.6367,-4.704,-4.7497,-4.7497,-4.7497,-4.7497,0.0,0.0,0.0,0.0,0.0,0.0,0.0,0.0,0.0,0.0,0.0,0.0,0.0,0.0,0.0,0.0,0.0,0.0,-3.6405,-3.6405,-3.6405,-3.6405,-3.6405,-3.6405,-3.6405,-3.6405,-3.6405,-3.6405,-3.6405,-3.6405,-3.6405,-3.6405,-3.6121,-3.562,-3.562,-3.5307,-3.4775,-3.4775,-3.4775,-3.4775,-3.4775,-3.4775,-3.4775,0.0,0.0,0.0,0.0,0.0,0.0,0.0,-3.4775,-3.4775,-3.4775,-3.4775,-3.4775,-3.4775,-3.4775,-3.4775,-3.4775,-3.4775,-3.4726,-3.4482,-3.458,-3.4726,-3.4482,-3.5035,-3.5761,-3.6314,-3.7252,-3.7974,-3.7974,-3.7974,-3.7974,-3.7974,-3.7974,-3.7974,-3.7974,-3.8912,-3.9609,-3.9609,-4.0547,-4.1172,-4.1172,-4.1172,-4.1172,-4.1172,-4.1172,-4.1172,-4.1172,-4.1172,-4.1677,-4.2795,-4.2819,-4.3265,-4.4285,-4.4285,-4.4285,-4.4285,-4.4285,-4.4285,-4.4285,-4.4285,-4.4285,-4.4285,-4.4285,-4.4285,-4.4285,-4.4285,-4.4909,-4.5982,-4.6511,-4.704,-4.7497,-4.7497,-4.7497,-4.7497,0.0,0.0,0.0,0.0,0.0,0.0,0.0,0.0,0.0,0.0,0.0,0.0,0.0,0.0,0.0,0.0,0.0,0.0,-3.6405,-3.6405,-3.6405,-3.6405,-3.6405,-3.6405,-3.6405,-3.6405,-3.6405,-3.6405,-3.6405,-3.6405,-3.6405,-3.6405,-3.6121,-3.562,-3.562,-3.5307,-3.4775,-3.4775,-3.4775,-3.4775,-3.4775,-3.4775,-3.4775,0.0,0.0,0.0,0.0,0.0,0.0,0.0,0.0,0.0,-3.4775,-3.4775,-3.4775,-3.4775,-3.4775,-3.4775,-3.458,-3.4531,-3.4482,-3.4261,-3.4359,-3.4482,-3.4433,-3.5035,-3.5881,-3.6771,-3.7493,-3.7974,-3.7974,-3.7974,-3.7974,-3.7974,-3.7974,-3.7974,-3.7974,-3.8599,-3.92,-3.9561,-4.021,-4.0787,-4.1148,-4.1172,-4.1172,-4.1172,-4.1172,-4.1172,-4.1172,-4.1172,-4.1677,-4.2795,-4.2819,-4.3265,-4.4285,-4.4285,-4.4285,-4.4285,-4.4285,-4.4285,-4.4285,-4.4285,-4.4285,-4.4285,-4.4285,-4.4285,-4.4333,-4.5077,-4.5862,-4.6535,-4.7064,-4.7353,-4.7497,-4.7497,-4.7497,-4.7497,0.0,0.0,0.0,0.0,0.0,0.0,0.0,0.0,0.0,0.0,0.0,0.0,0.0,0.0,0.0,0.0,0.0,0.0,0.0,-3.6405,-3.6405,-3.6405,-3.6405,-3.6405,-3.6405,-3.631,-3.6241,-3.6241,-3.6358,-3.6405,-3.6405,-3.6263,-3.6003,-3.562,-3.5476,-3.5235,-3.4775,-3.4775,-3.4775,-3.4775,-3.4775,-3.4775,-3.4775,0.0,0.0,0.0,0.0,0.0,0.0,0.0,0.0,0.0,-3.4775,-3.4775,-3.4775,-3.4775,-3.4775,-3.4775,-3.458,-3.4482,-3.4335,-3.4162,-3.4211,-3.4404,-3.4807,-3.5389,-3.6218,-3.73,-3.7757,-3.7974,-3.7974,-3.7974,-3.7974,-3.7974,-3.7974,-3.7974,-3.7974,-3.8455,-3.9008,-3.9537,-4.0066,-4.0595,-4.1124,-4.1172,-4.1172,-4.1172,-4.1172,-4.1172,-4.1172,-4.1172,-4.1677,-4.2795,-4.2819,-4.3265,-4.4285,-4.4285,-4.4285,-4.4285,-4.4285,-4.4285,-4.4285,-4.4285,-4.4285,-4.4285,-4.4285,-4.4405,-4.4669,-4.5573,-4.6247,-4.6776,-4.7305,-4.7497,-4.7497,-4.7497,-4.7497,-4.7497,0.0,0.0,0.0,0.0,0.0,0.0,0.0,0.0,0.0,0.0,0.0,0.0,0.0,0.0,0.0,0.0,0.0,0.0,0.0,0.0,-3.6455,-3.6405,-3.6358,-3.6358,-3.6358,-3.6098,-3.5955,-3.5955,-3.6241,-3.6358,-3.6358,-3.6098,-3.586,-3.562,-3.538,-3.5114,-3.4872,-3.4823,-3.4823,-3.4823,-3.4823,-3.4775,-3.4775,-3.4775,0.0,0.0,0.0,0.0,0.0,0.0,0.0,0.0,-3.4775,-3.4775,-3.4775,-3.4775,-3.4775,-3.4775,-3.4775,-3.458,-3.4335,-3.4113,-3.4064,-3.4346,-3.5357,-3.6002,-3.6648,-3.7705,-3.7974,-3.7974,-3.7974,-3.7974,-3.7974,-3.7974,-3.7974,-3.7974,-3.7974,-3.8431,-3.896,-3.9537,-4.0042,-4.0547,-4.1124,-4.1172,-4.1172,-4.1172,-4.1172,-4.1172,-4.1172,-4.1172,-4.1677,-4.2795,-4.2819,-4.3265,-4.4285,-4.4285,-4.4285,-4.4285,-4.4285,-4.4285,-4.4285,-4.4285,-4.4285,-4.4285,-4.4333,-4.4669,-4.5173,-4.5766,-4.6319,-4.6824,-4.7305,-4.7497,-4.7497,-4.7497,-4.7497,-4.7497,0.0,0.0,0.0,0.0,0.0,0.0,0.0,0.0,0.0,0.0,0.0,0.0,0.0,0.0,0.0,0.0,0.0,0.0,0.0,0.0,-3.6857,-3.643,-3.6193,-3.6098,-3.6098,-3.5812,-3.5668,-3.5668,-3.5764,-3.586,-3.6098,-3.6003,-3.5955,-3.5908,-3.586,-3.5668,-3.5428,-3.5235,-3.5114,-3.509,-3.4872,-3.4775,-3.4775,-3.4775,0.0,0.0,0.0,0.0,0.0,0.0,0.0,0.0,-3.4775,-3.4775,-3.4775,-3.4775,-3.4775,-3.4726,-3.4531,-3.4359,-3.4113,-3.384,-3.379,-3.4097,-3.5305,-3.5825,-3.6391,-3.7464,-3.7838,-3.7974,-3.7974,-3.7974,-3.7974,-3.7974,-3.7974,-3.7974,-3.7974,-3.8094,-3.8527,-3.9489,-3.9705,-4.0138,-4.11,-4.1172,-4.1172,-4.1172,-4.1172,-4.1172,-4.1172,-4.1172,-4.1677,-4.2795,-4.2819,-4.3265,-4.4285,-4.4285,-4.4285,-4.4285,-4.4285,-4.4285,-4.4285,-4.4285,-4.4285,-4.4309,-4.4717,-4.5197,-4.579,-4.6319,-4.6848,-4.7353,-4.7449,-4.7497,-4.7497,-4.7497,-4.7497,-4.7497,0.0,0.0,0.0,0.0,0.0,0.0,0.0,0.0,0.0,0.0,0.0,0.0,0.0,0.0,0.0,0.0,0.0,0.0,0.0,0.0,-3.7414,-3.6992,-3.6573,-3.6327,-3.6207,-3.5791,-3.562,-3.562,-3.562,-3.5716,-3.6003,-3.586,-3.5812,-3.5812,-3.5524,-3.538,-3.5211,-3.5066,-3.5017,-3.4969,-3.4872,-3.4775,-3.4775,-3.4775,0.0,0.0,0.0,0.0,0.0,0.0,0.0,0.0,0.0,0.0,-3.4775,-3.4775,-3.4775,-3.4775,-3.4628,-3.4359,-3.4038,-3.379,-3.379,-3.4146,-3.5175,-3.5797,-3.6391,-3.7198,-3.7732,-3.7974,-3.7974,-3.7974,-3.7974,-3.7974,-3.7974,-3.7974,-3.7974,-3.7974,-3.8286,-3.9128,-3.9441,-3.9922,-4.0739,-4.1028,-4.1172,-4.1172,-4.1172,-4.1172,-4.1172,-4.1172,-4.1677,-4.2795,-4.2819,-4.3265,-4.4285,-4.4285,-4.4285,-4.4285,-4.4285,-4.4285,-4.4285,-4.4285,-4.4285,-4.4309,-4.4837,-4.5366,-4.5958,-4.6487,-4.7016,-4.7497,-4.7497,-4.7497,-4.7497,-4.7497,-4.7497,-4.7497,0.0,0.0,0.0,0.0,0.0,0.0,0.0,0.0,0.0,0.0,0.0,0.0,0.0,0.0,0.0,0.0,0.0,0.0,0.0,0.0,0.0,-3.7593,-3.7171,-3.6824,-3.6555,-3.6063,-3.5745,-3.572,-3.5647,-3.5767,-3.586,-3.5716,-3.562,-3.5572,-3.5163,-3.4969,-3.492,-3.4872,-3.4872,-3.4872,-3.4823,-3.4775,-3.4775,-3.4775,-3.4775,-3.4775,-3.4775,0.0,-3.4775,-3.4775,0.0,0.0,0.0,0.0,-3.4775,-3.4775,-3.4775,-3.4775,-3.4775,-3.4506,-3.4064,-3.3817,-3.3915,-3.4296,-3.5072,-3.5797,-3.6494,-3.7092,-3.7601,-3.7974,-3.7974,-3.7974,-3.7974,-3.7974,-3.7974,-3.7974,-3.7974,-3.7974,-3.819,-3.8743,-3.9272,-3.9801,-4.0331,-4.0884,-4.1172,-4.1172,-4.1172,-4.1172,-4.1172,-4.1172,-4.1677,-4.2795,-4.2819,-4.3265,-4.4285,-4.4285,-4.4285,-4.4285,-4.4285,-4.4285,-4.4285,-4.4285,-4.4333,-4.4453,-4.4981,-4.5573,-4.6102,-4.6631,-4.7112,-4.7497,-4.7497,-4.7497,-4.7497,-4.7497,-4.7497,-4.7497,0.0,0.0,0.0,0.0,0.0,0.0,0.0,0.0,0.0,0.0,-3.6626,0.0,0.0,0.0,0.0,0.0,0.0,0.0,0.0,0.0,0.0,-3.7593,-3.7543,-3.7345,-3.712,-3.6796,-3.6452,-3.6039,-3.599,-3.5722,-3.5332,-3.5764,-3.5812,-3.562,-3.5764,-3.5716,-3.5476,-3.5235,-3.5138,-3.5138,-3.4872,-3.4775,-3.4775,-3.4775,-3.4775,-3.4775,-3.4775,-3.4775,-3.4775,-3.4775,-3.4775,0.0,0.0,0.0,-3.4775,-3.4775,-3.4775,-3.4775,-3.4775,-3.458,-3.4286,-3.4113,-3.4064,-3.4346,-3.5305,-3.5797,-3.6339,-3.7329,-3.7785,-3.7974,-3.7974,-3.7974,-3.7974,-3.7974,-3.7974,-3.7974,-3.7974,-3.7974,-3.819,-3.8743,-3.9272,-3.9801,-4.0331,-4.0884,-4.1172,-4.1172,-4.1172,-4.1172,-4.1172,-4.1172,-4.1677,-4.2795,-4.2819,-4.3265,-4.4285,-4.4285,-4.4285,-4.4285,-4.4285,-4.4285,-4.4285,-4.4285,-4.4525,-4.5005,-4.5534,-4.6126,-4.6655,-4.7185,-4.7449,-4.7497,-4.7497,-4.7497,-4.7497,-4.7497,-4.7497,-4.7497,0.0,0.0,0.0,0.0,0.0,0.0,0.0,0.0,0.0,0.0,0.0,-3.8372,0.0,0.0,0.0,0.0,0.0,0.0,0.0,0.0,0.0,-3.8537,-3.8112,-3.7736,-3.7431,-3.7012,-3.6719,-3.6475,-3.6625,-3.6453,-3.6111,-3.6628,-3.6357,-3.538,-3.5524,-3.5428,-3.5163,-3.5187,-3.5114,-3.4969,-3.4823,-3.4775,-3.4775,-3.4775,-3.4775,-3.4775,-3.4775,-3.4775,-3.4775,-3.4775,-3.4775,-3.4775,-3.4775,0.0,0.0,0.0,-3.4775,-3.4775,-3.4628,-3.4482,-3.4384,-3.431,-3.4261,-3.4521,-3.5612,-3.6054,-3.6494,-3.7435,-3.7785,-3.7974,-3.7974,-3.7974,-3.7974,-3.7974,-3.7974,-3.7974,-3.7974,-3.7974,-3.807,-3.831,-3.9104,-3.9705,-3.9922,-4.0691,-4.1172,-4.1172,-4.1172,-4.1172,-4.1172,-4.1172,-4.1677,-4.2795,-4.2819,-4.3265,-4.4285,-4.4285,-4.4285,-4.4285,-4.4285,-4.4285,-4.4285,-4.4285,-4.4573,-4.5101,-4.5694,-4.6223,-4.6752,-4.7281,-4.7497,-4.7497,-4.7497,-4.7497,-4.7497,-4.7497,-4.7497,-4.7497,0.0,0.0,0.0,0.0,0.0,0.0,0.0,0.0,0.0,0.0,0.0,0.0,0.0,0.0,0.0,0.0,0.0,0.0,0.0,0.0,0.0,-3.8267,-3.8344,-3.8096,-3.7372,-3.727,-3.7156,-3.701,-3.7136,-3.7012,-3.6715,-3.7118,-3.6651,-3.5526,-3.5478,-3.5381,-3.5113,-3.509,-3.5017,-3.4872,-3.4823,-3.4775,-3.4775,-3.4775,-3.4775,-3.4775,-3.4775,-3.4775,-3.4775,-3.4775,-3.4775,-3.4775,-3.4775,-3.4775,0.0,0.0,0.0,-3.4775,-3.458,-3.4482,-3.4482,-3.4482,-3.4482,-3.4769,-3.5675,-3.6162,-3.6624,-3.735,-3.7743,-3.7974,-3.7974,-3.7974,-3.7974,-3.7974,-3.7974,-3.7974,-3.7974,-3.7974,-3.7974,-3.7974,-3.8936,-3.9609,-3.9609,-4.0571,-4.1172,-4.1172,-4.1172,-4.1172,-4.1172,-4.1317,-4.1798,-4.2795,-4.294,-4.3409,-4.4285,-4.4285,-4.4285,-4.4285,-4.4285,-4.4285,-4.4285,-4.4429,-4.4765,-4.5357,-4.5742,-4.6295,-4.6944,-4.7329,-4.7497,-4.7497,-4.7497,-4.7497,-4.7497,-4.7497,-4.7497,-4.7497,0.0,0.0,0.0,0.0,0.0,0.0,0.0,0.0,0.0,0.0,0.0,0.0,0.0,-3.9025,-3.9697,-3.9697,0.0,0.0,0.0,0.0,0.0,-3.5617,-3.7902,0.0,-3.668,-3.7719,-3.808,-3.757,-3.7311,-3.6943,-3.6411,-3.6461,-3.6437,-3.6365,-3.6357,-3.6186,-3.5891,-3.5137,-3.4969,-3.5163,-3.4872,-3.4775,-3.4775,-3.4775,-3.4775,-3.4775,-3.4775,-3.4775,-3.4775,-3.4775,-3.4775,-3.4775,-3.4775,-3.4775,-3.4775,0.0,0.0,0.0,-3.4775,-3.4775,-3.4775,-3.4775,-3.4775,-3.4919,-3.5471,-3.605,-3.6555,-3.7132,-3.7637,-3.7974,-3.7974,-3.7974,-3.7974,-3.7974,-3.7974,-3.7974,-3.7974,-3.7974,-3.7974,-3.7974,-3.8936,-3.9609,-3.9609,-4.0571,-4.1172,-4.1172,-4.1172,-4.1172,-4.1172,-4.1653,-4.2241,-4.2795,-4.3216,-4.3746,-4.4285,-4.4285,-4.4285,-4.4285,-4.4285,-4.4285,-4.4309,-4.4813,-4.5381,-4.5886,-4.591,-4.6511,-4.7473,-4.7497,-4.7497,-4.7497,-4.7497,-4.7497,-4.7497,-4.7497,-4.7497,-4.7497,0.0,0.0,0.0,0.0,0.0,0.0,0.0,0.0,0.0,0.0,0.0,0.0,0.0,-3.718,-3.7713,-3.8502,-3.8161,0.0,0.0,0.0,0.0,-3.7554,-3.8291,-3.8396,-3.7791,-3.8027,-3.8036,-3.7867,-3.7762,-3.7613,-3.7421,-3.7577,-3.7577,-3.7372,-3.6887,-3.6574,-3.65,-3.6014,-3.5795,-3.5722,-3.526,-3.4969,-3.4775,-3.4775,-3.4775,-3.4775,-3.4775,-3.4775,-3.4677,-3.4017,-3.4213,-3.4677,-3.3967,-3.4262,-3.4775,-3.4775,-3.4775,-3.4775,-3.4775,-3.4775,-3.4775,-3.4775,-3.4775,-3.4919,-3.5497,-3.6026,-3.6555,-3.7084,-3.7613,-3.7974,-3.7974,-3.7974,-3.7974,-3.7974,-3.7974,-3.7974,-3.7974,-3.7974,-3.7974,-3.7974,-3.8936,-3.9609,-3.9609,-4.0571,-4.1172,-4.1172,-4.1172,-4.1172,-4.1172,-4.1365,-4.187,-4.2795,-4.2928,-4.3457,-4.4285,-4.4285,-4.4285,-4.4285,-4.4285,-4.4285,-4.4309,-4.4837,-4.5366,-4.5934,-4.6271,-4.6848,-4.7497,-4.7497,-4.7497,-4.7497,-4.7497,-4.7497,-4.7497,-4.7497,-4.7497,-4.7497,0.0,0.0,0.0,0.0,0.0,0.0,0.0,0.0,0.0,0.0,0.0,0.0,0.0,0.0,-3.6077,-3.6379,-3.678,-3.6804,-3.6208,-3.6911,-3.7418,-3.7471,-3.808,-3.8185,-3.7655,-3.77,-3.7805,-3.7974,-3.7805,-3.7805,-3.7974,-3.8185,-3.8185,-3.795,-3.746,-3.7151,-3.7059,-3.6674,-3.6454,-3.6281,-3.5793,-3.5404,-3.5039,-3.5039,-3.4943,-3.4775,-3.4775,-3.4775,-3.4677,-3.3967,-3.4213,-3.4677,-3.3967,-3.4213,-3.4775,-3.4775,-3.4775,-3.4775,-3.4775,-3.4775,-3.4775,-3.4775,-3.4775,-3.4871,-3.528,-3.5905,-3.6507,-3.6867,-3.7493,-3.7974,-3.7974,-3.7974,-3.7974,-3.7974,-3.7974,-3.7974,-3.7974,-3.7974,-3.7974,-3.7974,-3.8791,-3.9417,-3.9585,-4.0403,-4.1004,-4.1172,-4.1172,-4.1172,-4.1172,-4.1341,-4.1918,-4.2976,-4.3192,-4.3625,-4.4285,-4.4285,-4.4285,-4.4285,-4.4285,-4.4285,-4.4309,-4.5005,-4.5534,-4.5958,-4.668,-4.7185,-4.7497,-4.7497,-4.7497,-4.7497,-4.7497,-4.7497,-4.7497,-4.7497,-4.7497,-4.7497,0.0,0.0,0.0,0.0,0.0,0.0,0.0,0.0,0.0,-3.1787,0.0,0.0,0.0,0.0,0.0,-3.362,-3.4626,-3.4814,-3.3685,-3.5827,-3.6426,-3.5024,0.0,0.0,-3.6286,-3.6891,-3.7469,-3.7974,-3.7469,-3.7469,-3.7974,-3.7974,-3.7974,-3.7974,-3.8027,-3.7843,-3.7594,-3.7059,-3.684,-3.679,-3.6512,-3.6098,-3.5641,-3.5641,-3.5328,-3.4823,-3.4799,-3.4799,-3.4799,-3.4775,-3.4775,-3.4775,-3.4775,-3.4775,-3.4775,-3.4775,-3.4775,-3.4775,0.0,0.0,0.0,-3.4775,-3.4775,-3.4775,-3.4775,-3.5641,-3.6411,-3.6411,-3.7252,-3.7974,-3.7974,-3.7974,-3.7974,-3.7974,-3.7974,-3.7974,-3.7974,-3.7974,-3.7974,-3.7974,-3.8479,-3.9032,-3.9561,-4.009,-4.0619,-4.1148,-4.1172,-4.1172,-4.1172,-4.1701,-4.2447,-4.3457,-4.3997,-4.4285,-4.4285,-4.4285,-4.4285,-4.4285,-4.4285,-4.4285,-4.4333,-4.539,-4.5934,-4.5982,-4.704,-4.7497,-4.7497,-4.7497,-4.7497,-4.7497,-4.7497,-4.7497,-4.7497,-4.7497,-4.7497,-4.7497,0.0,0.0,0.0,0.0,0.0,0.0,0.0,0.0,-3.1556,0.0,0.0,0.0,-3.2264,-3.3304,-3.3845,-3.3508,-3.4626,-3.5068,-3.4592,-3.5913,-3.648,-3.585,-3.7334,-3.7921,-3.7495,-3.7671,-3.7829,-3.7974,-3.7829,-3.7829,-3.7974,-3.7974,-3.7974,-3.8027,-3.8185,-3.8113,-3.7891,-3.7515,-3.7399,-3.7351,-3.6885,-3.6466,-3.6194,-3.6194,-3.6098,-3.593,-3.5545,-3.54,-3.518,-3.4035,-3.4164,-3.4775,-3.4775,-3.4775,-3.4775,-3.4775,-3.4775,-3.4775,-3.4775,0.0,0.0,0.0,0.0,0.0,-3.4775,-3.5641,-3.6411,-3.6411,-3.7252,-3.7974,-3.7974,-3.7974,-3.7974,-3.7974,-3.7974,-3.7974,-3.7974,-3.7974,-3.7974,-3.7974,-3.8479,-3.9032,-3.9561,-4.009,-4.0619,0.0,-4.1172,-4.1172,-4.1172,-4.2062,-4.2723,-4.2952,-4.3866,-4.4285,-4.4285,-4.4285,-4.4285,-4.4285,-4.4285,-4.4285,-4.4333,-4.539,-4.5934,-4.5982,-4.704,-4.7497,-4.7497,-4.7497,-4.7497,-4.7497,-4.7497,-4.7497,-4.7497,-4.7497,-4.7497,-4.7497,0.0,0.0,0.0,0.0,0.0,0.0,-3.1344,-3.1286,-3.1228,0.0,0.0,0.0,-3.1402,-3.2055,-3.2416,-3.2416,-3.3042,-3.3586,-3.3944,-3.4592,-3.5113,-3.5466,-3.6611,-3.7281,-3.7281,-3.7546,-3.7757,-3.7974,-3.7757,-3.7757,-3.7974,-3.7974,-3.7974,-3.8027,-3.8133,-3.8133,-3.8027,-3.7819,-3.7778,-3.7754,-3.7463,-3.7094,-3.6723,-3.6723,-3.6603,-3.6362,-3.605,-3.5954,-3.5781,-3.4869,-3.451,-3.4544,-3.4989,-3.4649,-3.4213,-3.4677,-3.4775,-3.4775,0.0,0.0,-3.4775,-3.4775,0.0,0.0,-3.4775,-3.5641,-3.6411,-3.6411,-3.7252,-3.7974,-3.7974,-3.7974,-3.7974,-3.7974,-3.7974,-3.7974,-3.7974,-3.7974,-3.7974,-3.7974,-3.8262,-3.8767,-3.9537,-3.9874,-4.0379,-4.1124,-4.1172,-4.1172,-4.1172,-4.2241,-4.2819,-4.2819,-4.3794,-4.4285,-4.4285,-4.4285,-4.4285,-4.4285,-4.4285,-4.4405,-4.4645,-4.5486,-4.6054,-4.6295,-4.7136,-4.7497,-4.7497,-4.7497,-4.7497,-4.7497,-4.7497,-4.7497,-4.7497,-4.7497,-4.7497,-4.7497,0.0,0.0,0.0,0.0,0.0,-3.0898,-3.0898,-3.0898,-3.0898,0.0,-3.0898,-3.0898,-3.0898,-3.0898,-3.0898,-3.0898,-3.0898,-3.1344,-3.2399,-3.2628,-3.3119,-3.4168,-3.5521,-3.6177,-3.6177,-3.6938,-3.7517,-3.7974,-3.7517,-3.7517,-3.7974,-3.7974,-3.7974,-3.7974,-3.7974,-3.7974,-3.7974,-3.7974,-3.7974,-3.7974,-3.7974,-3.7685,-3.7276,-3.7276,-3.6988,-3.6579,-3.6507,-3.6483,-3.6483,-3.6435,-3.5466,-3.4458,-3.5389,-3.4707,-3.3711,-3.4479,-3.4822,0.0,0.0,0.0,0.0,-3.4775,-3.4775,0.0,-3.4895,-3.5689,-3.6411,-3.6483,-3.7276,-3.7974,-3.7974,-3.7974,-3.7974,-3.7974,-3.7974,-3.7974,-3.7974,-3.7974,-3.7974,-3.7974,-3.7974,-3.8383,-3.9417,-3.9585,-4.0018,-4.1028,-4.1148,-4.1172,-4.1172,-4.2241,-4.2819,-4.2819,-4.3794,-4.4285,-4.4285,-4.4285,-4.4285,-4.4285,-4.4285,-4.4573,-4.5101,-4.5694,-4.6223,-4.6752,-4.7281,-4.7497,-4.7497,-4.7497,-4.7497,-4.7497,-4.7497,-4.7497,-4.7497,-4.7497,-4.7497,-4.7497,0.0,0.0,0.0,0.0,0.0,0.0,-3.0898,-3.0898,-3.0898,-3.0898,-3.0898,-3.0898,-3.0898,-3.0898,-3.0898,-3.0898,-3.0898,-3.0995,-3.1228,-3.219,-3.2799,-3.3006,-3.508,-3.6177,-3.6177,-3.7293,-3.7878,-3.7974,-3.7878,-3.7878,-3.7974,-3.7974,-3.7974,-3.7974,-3.7974,-3.7974,-3.7974,-3.7974,-3.7974,-3.7974,-3.7974,-3.7926,-3.7829,-3.7829,-3.7757,-3.7613,-3.7204,-3.7036,-3.6964,-3.6555,-3.6186,-3.5989,-3.6192,-3.6018,-3.5548,-3.4443,-3.4802,-3.5155,-3.3863,-3.4115,-3.4775,-3.4775,-3.4775,0.0,-3.5376,-3.5954,-3.6531,-3.694,-3.7541,-3.7974,-3.7974,-3.7974,-3.7974,-3.7974,-3.7974,-3.7974,-3.7974,-3.7974,-3.7974,-3.7974,-3.7974,-3.8238,-3.8912,-3.9369,-3.9874,-4.0499,-4.0956,-4.1172,-4.1172,-4.2241,-4.2819,-4.2819,-4.3794,-4.4285,-4.4285,-4.4285,-4.4285,-4.4285,-4.4285,-4.4573,-4.5101,-4.5694,-4.6223,-4.6752,-4.7281,-4.7497,-4.7497,-4.7497,-4.7497,-4.7497,-4.7497,-4.7497,-4.7497,-4.7497,-4.7497,-4.7497,0.0,-3.0898,-3.0898,0.0,0.0,0.0,0.0,-3.0898,-3.0898,-3.0898,-3.0898,-3.0898,-3.0898,-3.0898,-3.0898,-3.0898,0.0,0.0,0.0,-3.146,-3.2076,-3.2685,-3.4336,-3.5553,-3.6177,-3.7388,-3.7974,-3.7974,-3.7974,-3.7974,-3.7974,-3.7974,-3.7974,-3.7974,-3.7974,-3.7974,-3.7974,-3.7974,-3.7974,-3.7974,-3.7974,-3.7974,-3.7974,-3.7974,-3.7974,-3.795,-3.7685,-3.7589,-3.7541,-3.7276,-3.6625,-3.61,-3.6641,-3.6244,-3.5549,-3.529,-3.5168,-3.5047,-3.4839,-3.4718,-3.4819,-3.5468,-3.5617,0.0,0.0,-3.6411,-3.6867,-3.7132,-3.7613,-3.7974,-3.7974,-3.7974,-3.7974,-3.7974,-3.7974,-3.7974,-3.7974,-3.7974,-3.7974,-3.7974,-3.7974,-3.819,-3.8767,-3.9296,-3.9946,-4.0739,-4.1028,-4.1172,-4.1172,-4.2241,-4.2819,-4.2819,-4.3794,-4.4285,-4.4285,-4.4285,-4.4285,-4.4285,-4.4285,-4.4693,-4.5549,-4.5814,-4.6367,-4.7112,-4.7377,-4.7497,-4.7497,-4.7497,-4.7497,-4.7497,-4.7497,-4.7497,-4.7497,-4.7497,-4.7497,-4.7497,-3.0898,-3.0898,-3.0898,0.0,0.0,0.0,0.0,0.0,-3.0898,-3.0898,-3.0898,-3.0995,-3.1228,-3.1054,-3.0995,-3.1228,-3.0995,0.0,-3.0898,-3.1112,-3.1672,-3.2685,-3.4,-3.5223,-3.6177,-3.7388,-3.7974,-3.7974,-3.7974,-3.7974,-3.7974,-3.7974,-3.7974,-3.7974,-3.7974,-3.7974,-3.7974,-3.7974,-3.7974,-3.7974,-3.7974,-3.7974,-3.7974,-3.7974,-3.7974,-3.7974,-3.7974,-3.7974,-3.7974,-3.7974,-3.7157,-3.6197,-3.7063,-3.6464,-3.5515,-3.6117,-3.5686,-3.5248,-3.59,-3.5545,-3.516,-3.6132,-3.6411,-3.6435,0.0,0.0,0.0,-3.7324,-3.7685,-3.7974,-3.7974,-3.7974,-3.7926,-3.7709,-3.7853,-3.7902,-3.7709,-3.7853,-3.7974,-3.7974,-3.7974,-3.8166,-3.8623,-3.9224,-4.0042,-4.11,-4.1172,-4.1172,-4.1172,-4.2241,-4.2819,-4.2819,-4.3794,-4.4285,-4.4285,-4.4285,-4.4285,-4.4285,-4.4285,-4.4789,-4.5766,-4.5886,-4.6439,-4.7353,-4.7449,-4.7497,-4.7497,-4.7497,-4.7497,-4.7497,-4.7497,-4.7497,-4.7497,-4.7497,-4.7497,-4.7497,-3.0898,-3.0898,-3.0898,-3.0898,0.0,0.0,0.0,0.0,-3.0898,-3.0898,-3.0898,-3.1286,-3.2399,-3.1556,-3.1344,-3.2399,-3.1518,-3.0898,-3.0898,-3.1903,-3.2571,-3.2685,-3.4803,-3.6068,-3.6177,-3.7388,-3.7974,-3.7974,-3.7974,-3.7974,-3.7974,-3.7974,-3.7974,-3.7974,-3.7974,-3.7974,-3.7974,-3.7974,-3.7974,-3.7974,-3.7974,-3.7974,-3.7974,-3.7974,-3.7974,-3.7974,-3.7974,-3.7974,-3.7974,-3.7974,-3.7897,-3.7719,-3.7878,-3.7801,-3.7369,-3.6051,-3.6279,-3.6625,-3.5352,-3.5596,-3.6234,-3.636,-3.6411,-3.6531,-3.6988,0.0,-3.7324,-3.7781,0.0,-3.7974,-3.7974,0.0,0.0,-3.6747,-3.7372,-3.7661,-3.6723,-3.7397,-3.7974,-3.7974,-3.7974,-3.7998,-3.807,-3.9008,-4.0042,-4.11,-4.1172,-4.1172,-4.1172,-4.2241,-4.2819,-4.2819,-4.3794,-4.4285,-4.4285,-4.4285,-4.4285,-4.4285,-4.4285,-4.4597,-4.5237,-4.5718,-4.6247,-4.6824,-4.7305,-4.7497,-4.7497,-4.7497,-4.7497,-4.7497,-4.7497,-4.7497,-4.7497,-4.7497,-4.7497,-4.7497,-3.0898,-3.0898,-3.0898,-3.0898,0.0,0.0,0.0,-3.0898,-3.0898,-3.0898,-3.0898,-3.1112,-3.1614,-3.1845,-3.1845,-3.1672,-3.1845,-3.196,-3.196,-3.1787,-3.2571,-3.4636,-3.4357,-3.5113,-3.7227,-3.7042,-3.7281,-3.7974,-3.7974,-3.7974,-3.7974,-3.7974,-3.7974,-3.7974,-3.7974,-3.7974,-3.7974,-3.7974,-3.7974,-3.7974,-3.7974,-3.7974,-3.7974,-3.7974,-3.7974,-3.7974,-3.7974,-3.7974,-3.7974,-3.7974,-3.7974,-3.7974,-3.7974,-3.7974,-3.7873,-3.721,-3.6844,-3.6637,-3.6667,-3.6461,-3.6461,-3.7168,-3.7324,-3.7372,-3.7589,-3.7637,-3.7709,-3.7926,0.0,0.0,0.0,0.0,0.0,0.0,-3.7685,-3.7829,-3.7372,-3.7709,-3.7974,-3.7974,-3.7974,-3.8118,-3.8431,-3.9152,-3.9922,-4.0667,-4.1004,-4.1172,-4.1172,-4.2241,-4.2819,-4.2819,-4.3794,-4.4285,-4.4285,-4.4285,-4.4285,-4.4285,-4.4285,-4.4573,-4.5101,-4.5694,-4.6223,-4.6752,-4.7281,-4.7497,-4.7497,-4.7497,-4.7497,-4.7497,-4.7497,-4.7497,-4.7497,-4.7497,-4.7497,-4.7497,-3.0898,-3.0898,-3.0898,-3.0898,-3.0898,-3.0898,-3.0898,-3.0996,-3.1055,-3.1055,-3.1172,-3.1348,-3.1681,-3.2208,-3.2324,-3.174,-3.2537,-3.3058,-3.3058,-3.2435,-3.3365,-3.6274,-3.4646,-3.5002,-3.7921,-3.7173,-3.7096,-3.7974,-3.7974,-3.7974,-3.7974,-3.7974,-3.7974,-3.7974,-3.7974,-3.7974,-3.7974,-3.7974,-3.807,-3.8214,-3.8214,-3.8286,-3.8383,-3.8094,-3.7974,-3.7974,-3.7974,-3.7974,-3.7974,-3.7974,-3.7974,-3.7974,-3.7974,-3.7974,-3.7974,-3.7974,-3.7388,-3.6881,-3.7761,-3.7388,-3.6881,-3.7761,-3.7974,-3.7974,-3.7974,-3.7974,-3.7974,-3.7974,-3.7974,0.0,0.0,0.0,0.0,0.0,0.0,-3.7878,-3.7589,-3.7805,-3.7974,-3.7974,-3.7974,-3.819,-3.8767,-3.9296,-3.9826,-4.0355,-4.0884,-4.1172,-4.1172,-4.2241,-4.2819,-4.2819,-4.3794,-4.4285,-4.4285,-4.4285,-4.4285,-4.4285,-4.4285,-4.4477,-4.4885,-4.5621,-4.6126,-4.6535,-4.7209,-4.7497,-4.7497,-4.7497,-4.7497,-4.7497,-4.7497,-4.7497,-4.7497,-4.7497,-4.7497,-4.7497,-3.0898,-3.0898,-3.0898,-3.0898,-3.0898,-3.0898,-3.0898,-3.123,-3.1504,-3.1504,-3.1875,-3.2593,-3.3672,-3.2875,-3.2654,-3.3731,-3.3989,-3.4049,-3.4049,-3.4718,-3.5656,-3.6911,-3.6374,-3.6665,-3.7974,-3.7974,-3.7974,-3.7974,-3.7974,-3.7974,-3.7974,-3.7974,-3.7974,-3.7974,-3.7974,-3.7974,-3.7974,-3.7974,-3.8286,-3.8791,-3.8791,-3.9104,-3.9441,-3.8383,-3.7974,-3.7974,-3.7974,-3.7974,-3.7974,-3.7974,-3.7974,0.0,0.0,0.0,-3.7974,-3.7974,-3.7974,-3.7921,-3.7974,-3.7974,-3.7921,-3.7974,-3.7974,-3.7974,-3.7974,-3.7974,-3.7974,-3.7974,-3.7974,-3.7974,-3.7974,0.0,0.0,0.0,0.0,0.0,0.0,-3.7348,-3.7974,-3.7974,-3.7974,-3.819,-3.8767,-3.9296,-3.9826,-4.0355,-4.0884,-4.1172,-4.1172,-4.2241,-4.2819,-4.2819,-4.3794,-4.4285,-4.4285,-4.4285,-4.4285,-4.4285,-4.4285,-4.4285,-4.4357,-4.5453,-4.5934,-4.6006,-4.704,-4.7497,-4.7497,-4.7497,-4.7497,-4.7497,-4.7497,-4.7497,-4.7497,-4.7497,-4.7497,-4.7497,-3.0898,-3.1113,-3.1211,-3.0937,-3.0898,-3.0976,-3.1269,-3.1426,-3.19,-3.3072,-3.3353,-3.3614,-3.401,-3.4365,-3.4484,-3.4069,-3.4778,-3.5656,-3.6525,-3.6024,-3.6622,-3.8635,-3.703,-3.6835,-3.8497,-3.7746,-3.7557,-3.7974,-3.7974,-3.7974,-3.7974,-3.7974,-3.7974,-3.7974,-3.7974,-3.819,-3.8527,-3.8527,-3.8839,-3.9345,-3.9345,-3.9441,-3.9561,-3.92,-3.9056,-3.9056,-3.9056,-3.9056,0.0,-3.9056,-3.8815,-3.8527,-3.8527,-3.8286,-3.7974,-3.7974,-3.7974,-3.7974,0.0,0.0,-3.7974,-3.7974,0.0,0.0,-3.7974,-3.7974,-3.7974,-3.7974,-3.7974,-3.7974,0.0,0.0,0.0,0.0,0.0,0.0,0.0,-3.7757,-3.7974,-3.7974,-3.7974,-3.8046,-3.8238,-3.908,-3.9681,-3.985,-4.0691,-4.1172,-4.1172,-4.2241,-4.2819,-4.2819,-4.3794,-4.4285,-4.4285,-4.4285,-4.4285,-4.4285,-4.4285,-4.4285,-4.4333,-4.539,-4.5934,-4.5982,-4.704,-4.7497,-4.7497,-4.7497,-4.7497,-4.7497,-4.7497,-4.7497,-4.7497,-4.7497,-4.7497,-4.7497,-3.1348,-3.1562,-3.1621,-3.1191,-3.125,-3.1445,-3.1699,-3.2276,-3.3115,-3.4445,-3.5113,-3.5583,-3.5813,-3.6475,-3.6655,-3.5873,-3.6953,-3.7893,-3.855,-3.73,-3.755,-3.9786,-3.736,-3.694,-3.9049,-3.8343,-3.8123,-3.8551,-3.8551,-3.8551,-3.8551,-3.8551,-3.8455,-3.8286,-3.8479,-3.8647,-3.8839,-3.9008,-3.9393,-3.9898,-4.009,-4.0162,-4.0162,-4.0162,-3.9946,-3.9609,0.0,-3.9609,-3.9609,-3.9609,-3.9369,-3.9104,-3.9104,-3.8864,-3.8551,-3.8551,-3.8551,-3.8527,-3.8334,-3.8286,0.0,-3.8046,-3.7974,0.0,-3.7974,0.0,-3.7974,0.0,0.0,0.0,0.0,0.0,0.0,0.0,0.0,0.0,0.0,-3.7974,-3.7974,-3.7974,-3.7974,-3.7974,-3.7974,-3.896,-3.9609,-3.9609,-4.0595,-4.1172,-4.1172,-4.2241,-4.2819,-4.2819,-4.3794,-4.4285,-4.4285,-4.4285,-4.4285,-4.4285,-4.4285,-4.4285,-4.4333,-4.539,-4.5934,-4.5982,-4.704,-4.7497,-4.7497,-4.7497,-4.7497,-4.7497,-4.7497,-4.7497,-4.7497,-4.7497,-4.7497,-4.7497,-3.2229,-3.2248,-3.209,-3.1719,-3.1934,-3.2187,-3.2226,-3.368,-3.494,-3.554,-3.7154,-3.8411,-3.8935,-3.8979,-3.8979,-3.8979,-4.0095,-4.0586,-4.0163,-3.8664,-3.8571,-4.0386,-3.7747,-3.7246,-3.9602,-3.9657,-3.9633,-3.9609,-3.9609,-3.9609,-3.9609,-3.9609,-3.9345,-3.8888,-3.9393,-3.9345,-3.8936,-3.9441,-3.9946,-4.0475,-4.098,-4.1172,-4.1172,-4.1172,-4.0571,-3.9681,-3.9681,-3.9681,-3.9681,-3.9681,-3.9657,-3.9657,-3.9657,-3.9633,-3.9609,-3.9609,-3.9609,-3.9489,-3.8984,-3.8864,-3.8719,-3.819,-3.807,0.0,0.0,0.0,-3.8022,0.0,0.0,0.0,0.0,0.0,0.0,0.0,0.0,0.0,0.0,-3.7974,-3.7974,-3.7974,-3.7974,-3.7974,-3.7974,-3.896,-3.9609,-3.9609,-4.0595,-4.1172,-4.1172,-4.2241,-4.2819,-4.2819,-4.3794,-4.4285,-4.4285,-4.4285,-4.4285,-4.4285,-4.4285,-4.4285,-4.4333,-4.539,-4.5934,-4.5982,-4.704,-4.7497,-4.7497,-4.7497,-4.7497,-4.7497,-4.7497,-4.7497,-4.7497,-4.7497,-4.7497,-4.7497,-3.2229,-3.2422,-3.2793,-3.332,-3.2734,-3.2383,-3.3008,-3.4327,-3.5891,-3.7627,-3.9209,-4.0143,-4.028,-4.028,-4.028,-4.028,-4.0609,-4.1173,-4.2066,-4.1685,-4.1496,-4.1581,-4.0832,-4.0324,-4.021,-4.0186,-3.9994,-3.9609,-3.9609,-3.9609,-3.9609,-3.9609,-3.9537,-3.9417,-3.9537,-3.9753,-3.9994,-4.0138,-4.0499,-4.1004,-4.1124,-4.1172,-4.1172,-4.1172,-4.1028,-4.0787,-4.0787,-4.0787,-4.0787,-4.0787,-4.0523,-4.0186,-4.0186,-3.9922,-3.9609,-3.9609,-3.9609,-3.9585,-3.9441,-3.9393,-3.9369,-3.9224,-3.92,-3.92,0.0,0.0,0.0,0.0,0.0,0.0,0.0,0.0,0.0,0.0,0.0,0.0,0.0,-3.7974,-3.7974,-3.7974,-3.7974,-3.7974,-3.7974,-3.896,-3.9609,-3.9609,-4.0595,-4.1172,-4.1172,0.0,-4.2819,-4.2819,-4.3794,-4.4285,-4.4285,-4.4285,-4.4285,-4.4285,-4.4285,-4.4285,-4.4333,-4.539,-4.5934,-4.5982,-4.704,-4.7497,-4.7497,-4.7497,-4.7497,-4.7497,-4.7497,-4.7497,-4.7497,-4.7497,-4.7497,-4.7497,-3.3281,-3.3476,-3.3769,-3.4258,-3.4302,-3.434,-3.4822,-3.6019,-3.7625,-3.9677,-4.1115,-4.2089,-4.2324,-4.2348,-4.2348,-4.2348,-4.2348,-4.256,-4.3036,-4.2589,-4.2291,-4.2327,-4.1805,-4.1365,-4.11,-4.1076,-4.0836,-4.0282,-4.0282,-4.0282,-4.0282,-4.0282,-4.0042,-3.9633,-4.009,-4.021,-4.009,-4.0547,-4.0908,-4.1172,-4.1172,-4.1172,0.0,-4.1437,-4.1389,-4.122,-4.1437,-4.1389,-4.1172,-4.1172,-4.098,-4.0739,-4.0739,-4.0547,-4.0282,-4.0282,-4.0282,-4.0234,-4.0018,-3.9946,-3.9898,-3.9657,-3.9609,-3.9609,-3.9609,-3.9369,-3.9176,0.0,-3.8912,-3.8695,0.0,0.0,0.0,0.0,0.0,0.0,-3.7974,-3.7974,-3.7974,-3.7974,-3.7974,-3.807,-3.8334,-3.9104,-3.9609,-3.9609,-4.0595,-4.1172,-4.1172,0.0,-4.2819,-4.2819,-4.3794,-4.4285,-4.4285,-4.4285,-4.4285,-4.4285,-4.4285,-4.4285,-4.4333,-4.539,-4.5934,-4.5982,-4.704,-4.7497,-4.7497,-4.7497,-4.7497,-4.7497,-4.7497,-4.7497,-4.7497,-4.7497,-4.7497,-4.7497,-3.4707,-3.4707,-3.4773,-3.5028,-3.5921,-3.6846,-3.7528,-3.8462,-3.9766,-4.1542,-4.2776,-4.3692,-4.4429,-4.4352,-4.4266,-4.4381,-4.4381,-4.4165,-4.3649,-4.2597,-4.2239,-4.288,-4.1784,-4.1466,-4.2086,-4.2062,-4.1822,-4.1293,-4.1293,-4.1244,-4.1172,-4.1124,-4.0619,-3.985,-4.0691,-4.0643,-3.997,-4.0908,-4.1317,-4.1389,-4.1389,-4.1389,-4.1437,-4.1894,-4.1798,-4.1461,-4.1976,-4.1677,-4.1172,-4.1172,-4.1172,-4.1172,-4.1172,-4.1172,-4.1172,-4.1172,-4.1172,-4.1076,-4.0619,-4.0499,-4.0379,-3.9922,-3.9801,-3.9801,-3.9801,-3.9753,-3.9705,-3.9705,-3.9657,-3.9609,0.0,0.0,0.0,-3.8286,0.0,-3.819,-3.819,-3.819,-3.8166,-3.8094,-3.8142,0.0,-3.8767,-3.9296,-3.9633,-3.9705,-4.0619,-4.1172,0.0,0.0,-4.2819,-4.2819,-4.3794,-4.4285,-4.4285,-4.4285,-4.4285,-4.4285,-4.4285,-4.4285,-4.4333,-4.539,-4.5934,-4.5982,-4.704,-4.7497,-4.7497,-4.7497,-4.7497,-4.7497,-4.7497,-4.7497,-4.7497,-4.7497,-4.7497,-4.7497,-3.4707,-3.4707,-3.5198,-3.6738,-3.6228,-3.7044,-4.1321,-4.1501,-4.1485,-4.2701,-4.2944,-4.3665,-4.547,-4.4507,-4.415,-4.4918,-4.4933,-4.4717,-4.4165,-4.3955,-4.3692,-4.3409,-4.3118,-4.2879,-4.2699,-4.2675,-4.2434,-4.1822,-4.1822,-4.1605,-4.1172,-4.0739,-4.0667,-4.0908,-4.0643,-4.0908,-4.1581,-4.1749,-4.2145,-4.2554,-4.2554,-4.2554,-4.2554,-4.2651,-4.2627,-4.2554,-4.2651,-4.2014,-4.1172,-4.1172,-4.1172,-4.1172,-4.1172,-4.1172,-4.1172,-4.1172,-4.1172,-4.1172,-4.1076,-4.1052,-4.1028,-4.0932,-4.0908,-4.0908,-4.0908,-4.0571,-4.0258,-4.0258,-3.9898,-3.9609,-3.9609,0.0,0.0,0.0,0.0,-3.932,-3.932,-3.932,-3.9152,-3.8719,-3.9056,-3.92,-3.8839,-3.9296,-3.9777,-4.0234,-4.0836,-4.1172,0.0,0.0,-4.2819,0.0,-4.3794,0.0,0.0,0.0,-4.4285,-4.4285,-4.4285,-4.4285,-4.4333,-4.539,-4.5934,-4.5982,-4.704,-4.7497,-4.7497,-4.7497,-4.7497,-4.7497,-4.7497,-4.7497,-4.7497,-4.7497,-4.7497,-4.7497,-3.5391,-3.5566,-3.6253,-3.7909,-3.847,-3.9678,-4.2935,-4.3648,-4.4041,-4.4495,-4.4478,-4.4829,-4.5758,-4.5243,-4.5019,-4.551,-4.5486,-4.5309,-4.4717,-4.4693,-4.4453,-4.3962,-4.3877,-4.3697,-4.3168,-4.3144,-4.2904,-4.2434,-4.2434,-4.211,-4.1581,-4.1052,-4.0787,-4.0787,-4.0787,-4.1244,-4.2049,-4.2313,-4.2578,-4.2819,-4.2819,-4.2819,-4.2843,-4.3048,-4.2976,-4.2867,-4.3048,-4.2663,-4.2014,-4.2014,-4.2014,-4.2014,-4.2014,-4.2014,-4.2,-4.1677,-4.1581,-4.1533,-4.1268,-4.1172,-4.1172,-4.1172,-4.1172,-4.1172,-4.1172,-4.098,-4.0812,-4.0812,-4.0595,-4.0331,-4.0066,-4.0018,0.0,0.0,0.0,0.0,-3.9609,-3.9609,-3.9513,-3.9272,-3.9441,-3.9609,-3.9633,-3.9874,-4.0114,-4.0379,-4.0884,-4.1172,0.0,0.0,-4.2819,0.0,0.0,0.0,-4.4285,0.0,-4.4285,-4.4285,-4.4285,-4.4285,-4.4333,-4.539,-4.5934,-4.5982,-4.704,-4.7497,-4.7497,-4.7497,-4.7497,-4.7497,-4.7497,-4.7497,-4.7497,-4.7497,-4.7497,-4.7497,-3.668,-3.7025,-3.7863,-3.966,-4.0902,-4.226,-4.4098,-4.5084,-4.5756,-4.6014,-4.5821,-4.5804,-4.6182,-4.5988,-4.5875,-4.6038,-4.6102,-4.5862,-4.5269,-4.5125,-4.4885,-4.4477,-4.4357,-4.4069,-4.3697,-4.3697,-4.3433,-4.2988,-4.2988,0.0,0.0,0.0,-4.0956,-4.0595,-4.122,-4.1822,0.0,0.0,-4.2976,-4.3096,-4.3096,-4.3096,-4.3144,-4.3529,-4.3433,-4.3144,-4.3553,-4.3433,-4.3096,-4.3096,-4.3012,-4.2819,-4.2819,-4.2819,-4.2747,-4.2254,-4.2193,-4.2062,-4.1629,-4.1533,-4.1533,-4.1533,-4.1437,-4.1341,-4.1341,-4.1268,-4.1172,-4.1172,-4.1172,-4.1052,-4.0643,-4.0571,0.0,0.0,0.0,0.0,0.0,-3.9946,-3.9898,-3.9777,-3.9777,-3.9946,-4.0355,-4.0403,-4.0451,-4.0547,-4.0956,-4.122,-4.1341,0.0,0.0,0.0,0.0,-4.4285,-4.4285,0.0,-4.4285,-4.4285,-4.4285,-4.4333,-4.4477,-4.5501,-4.5982,-4.615,-4.7088,-4.7497,-4.7497,-4.7497,-4.7497,-4.7497,-4.7497,-4.7497,-4.7497,-4.7497,-4.7497,-4.7497,-3.8917,-3.9234,-4.0124,-4.288,-4.246,-4.2839,-4.5948,-4.547,-4.5182,-4.6436,-4.547,-4.5326,-4.7173,-4.6174,-4.5719,-4.6549,-4.6631,-4.6415,-4.5886,-4.5342,-4.5053,-4.5005,-4.4549,-4.4261,-4.4213,-4.4213,-4.401,-4.3433,-4.3433,-4.2928,0.0,0.0,0.0,0.0,0.0,0.0,0.0,-4.3409,-4.3746,-4.4141,-4.4141,-4.4141,-4.4141,-4.4189,-4.4189,-4.4141,-4.4189,-4.4189,-4.4141,-4.4141,-4.3553,-4.2819,-4.2819,-4.2819,-4.2819,-4.2747,-4.2747,-4.2723,-4.2675,-4.2675,-4.2675,-4.2675,-4.2254,-4.1894,-4.1894,-4.1533,-4.1172,-4.1172,-4.1172,-4.1172,-4.1124,-4.1124,-4.11,0.0,0.0,0.0,0.0,-4.1028,-4.086,-4.0379,-4.0331,-4.0331,-4.0379,-4.0403,-4.0595,-4.1076,-4.1148,-4.1389,0.0,0.0,0.0,-4.3433,-4.4034,-4.4285,-4.4285,-4.4285,-4.4285,-4.4285,-4.4285,-4.4525,-4.5005,-4.5606,-4.6199,-4.668,-4.7257,-4.7497,-4.7497,-4.7497,-4.7497,-4.7497,-4.7497,-4.7497,-4.7497,-4.7497,-4.7497,-4.7497,-4.0618,-4.1104,-4.1891,-4.3933,-4.405,-4.4682,-4.6807,-4.6698,-4.6566,-4.7119,-4.6698,-4.657,-4.7407,-4.6941,-4.6779,-4.7143,-4.7185,-4.6968,-4.6439,-4.6199,-4.5934,-4.5558,-4.5053,-4.4765,-4.4765,-4.4453,-4.4165,-4.3949,-4.3949,0.0,0.0,0.0,0.0,0.0,0.0,-4.3313,-4.3529,-4.3866,-4.4069,-4.4285,-4.4285,-4.4285,-4.4285,-4.4285,-4.4285,-4.4285,-4.4285,-4.4285,-4.4285,-4.4285,-4.3997,-4.3721,-4.3721,-4.3721,-4.3649,-4.3313,-4.3216,-4.3144,-4.2916,-4.2819,-4.2819,-4.2819,-4.2651,-4.2506,-4.2506,-4.2338,-4.2193,-4.2193,-4.2193,-4.2038,-4.1701,-4.1653,-4.1557,-4.1244,0.0,0.0,0.0,0.0,-4.11,-4.0884,-4.086,-4.086,-4.086,-4.086,-4.1076,-4.1629,-4.1365,0.0,0.0,0.0,0.0,-4.3505,0.0,-4.4285,-4.4285,-4.4285,-4.4285,-4.4285,-4.4285,-4.4573,-4.5101,-4.5694,-4.6391,-4.7209,-4.7401,-4.7497,-4.7497,-4.7497,-4.7497,-4.7497,-4.7497,-4.7497,-4.7497,-4.7497,-4.7497,-4.7497,-4.2456,-4.306,-4.3713,-4.5219,-4.5722,-4.6315,-4.7364,-4.7497,-4.7497,-4.7497,-4.7497,-4.7497,-4.7497,-4.7497,-4.7497,-4.7497,-4.7497,-4.7353,-4.6968,-4.68,-4.6535,-4.6175,-4.5645,-4.5357,-4.5357,-4.4789,-4.4525,-4.4525,-4.4357,0.0,0.0,0.0,0.0,0.0,-4.3361,-4.3746,-4.3794,-4.4117,-4.4285,-4.4285,-4.4285,-4.4285,-4.4285,-4.4285,-4.4285,-4.4285,-4.4285,-4.4285,-4.4285,-4.4285,-4.4285,-4.4285,-4.4285,-4.4285,-4.4213,-4.3866,-4.3746,-4.3673,-4.3337,-4.3216,-4.3216,-4.3216,-4.3096,-4.2976,-4.2976,-4.2916,-4.2819,-4.2819,-4.2819,-4.2699,-4.2338,-4.2265,-4.2086,-4.1701,0.0,0.0,0.0,-4.1653,-4.1581,-4.1437,-4.1268,-4.1244,-4.1389,-4.1268,-4.1461,-4.2158,0.0,0.0,0.0,0.0,0.0,0.0,0.0,0.0,-4.4285,-4.4285,-4.4285,-4.4285,-4.4285,-4.4645,-4.5381,-4.6078,-4.68,-4.7497,-4.7497,-4.7497,-4.7497,-4.7497,-4.7497,-4.7497,-4.7497,-4.7497,-4.7497,-4.7497,-4.7497,-4.7497,-4.4687,-4.5255,-4.5752,-4.7208,-4.7497,-4.7497,-4.7497,-4.7497,-4.7497,-4.7497,-4.7497,-4.7497,-4.7497,-4.7497,-4.7497,-4.7497,-4.7497,-4.7497,-4.7497,-4.6992,-4.6704,-4.6704,-4.6199,-4.591,-4.591,-4.5342,-4.5053,-4.5053,0.0,0.0,-4.3505,0.0,-4.3505,-4.3529,-4.4021,-4.4285,-4.4285,-4.4285,-4.4285,-4.4285,-4.4285,-4.4285,-4.4285,-4.4285,-4.4285,-4.4285,-4.4285,-4.4285,-4.4285,-4.4285,-4.4285,-4.4285,-4.4285,-4.4285,-4.4285,-4.4285,-4.4285,-4.4261,-4.4261,-4.4261,-4.4261,-4.4261,-4.3853,-4.3505,-4.3505,-4.312,-4.2819,-4.2819,-4.2819,-4.2819,-4.2819,-4.2819,-4.2819,-4.2795,0.0,0.0,0.0,-4.2795,0.0,-4.2014,-4.1509,-4.1389,-4.1976,-4.1485,-4.1629,-4.2723,0.0,0.0,0.0,0.0,0.0,-4.4237,-4.4285,0.0,-4.4285,-4.4285,-4.4285,-4.4285,-4.4285,-4.4837,-4.5958,-4.6992,-4.7497,-4.7497,-4.7497,-4.7497,-4.7497,-4.7497,-4.7497,-4.7497,-4.7497,-4.7497,-4.7497,-4.7497,-4.7497,-4.7497,-4.6382,-4.6808,-4.6941,-4.7431,-4.7497,-4.7497,-4.7497,-4.7497,-4.7497,-4.7497,-4.7497,-4.7497,-4.7497,-4.7497,-4.7497,-4.7497,-4.7497,-4.7497,-4.7497,-4.7353,-4.7257,-4.7257,-4.6752,-4.6463,-4.6463,-4.5934,-4.5669,-4.5669,0.0,0.0,0.0,-4.5164,-4.5164,-4.5164,-4.5269,-4.5429,-4.5429,-4.5429,-4.5429,-4.5429,-4.5429,-4.5149,-4.4813,-4.4813,-4.4597,-4.4285,-4.4285,-4.4285,-4.4285,-4.4285,-4.4285,-4.4285,-4.4285,-4.4285,-4.4285,-4.4285,-4.4285,-4.4285,-4.4285,-4.4285,-4.4285,-4.4285,-4.4141,-4.4021,-4.4021,-4.3962,-4.3842,-4.3842,-4.3842,-4.3721,-4.3337,-4.3265,-4.3168,-4.2867,-4.2819,0.0,-4.2819,0.0,-4.2747,-4.2602,-4.241,-4.2386,-4.2554,-4.241,0.0,0.0,0.0,0.0,0.0,0.0,0.0,0.0,-4.4285,0.0,-4.4285,-4.4285,-4.4285,-4.4285,-4.4645,-4.5429,-4.6487,-4.7185,-4.7497,-4.7497,-4.7497,-4.7497,-4.7497,-4.7497,-4.7497,-4.7497,-4.7497,-4.7497,-4.7497,-4.7497,-4.7497,-4.7497,-4.7232,-4.7497,-4.7497,-4.7497,-4.7497,-4.7569,-4.7762,-4.781,-4.7858,-4.8074,-4.793,-4.781,-4.781,-4.7617,-4.7497,-4.7497,-4.7497,-4.7497,-4.7497,-4.7497,-4.7497,-4.7497,-4.7185,-4.7016,-4.7016,-4.6487,0.0,-4.6223,-4.603,-4.5934,-4.5934,-4.5934,-4.5934,-4.5934,-4.5934,-4.5934,-4.5934,-4.5934,-4.5934,-4.5934,-4.5934,-4.5718,-4.5366,-4.5366,-4.5173,-4.4885,-4.4885,-4.4885,-4.4885,-4.4885,-4.4741,-4.4573,-4.4573,-4.4453,-4.4285,-4.4285,-4.4285,-4.4285,-4.4285,-4.4285,-4.4285,-4.4285,-4.4285,-4.4285,-4.4285,-4.4285,-4.4285,-4.4285,-4.4285,-4.4189,-4.389,-4.3818,-4.3721,-4.3409,-4.3361,-4.3361,-4.3361,0.0,-4.3289,-4.3072,-4.3048,-4.3048,0.0,-4.3048,-4.312,0.0,0.0,0.0,0.0,0.0,0.0,-4.4261,-4.4285,-4.4285,-4.4285,-4.4285,-4.4285,-4.4285,-4.5029,-4.5886,-4.6728,-4.7257,-4.7497,-4.7497,-4.7497,-4.7497,-4.7497,-4.7497,-4.7497,-4.7497,-4.7497,-4.7497,-4.7497,-4.7497,-4.7497,-4.7497,-4.7327,-4.7617,-4.7617,-4.7617,-4.7617,-4.7786,-4.8267,-4.8339,-4.8507,-4.9012,-4.8652,-4.8339,-4.8339,-4.7906,-4.7593,-4.7569,0.0,0.0,-4.7497,-4.7497,-4.7497,-4.7497,-4.7497,-4.7497,-4.7497,-4.7016,-4.6776,-4.6776,-4.6271,-4.603,-4.603,-4.603,-4.603,-4.603,-4.603,-4.603,-4.603,-4.603,-4.603,-4.603,-4.603,-4.6006,-4.5982,-4.5982,-4.5958,-4.5934,-4.5934,-4.5934,-4.5934,-4.5934,-4.5597,-4.5125,-4.5125,-4.4789,-4.4381,-4.4309,-4.4285,-4.4285,-4.4285,-4.4285,-4.4285,-4.4285,-4.4285,-4.4285,-4.4285,-4.4285,-4.4285,-4.4285,-4.4285,-4.4285,-4.4285,-4.4285,-4.4285,-4.4285,-4.4285,-4.4285,-4.4285,-4.4285,-4.4093,-4.3625,0.0,0.0,-4.3577,-4.3577,-4.377,0.0,0.0,0.0,0.0,0.0,-4.3818,-4.4261,-4.4285,-4.4285,-4.4285,-4.4285,-4.4333,-4.4405,-4.5501,-4.6247,-4.6776,-4.7281,-4.7497,-4.7497,-4.7497,-4.7497,-4.7497,-4.7497,-4.7497,-4.7497,-4.7497,-4.7497,-4.7497,-4.7497,-4.7497,-4.7497,-4.8632,-4.87,-4.87,-4.87,-4.87,-4.8748,-4.8868,-4.8892,-4.894,-4.906,-4.8964,-4.8892,-4.8892,-4.8772,-4.8555,-4.8147,-4.7738,-4.7497,-4.7497,-4.7497,-4.7497,-4.7497,-4.7497,-4.7497,-4.7497,-4.7377,-4.7305,-4.7305,-4.7185,-4.7136,-4.7136,-4.7136,-4.7136,-4.7136,-4.7136,-4.7136,-4.7136,-4.7136,-4.7136,-4.7136,-4.7136,-4.6896,-4.6535,-4.6535,-4.6271,-4.5934,-4.5934,-4.5934,-4.5934,-4.5934,-4.5838,-4.5742,-4.5742,-4.5645,-4.5342,-4.4525,-4.4285,-4.4285,-4.4285,-4.4285,-4.4285,-4.4285,-4.4285,-4.4285,-4.4285,-4.4285,-4.4285,-4.4285,-4.4285,-4.4285,-4.4285,-4.4285,-4.4285,-4.4285,-4.4285,-4.4285,-4.4285,-4.4285,-4.4237,0.0,-4.4093,-4.4093,-4.4093,-4.4093,-4.3973,0.0,0.0,-4.4093,-4.3721,-4.3925,-4.4141,-4.4285,-4.4285,-4.4285,-4.4285,-4.4285,-4.4693,-4.5549,-4.6223,-4.68,-4.7329,-4.7449,-4.7497,-4.7497,-4.7497,-4.7497,-4.7497,-4.7497,-4.7497,-4.7497,-4.7497,-4.7497,-4.7497,-4.7497,-4.7497,-4.7497,-4.9084,-4.9084,-4.9084,-4.9084,-4.9084,-4.9157,-4.9397,-4.9445,-4.9541,-4.9782,-4.9589,-4.9445,-4.9445,-4.9229,-4.8964,-4.8676,-4.8171,-4.7762,-4.7521,-4.7497,-4.7497,-4.7497,-4.7497,-4.7497,-4.7497,-4.7497,-4.7497,-4.7497,-4.7497,-4.7497,-4.7497,-4.7497,-4.7497,-4.7497,-4.7497,-4.7497,-4.7497,-4.7497,-4.7497,-4.7497,-4.7497,-4.7329,-4.7064,-4.7064,-4.6896,-4.6631,-4.6631,-4.6631,-4.6631,-4.6631,-4.6487,-4.6295,-4.6295,-4.6126,-4.5814,-4.5173,-4.4837,-4.4645,-4.4645,-4.4477,-4.4285,-4.4285,-4.4285,-4.4285,-4.4285,-4.4285,-4.4285,-4.4285,-4.4285,-4.4285,-4.4285,-4.4285,-4.4285,-4.4285,-4.4285,-4.4285,-4.4285,-4.4285,-4.4285,-4.4285,-4.4285,-4.4285,-4.4285,-4.4285,-4.4165,-4.3914,-4.4117,0.0,-4.3914,-4.4117,-4.4285,-4.4285,-4.4285,-4.4285,-4.4285,-4.4525,-4.5053,-4.5934,-4.6463,-4.6992,-4.7497,-4.7497,-4.7497,-4.7497,-4.7497,-4.7497,-4.7497,-4.7497,-4.7497,-4.7497,-4.7497,-4.7497,-4.7497,-4.7497,-4.7497,-4.7497,-4.9325,-4.9325,-4.9325,-4.9325,-4.9325,-4.9469,-4.9926,-4.9998,-5.0167,-5.0648,-5.0287,-4.9998,-4.9998,-4.9589,-4.9277,-4.9205,-4.8796,-4.8267,-4.7666,-4.7617,-4.7593,-4.7497,-4.7497,-4.7497,-4.7497,-4.7497,-4.7497,-4.7497,-4.7497,-4.7497,-4.7497,-4.7497,-4.7497,-4.7497,-4.7497,-4.7497,-4.7497,-4.7497,-4.7497,-4.7497,-4.7497,-4.7497,-4.7497,-4.7497,-4.7497,-4.7497,-4.7497,-4.7497,-4.7497,-4.7497,-4.7209,-4.6824,-4.6824,-4.6535,-4.615,-4.615,-4.579,-4.5293,-4.5221,-4.4861,-4.4525,-4.4525,-4.4525,-4.4501,-4.4429,-4.4405,-4.4381,-4.4309,-4.4285,-4.4285,-4.4285,-4.4285,-4.4285,-4.4285,-4.4285,-4.4285,-4.4285,0.0,-4.4285,-4.4285,-4.4285,-4.4285,-4.4285,-4.4285,-4.4285,-4.4285,-4.4285,-4.4285,-4.4285,-4.4285,-4.4285,-4.4285,-4.4285,-4.4333,-4.4405,-4.4933,-4.5525,-4.6054,-4.6583,-4.7064,-4.7497,-4.7497,-4.7497,-4.7497,-4.7497,-4.7497,-4.7497,-4.7497,-4.7497,-4.7497,-4.7497,-4.7497,-4.7497,-4.7497,-4.7497,-4.7497,-5.0455,-5.0455,-5.0455,-5.0455,-5.0455,-5.0479,-5.0551,-5.0576,-5.06,-5.0696,-5.0624,-5.0576,-5.0576,-5.0503,-5.0263,-4.9782,-4.9662,-4.9205,-4.8243,-4.8171,-4.7954,-4.7521,-4.7497,-4.7497,-4.7497,-4.7497,-4.7497,-4.7497,-4.7497,-4.7497,-4.7497,-4.7497,-4.7497,-4.7497,-4.7497,-4.7497,-4.7497,-4.7497,-4.7497,-4.7497,-4.7497,-4.7497,-4.7497,-4.7497,-4.7497,-4.7497,-4.7497,-4.7497,-4.7497,-4.7497,-4.7449,-4.7377,-4.7377,-4.7329,-4.7257,-4.7257,-4.6872,-4.6367,-4.5934,-4.5742,-4.5669,-4.5669,-4.5669,-4.5549,-4.5053,-4.4957,-4.4813,-4.4381,-4.4285,-4.4285,-4.4285,-4.4285,-4.4285,-4.4285,-4.4285,-4.4285,-4.4285,0.0,-4.4285,-4.4285,-4.4285,-4.4285,-4.4285,-4.4285,-4.4285,-4.4285,-4.4285,-4.4285,-4.4285,-4.4285,-4.4285,-4.4285,-4.4285,-4.4501,-4.4957,-4.5549,-4.6078,-4.6583,-4.7112,-4.7425,-4.7497,-4.7497,-4.7497,-4.7497,-4.7497,-4.7497,-4.7497,-4.7497,-4.7497,-4.7497,-4.7497,-4.7497,-4.7497,-4.7497,-4.7497,-4.7497,-5.0696,-5.0696,-5.0696,-5.0696,-5.0696,-5.0696,-5.0696,-5.0696,-5.0696,-5.0696,-5.0696,-5.0696,-5.0696,-5.0696,-5.06,-5.0335,-5.0311,-4.9974,-4.9181,-4.8868,-4.8603,-4.8363,-4.8074,-4.7786,-4.7521,-4.7497,-4.7497,-4.7497,-4.7497,-4.7497,-4.7497,-4.7497,-4.7497,-4.7497,-4.7497,-4.7497,-4.7497,-4.7497,-4.7497,-4.7497,-4.7497,-4.7497,-4.7497,-4.7497,-4.7497,-4.7497,-4.7497,-4.7497,-4.7497,-4.7497,-4.7497,-4.7497,-4.7497,-4.7497,-4.7497,-4.7497,-4.7136,-4.6583,-4.6078,-4.5934,-4.5934,-4.5934,-4.5934,-4.5862,-4.5621,-4.5549,-4.5501,-4.5173,-4.5125,-4.5125,-4.5125,-4.5125,-4.5125,-4.5125,-4.5125,0.0,-4.5125,-4.5125,-4.5125,-4.5125,-4.5125,-4.5125,-4.5125,-4.5125,-4.5005,-4.4741,-4.4717,-4.4573,-4.4309,-4.4549,-4.4717,-4.4717,-4.4717,-4.4837,-4.5077,-4.5934,-4.6463,-4.6728,-4.7257,-4.7497,-4.7497,-4.7497,-4.7497,-4.7497,-4.7497,-4.7497,-4.7497,-4.7497,-4.7497,-4.7497,-4.7497,-4.7497,-4.7497,-4.7497,-4.7497,-4.7497,-5.0696,-5.0696,-5.0696,-5.0696,-5.0696,-5.0696,-5.0696,-5.0696,-5.0696,-5.0696,-5.0696,-5.0696,-5.0696,-5.0696,-5.0696,-5.0696,-5.0696,-5.0527,-5.0095,-4.9686,-4.9349,-4.9084,-4.87,-4.8291,-4.7882,-4.7858,-4.7858,-4.7858,-4.7738,-4.769,-4.769,-4.7569,-4.7497,-4.7497,-4.7497,-4.7497,-4.7497,-4.7497,-4.7497,-4.7497,-4.7497,-4.7497,-4.7497,-4.7497,-4.7497,-4.7497,-4.7497,-4.7497,-4.7497,-4.7497,-4.7497,-4.7497,-4.7497,-4.7497,-4.7497,-4.7497,-4.7209,-4.68,-4.6391,-4.6295,-4.6295,-4.6295,-4.6295,-4.6247,-4.6126,-4.6102,-4.6078,-4.5958,-4.5934,-4.5934,-4.5934,-4.5934,-4.5934,-4.5934,0.0,-4.5934,-4.5934,-4.5934,-4.5934,-4.5934,-4.5934,-4.5934,-4.5934,-4.5934,-4.5766,-4.5357,-4.5309,-4.5077,-4.4669,-4.5029,-4.5309,-4.5309,-4.5309,-4.5381,-4.5501,-4.6319,-4.6776,-4.6896,-4.7305,-4.7497,-4.7497,-4.7497,-4.7497,-4.7497,-4.7497,-4.7497,-4.7497,-4.7497,-4.7497,-4.7497,-4.7497,-4.7497,-4.7497,-4.7497,-4.7497,-4.7497,-5.0696,-5.0696,-5.0696,-5.0696,-5.0696,-5.0696,-5.0696,-5.0696,-5.0696,-5.0696,-5.0696,-5.0696,-5.0696,-5.0696,-5.0696,-5.0696,-5.0696,-5.0696,-5.0648,-5.06,-5.0143,-4.9133,-4.9036,-4.8988,-4.8964,-4.8964,-4.8964,-4.8964,-4.8459,-4.8243,-4.8219,-4.7738,-4.7497,-4.7497,-4.7497,-4.7497,-4.7497,-4.7497,-4.7497,-4.7497,-4.7497,-4.7497,-4.7497,-4.7497,-4.7497,-4.7497,-4.7497,-4.7497,-4.7497,-4.7497,-4.7497,-4.7497,-4.7497,-4.7497,-4.7497,-4.7497,-4.7473,-4.7425,-4.7401,-4.7377,-4.7377,-4.7377,-4.7377,-4.7257,-4.6776,-4.6655,-4.6511,-4.603,-4.5934,-4.5934,-4.5934,-4.5934,-4.5934,-4.5934,0.0,0.0,-4.5934,-4.5934,-4.5934,-4.5934,-4.5934,-4.5934,-4.5934,-4.5934,-4.591,-4.5862,-4.5862,-4.5838,-4.5814,-4.5838,-4.5862,-4.5862,-4.5862,-4.6102,-4.6583,-4.668,-4.6968,-4.7449,-4.7473,-4.7497,-4.7497,-4.7497,-4.7497,-4.7497,-4.7497,-4.7497,-4.7497,-4.7497,-4.7497,-4.7497,-4.7497,-4.7497,-4.7497,-4.7497,-4.7497,-4.7497,-5.0696,-5.0696,-5.0696,-5.0696,-5.0696,-5.0696,-5.0696,-5.0696,-5.0696,-5.0696,-5.0696,-5.0696,-5.0696,-5.0696,-5.0696,-5.0696,-5.0696,-5.0696,-5.0696,-5.0696,-5.0359,-4.9589,-4.9565,-4.9421,-4.9084,-4.9084,-4.9084,-4.9084,-4.8868,-4.8772,-4.8772,-4.8579,-4.8483,-4.8459,-4.8147,-4.8002,-4.7954,-4.7642,-4.7497,-4.7497,-4.7497,-4.7497,-4.7497,-4.7497,-4.7497,-4.7497,-4.7497,-4.7497,-4.7497,-4.7497,-4.7497,-4.7497,-4.7497,-4.7497,-4.7497,-4.7497,-4.7497,-4.7497,-4.7497,-4.7497,-4.7497,-4.7497,-4.7497,-4.7449,-4.7257,-4.7209,-4.7136,-4.6944,-4.6896,-4.6896,-4.6896,-4.6896,-4.6896,-4.6896,0.0,-4.6896,-4.6896,-4.6896,-4.6896,-4.6896,-4.6896,-4.6896,-4.6896,-4.6896,-4.6776,-4.6439,-4.6415,-4.6271,-4.5934,-4.6247,-4.6559,-4.6896,-4.6896,-4.6848,-4.6704,-4.704,-4.7305,-4.7497,-4.7497,-4.7497,-4.7497,-4.7497,-4.7497,-4.7497,-4.7497,-4.7497,-4.7497,-4.7497,-4.7497,-4.7497,-4.7497,-4.7497,-4.7497,-4.7497,-4.7497,-4.7497,-5.0696,-5.0696,-5.0696,-5.0696,-5.0696,-5.0696,-5.0696,-5.0696,-5.0696,-5.0696,-5.0696,-5.0696,-5.0696,-5.0696,-5.0696,-5.0696,-5.0696,-5.0696,-5.0696,-5.0696,-5.0527,-5.0143,-5.0143,-4.995,-4.9589,-4.9589,-4.9589,-4.9589,-4.9421,-4.9325,-4.9325,-4.9157,-4.9084,-4.906,-4.87,-4.8531,-4.8507,-4.8147,-4.8002,-4.7978,-4.781,-4.7738,-4.7738,-4.7569,-4.7497,-4.7497,-4.7497,-4.7497,-4.7497,-4.7497,-4.7497,-4.7497,-4.7497,-4.7497,-4.7497,-4.7497,-4.7497,-4.7497,-4.7497,-4.7497,-4.7497,-4.7497,-4.7497,-4.7497,-4.7497,-4.7497,-4.7497,-4.7497,-4.7497,-4.7497,-4.7497,-4.7497,-4.7497,-4.7497,-4.7497,-4.7497,-4.7497,-4.7497,-4.7497,-4.7497,-4.7497,-4.7497,-4.7497,-4.7497,-4.7353,-4.6992,-4.6968,-4.68,-4.6439,-4.6752,-4.7112,-4.7497,-4.7497,-4.7329,-4.6968,-4.7329,-4.7497,-4.7497,-4.7497,-4.7497,-4.7497,-4.7497,-4.7497,-4.7497,-4.7497,-4.7497,-4.7497,-4.7497,-4.7497,-4.7497,-4.7497,-4.7497,-4.7497,-4.7497,-4.7497,-4.7497,-5.0696,-5.0696,-5.0696,-5.0696,-5.0696,-5.0696,-5.0696,-5.0696,-5.0696,-5.0696,-5.0696,-5.0696,-5.0696,-5.0696,-5.0696,-5.0696,-5.0696,-5.0696,-5.0696,-5.0696,-5.0696,-5.0696,-5.0696,-5.0696,-5.0696,-5.0696,-5.0696,-5.0696,-5.0143,-4.9948,-4.9854,-4.9325,-4.9084,-4.9084,-4.9084,-4.9084,-4.9084,-4.9084,-4.9084,-4.9036,-4.8507,-4.8291,-4.8243,-4.7714,-4.7521,-4.7521,-4.7497,-4.7497,-4.7497,-4.7497,-4.7497,-4.7497,-4.7497,-4.7497,-4.7497,-4.7497,-4.7497,-4.7497,-4.7497,-4.7497,-4.7497,-4.7497,-4.7497,-4.7497,-4.7497,-4.7497,-4.7497,-4.7497,-4.7497,-4.7497,-4.7497,-4.7497,-4.7497,-4.7497,-4.7497,-4.7497,-4.7497,-4.7497,-4.7497,-4.7497,-4.7497,-4.7497,-4.7497,-4.7497,-4.7497,-4.7497,-4.7497,-4.7497,-4.7497,-4.7497,-4.7497,-4.7497,-4.7497,-4.7497,-4.7497,-4.7497,-4.7497,-4.7497,-4.7497,-4.7497,-4.7497,-4.7497,-4.7497,-4.7497,-4.7497,-4.7497,-4.7497,-4.7497,-4.7497,-4.7497,-4.7497,-4.7497,-4.7497,-4.7497,-4.7497,-4.7497,-5.0696,-5.0696,-5.0696,-5.0696,-5.0696,-5.0696,-5.0696,-5.0696,-5.0696,-5.0696,-5.0696,-5.0696,-5.0696,-5.0696,-5.0696,-5.0696,-5.0696,-5.0696,-5.0696,-5.0696,-5.0696,-5.0696,-5.0696,-5.0696,-5.0696,-5.0696,-5.0696,-5.0696,-5.0527,-5.0455,-5.0455,-5.0287,-5.0215,-5.0191,-4.9806,-4.9638,-4.9614,-4.9229,-4.9084,-4.906,-4.8916,-4.8844,-4.8796,-4.8267,-4.805,-4.8002,-4.7642,-4.7497,-4.7497,-4.7497,-4.7497,-4.7497,-4.7497,-4.7497,-4.7497,-4.7497,-4.7497,-4.7497,-4.7497,-4.7497,-4.7497,-4.7497,-4.7497,-4.7497,-4.7497,-4.7497,-4.7497,-4.7497,-4.7497,-4.7497,-4.7497,-4.7497,-4.7497,-4.7497,-4.7497,-4.7497,-4.7497,-4.7497,-4.7497,-4.7497,-4.7497,-4.7497,-4.7497,-4.7497,-4.7497,-4.7497,-4.7497,-4.7497,-4.7497,-4.7497,-4.7497,-4.7497,-4.7497,-4.7497,-4.7497,-4.7497,-4.7497,-4.7497,-4.7497,-4.7497,-4.7497,-4.7497,-4.7497,-4.7497,-4.7497,-4.7497,-4.7497,-4.7497,-4.7497,-4.7497,-4.7497,-4.7497,-4.7497,-4.7497,-4.7497,-4.7497,-5.0696,-5.0696,-5.0696,-5.0696,-5.0696,-5.0696,-5.0696,-5.0696,-5.0696,-5.0696,-5.0696,-5.0696,-5.0696,-5.0696,-5.0696,-5.0696,-5.0696,-5.0696,-5.0696,-5.0696,-5.0696,-5.0696,-5.0696,-5.0696,-5.0696,-5.0696,-5.0696,-5.0696,-5.0696,-5.0696,-5.0696,-5.0696,-5.0696,-5.0696,-5.0335,-5.0191,-5.0191,-4.9854,-4.971,-4.971,-4.9469,-4.9397,-4.9325,-4.8796,-4.8603,-4.8531,-4.8002,-4.781,-4.7786,-4.7569,-4.7497,-4.7497,-4.7497,-4.7497,-4.7497,-4.7497,-4.7497,-4.7497,-4.7497,-4.7497,-4.7497,-4.7497,-4.7497,-4.7497,-4.7497,-4.7497,-4.7497,-4.7497,-4.7497,-4.7497,-4.7497,-4.7497,-4.7497,-4.7497,-4.7497,-4.7497,-4.7497,-4.7497,-4.7497,-4.7497,-4.7497,-4.7497,-4.7497,-4.7497,-4.7497,-4.7497,-4.7497,-4.7497,-4.7497,-4.7497,-4.7497,-4.7497,-4.7497,-4.7497,-4.7497,-4.7497,-4.7497,-4.7497,-4.7497,-4.7497,-4.7497,-4.7497,-4.7497,-4.7497,-4.7497,-4.7497,-4.7497,-4.7497,-4.7497,-4.7497,-4.7497,-4.7497,-4.7497,-4.7497,-4.7497,-4.7497,-5.0696,-5.0696,-5.0696,-5.0696,-5.0696,-5.0696,-5.0696,-5.0696,-5.0696,-5.0696,-5.0696,-5.0696,-5.0696,-5.0696,-5.0696,-5.0696,-5.0696,-5.0696,-5.0696,-5.0696,-5.0696,-5.0696,-5.0696,-5.0696,-5.0696,-5.0696,-5.0696,-5.0696,-5.0696,-5.0696,-5.0696,-5.0696,-5.0696,-5.0696,-5.0696,-5.0696,-5.0696,-5.0696,-5.0696,-5.0648,-5.0143,-4.995,-4.9878,-4.9349,-4.9157,-4.9084,-4.8555,-4.8339,-4.8219,-4.769,-4.7497,-4.7497,-4.7497,-4.7497,-4.7497,-4.7497,-4.7497,-4.7497,-4.7497,-4.7497,-4.7497,-4.7497,-4.7497,-4.7497,-4.7497,-4.7497,-4.7497,-4.7497,-4.7497,-4.7497,-4.7497,-4.7497,-4.7497,-4.7497,-4.7497,-4.7497,-4.7497,-4.7497,-4.7497,-4.7497,-4.7497,-4.7497,-4.7497,-4.7497,-4.7497,-4.7497,-4.7497,-4.7497,-4.7497,-4.7497,-4.7497,-4.7497,-4.7497,-4.7497,-4.7497,-4.7497,-4.7497,-4.7497,-4.7497,-4.7497,-4.7497,-4.7497,-4.7497,-4.7497,-4.7497,-4.7497,-4.7497,-4.7497,-4.7497,-4.7497,-4.7497,-4.7497,-4.7497,-4.7497,-4.7497,-4.7497,-5.0696,-5.0696,-5.0696,-5.0696,-5.0696,-5.0696,-5.0696,-5.0696,-5.0696,-5.0696,-5.0696,-5.0696,-5.0696,-5.0696,-5.0696,-5.0696,-5.0696,-5.0696,-5.0696,-5.0696,-5.0696,-5.0696,-5.0696,-5.0696,-5.0696,-5.0696,-5.0696,-5.0696,-5.0696,-5.0696,-5.0696,-5.0696,-5.0696,-5.0696,-5.0696,-5.0696,-5.0696,-5.0696,-5.0696,-5.0696,-5.0576,-5.0527,-5.0455,-4.9902,-4.9755,-4.9638,-4.9084,-4.8652,-4.8219,-4.769,-4.7497,-4.7497,-4.7497,-4.7497,-4.7497,-4.7497,-4.7497,-4.7497,-4.7497,-4.7497,-4.7497,-4.7497,-4.7497,-4.7497,-4.7497,-4.7497,-4.7497,-4.7497,-4.7497,-4.7497,-4.7497,-4.7497,-4.7497,-4.7497,-4.7497,-4.7497,-4.7497,-4.7497,-4.7497,-4.7497,-4.7497,-4.7497,-4.7497,-4.7497,-4.7497,-4.7497,-4.7497,-4.7497,-4.7497,-4.7497,-4.7497,-4.7497,-4.7497,-4.7497,-4.7497,-4.7497,-4.7497,-4.7497,-4.7497,-4.7497,-4.7497,-4.7497,-4.7497,-4.7497,-4.7497,-4.7497,-4.7497,-4.7497,-4.7497,-4.7497,-4.7497,-4.7497,-4.7497,-4.7497,-4.7497,-4.7497,-5.0696,-5.0696,-5.0696,-5.0696,-5.0696,-5.0696,-5.0696,-5.0696,-5.0696,-5.0696,-5.0696,-5.0696,-5.0696,-5.0696,-5.0696,-5.0696,-5.0696,-5.0696,-5.0696,-5.0696,-5.0696,-5.0696,-5.0696,-5.0696,-5.0696,-5.0696,-5.0696,-5.0696,-5.0696,-5.0696,-5.0696,-5.0696,-5.0696,-5.0696,-5.0696,-5.0696,-5.0696,-5.0696,-5.0696,-5.0696,-5.0696,-5.0696,-5.0672,-5.0383,-5.0263,-5.0191,-4.9638,-4.9109,-4.8628,-4.8339,-4.8074,-4.7882,-4.7882,-4.7714,-4.7497,-4.7497,-4.7497,-4.7497,-4.7497,-4.7497,-4.7497,-4.7497,-4.7497,-4.7497,-4.7497,-4.7497,-4.7497,-4.7497,-4.7497,-4.7497,-4.7497,-4.7497,-4.7497,-4.7497,-4.7497,-4.7497,-4.7497,-4.7497,-4.7497,-4.7497,-4.7497,-4.7497,-4.7497,-4.7497,-4.7497,-4.7497,-4.7497,-4.7497,-4.7497,-4.7497,-4.7497,-4.7497,-4.7497,-4.7497,-4.7497,-4.7497,-4.7497,-4.7497,-4.7497,-4.7497,-4.7497,-4.7497,-4.7497,-4.7497,-4.7497,-4.7497,-4.7497,-4.7497,-4.7497,-4.7497,-4.7497,-4.7497,-4.7497,-4.7497,-4.7497,-4.7497,-5.0625,-5.0696,-5.0696,-5.0696,-5.0696,-5.0696,-5.0696,-5.0696,-5.0696,-5.0696,-5.0696,-5.0696,-5.0696,-5.0696,-5.0696,-5.0696,-5.0696,-5.0696,-5.0696,-5.0696,-5.0696,-5.0696,-5.0696,-5.0696,-5.0696,-5.0696,-5.0696,-5.0696,-5.0696,-5.0696,-5.0696,-5.0696,-5.0696,-5.0696,-5.0696,-5.0696,-5.0696,-5.0696,-5.0696,-5.0696,-5.0696,-5.0696,-5.0696,-5.0696,-5.0696,-5.0648,-5.0191,-4.9662,-4.9205,-4.9109,-4.8796,-4.8435,-4.8435,-4.8122,-4.7762,-4.7762,-4.7714,-4.7642,-4.7642,-4.7569,-4.7497,-4.7497,-4.7497,-4.7497,-4.7497,-4.7497,-4.7497,-4.7497,-4.7497,-4.7497,-4.7497,-4.7497,-4.7497,-4.7497,-4.7497,-4.7497,-4.7497,-4.7497,-4.7497,-4.7497,-4.7497,-4.7497,-4.7497,-4.7497,-4.7497,-4.7497,-4.7497,-4.7497,-4.7497,-4.7497,-4.7497,-4.7497,-4.7497,-4.7497,-4.7497,-4.7497,-4.7497,-4.7497,-4.7497,-4.7497,-4.7497,-4.7497,-4.7497,-4.7497,-4.7497,-4.7497,-4.7497,-4.7497,-4.7497,-4.7497,-4.7497,-4.7497,-4.7497,-4.7497,-4.7497,-4.7497,-5.0412,-5.0696,-5.0696,-5.0696,-5.0696,-5.0696,-5.0696,-5.0696,-5.0696,-5.0696,-5.0696,-5.0696,-5.0696,-5.0696,-5.0696,-5.0696,-5.0696,-5.0696,-5.0696,-5.0696,-5.0696,-5.0696,-5.0696,-5.0696,-5.0696,-5.0696,-5.0696,-5.0696,-5.0696,-5.0696,-5.0696,-5.0696,-5.0696,-5.0696,-5.0696,-5.0696,-5.0696,-5.0696,-5.0696,-5.0696,-5.0696,-5.0696,-5.0696,-5.0696,-5.0696,-5.0696,-5.0624,-5.0239,-4.9686,-4.9229,-4.9036,-4.8964,-4.8964,-4.8916,-4.8868,-4.8868,-4.8555,-4.8171,-4.8171,-4.7858,-4.7497,-4.7497,-4.7497,-4.7497,-4.7497,-4.7497,-4.7497,-4.7497,-4.7497,-4.7497,-4.7497,-4.7497,-4.7497,-4.7497,-4.7497,-4.7497,-4.7497,-4.7497,-4.7497,-4.7497,-4.7497,-4.7497,-4.7497,-4.7497,-4.7497,-4.7497,-4.7497,-4.7497,-4.7497,-4.7497,-4.7497,-4.7497,-4.7497,-4.7497,-4.7497,-4.7497,-4.7497,-4.7497,-4.7497,-4.7497,-4.7497,-4.7497,-4.7497,-4.7497,-4.7497,-4.7497,-4.7497,-4.7497,-4.7497,-4.7497,-4.7497,-4.7497,-4.7497,-4.7497,-4.7497,-4.7497,-5.0412,-5.0696,-5.0696,-5.0696,-5.0696,-5.0696,-5.0696,-5.0696,-5.0696,-5.0696,-5.0696,-5.0696,-5.0696,-5.0696,-5.0696,-5.0696,-5.0696,-5.0696,-5.0696,-5.0696,-5.0696,-5.0696,-5.0696,-5.0696,-5.0696,-5.0696,-5.0696,-5.0696,-5.0696,-5.0696,-5.0696,-5.0696,-5.0696,-5.0696,-5.0696,-5.0696,-5.0696,-5.0696,-5.0696,-5.0696,-5.0696,-5.0696,-5.0696,-5.0696,-5.0696,-5.0696,-5.0696,-5.0551,-5.0287,-5.007,-4.9782,-4.9517,-4.9517,-4.9325,-4.9084,-4.9084,-4.8916,-4.8724,-4.8724,-4.8555,-4.8387,-4.8387,-4.8387,-4.8387,-4.8387,-4.8387,-4.8219,-4.7617,-4.7497,-4.7497,-4.7497,-4.7497,-4.7497,-4.7497,-4.7497,-4.7497,-4.7497,-4.7497,-4.7497,-4.7497,-4.7497,-4.7497,-4.7497,-4.7497,-4.7497,-4.7497,-4.7497,-4.7497,-4.7497,-4.7497,-4.7497,-4.7497,-4.7497,-4.7497,-4.7497,-4.7497,-4.7497,-4.7497,-4.7497,-4.7497,-4.7497,-4.7497,-4.7497,-4.7497,-4.7497,-4.7497,-4.7497,-4.7497,-4.7497,-4.7497,-4.7497,-4.7497,-4.7497,-4.7497,-4.7497,-4.7497]},{"header":{"parameterUnit":"m.s-1","parameterCategory":1,"la1":30.6,"la2":28.766,"lo1":-90.7593,"lo2":-88.6598,"dy":0.0162,"dx":0.0183,"nx":116,"ny":114,"refTime":"2023-03-27T06:00:00:Z","depth":0,"parameterNumber":3,"parameterNumberName":"V-component_of_WINDS"},"data":[0.0,0.0,0.0,0.0,0.0,0.0,0.0,0.0,0.0,0.0,0.0,0.0,0.0,0.0,0.0,0.0,0.0,0.0,0.0,0.0,0.0,0.0,0.0,0.0,0.0,0.0,0.0,0.0,0.0,0.0,0.0,0.0,0.0,0.0,0.0,0.0,0.0,0.0,0.0,0.0,0.0,0.0,0.0,0.0,0.0,0.0,0.0,0.0,0.0,0.0,0.0,0.0,0.0,0.0,0.0,0.0,0.0,0.0,0.0,0.0,0.0,0.0,0.0,0.0,0.0,0.0,0.0,0.0,0.0,0.0,0.0,0.0,0.0,0.0,0.0,0.0,0.0,0.0,0.0,0.0,0.0,0.0,0.0,0.0,0.0,0.0,0.0,0.0,0.0,0.0,0.0,0.0,0.0,0.0,0.0,0.0,0.0,0.0,0.0,0.0,0.0,0.0,0.0,0.0,0.0,0.0,0.0,0.0,0.0,0.0,0.0,0.0,0.0,0.0,0.0,0.0,0.0,0.0,0.0,0.0,0.0,0.0,0.0,0.0,0.0,0.0,0.0,0.0,0.0,0.0,0.0,0.0,0.0,0.0,0.0,0.0,0.0,0.0,0.0,0.0,0.0,0.0,0.0,0.0,0.0,0.0,0.0,0.0,0.0,0.0,0.0,0.0,0.0,0.0,0.0,0.0,0.0,0.0,0.0,0.0,0.0,0.0,0.0,0.0,0.0,0.0,0.0,0.0,0.0,0.0,0.0,0.0,0.0,0.0,0.0,0.0,0.0,0.0,0.0,0.0,0.0,0.0,0.0,0.0,0.0,0.0,0.0,0.0,0.0,0.0,0.0,0.0,0.0,0.0,0.0,0.0,0.0,0.0,0.0,0.0,0.0,0.0,0.0,0.0,0.0,0.0,0.0,0.0,0.0,0.0,0.0,0.0,0.0,0.0,0.0,0.0,0.0,0.0,0.0,0.0,0.0,0.0,0.0,0.0,0.0,0.0,0.0,0.0,0.0,0.0,0.0,0.0,0.0,0.0,0.0,0.0,0.0,0.0,0.0,0.0,0.0,0.0,0.0,0.0,0.0,0.0,0.0,0.0,0.0,0.0,0.0,0.0,0.0,0.0,0.0,0.0,0.0,0.0,0.0,0.0,0.0,0.0,0.0,0.0,0.0,0.0,0.0,0.0,0.0,0.0,0.0,0.0,0.0,0.0,0.0,0.0,0.0,0.0,0.0,0.0,0.0,0.0,0.0,0.0,0.0,0.0,0.0,0.0,0.0,0.0,0.0,0.0,0.0,0.0,0.0,0.0,0.0,0.0,0.0,0.0,0.0,0.0,0.0,0.0,0.0,0.0,0.0,0.0,0.0,0.0,0.0,0.0,0.0,0.0,0.0,0.0,0.0,0.0,0.0,0.0,0.0,0.0,0.0,0.0,0.0,0.0,0.0,0.0,0.0,0.0,0.0,0.0,0.0,0.0,0.0,0.0,0.0,0.0,0.0,0.0,0.0,0.0,0.0,0.0,0.0,0.0,0.0,0.0,0.0,0.0,0.0,0.0,0.0,0.0,0.0,0.0,0.0,0.0,0.0,0.0,0.0,0.0,0.0,0.0,0.0,0.0,0.0,0.0,0.0,0.0,0.0,0.0,0.0,0.0,0.0,0.0,0.0,0.0,0.0,0.0,0.0,0.0,0.0,0.0,0.0,0.0,0.0,0.0,0.0,0.0,0.0,0.0,0.0,0.0,0.0,0.0,0.0,0.0,0.0,0.0,0.0,0.0,0.0,0.0,0.0,0.0,0.0,0.0,0.0,0.0,0.0,0.0,0.0,0.0,0.0,0.0,0.0,0.0,0.0,0.0,0.0,0.0,0.0,0.0,0.0,0.0,0.0,0.0,0.0,0.0,0.0,0.0,0.0,0.0,0.0,0.0,0.0,0.0,0.0,0.0,0.0,0.0,0.0,0.0,0.0,0.0,0.0,0.0,0.0,0.0,0.0,0.0,0.0,0.0,0.0,0.0,0.0,0.0,0.0,0.0,0.0,0.0,0.0,0.0,0.0,0.0,0.0,0.0,0.0,0.0,0.0,0.0,0.0,0.0,0.0,0.0,0.0,0.0,0.0,0.0,0.0,0.0,0.0,0.0,0.0,0.0,0.0,0.0,0.0,0.0,0.0,0.0,0.0,0.0,0.0,0.0,0.0,0.0,0.0,0.0,0.0,0.0,0.0,0.0,0.0,0.0,0.0,0.0,0.0,0.0,0.0,0.0,0.0,0.0,0.0,0.0,0.0,0.0,0.0,0.0,0.0,0.0,0.0,0.0,0.0,0.0,0.0,0.0,0.0,0.0,0.0,0.0,0.0,0.0,0.0,0.0,0.0,0.0,0.0,0.0,0.0,0.0,0.0,0.0,0.0,0.0,0.0,0.0,0.0,0.0,0.0,0.0,0.0,0.0,0.0,0.0,0.0,0.0,0.0,0.0,0.0,0.0,0.0,0.0,0.0,0.0,0.0,0.0,0.0,0.0,0.0,0.0,0.0,0.0,0.0,0.0,0.0,0.0,0.0,0.0,0.0,0.0,0.0,0.0,0.0,0.0,0.0,0.0,0.0,0.0,0.0,0.0,0.0,0.0,0.0,0.0,0.0,0.0,0.0,0.0,0.0,0.0,0.0,0.0,0.0,0.0,0.0,0.0,0.0,0.0,0.0,0.0,0.0,0.0,0.0,0.0,0.0,0.0,0.0,0.0,0.0,0.0,0.0,0.0,0.0,0.0,0.0,0.0,0.0,0.0,0.0,0.0,0.0,0.0,0.0,0.0,0.0,0.0,0.0,0.0,0.0,0.0,0.0,0.0,0.0,0.0,0.0,0.0,0.0,0.0,0.0,0.0,0.0,0.0,0.0,0.0,0.0,0.0,0.0,0.0,0.0,0.0,0.0,0.0,0.0,0.0,0.0,0.0,0.0,0.0,0.0,0.0,0.0,0.0,0.0,0.0,0.0,0.0,0.0,0.0,0.0,0.0,0.0,0.0,0.0,0.0,0.0,0.0,0.0,0.0,0.0,0.0,0.0,0.0,0.0,0.0,0.0,0.0,0.0,0.0,0.0,0.0,0.0,0.0,0.0,0.0,0.0,0.0,0.0,0.0,0.0,0.0,0.0,0.0,0.0,0.0,0.0,0.0,0.0,0.0,0.0,0.0,0.0,0.0,0.0,0.0,0.0,0.0,0.0,0.0,0.0,0.0,0.0,0.0,0.0,0.0,0.0,0.0,0.0,0.0,0.0,0.0,0.0,0.0,0.0,0.0,0.0,0.0,0.0,0.0,0.0,0.0,0.0,0.0,0.0,0.0,0.0,0.0,0.0,0.0,0.0,0.0,0.0,0.0,0.0,0.0,0.0,0.0,0.0,0.0,0.0,0.0,0.0,0.0,0.0,0.0,0.0,0.0,0.0,0.0,0.0,0.0,0.0,0.0,0.0,0.0,0.0,0.0,0.0,0.0,0.0,0.0,0.0,0.0,0.0,0.0,0.0,0.0,0.0,0.0,0.0,0.0,0.0,0.0,0.0,0.0,0.0,0.0,0.0,0.0,0.0,0.0,0.0,0.0,0.0,0.0,0.0,0.0,0.0,0.0,0.0,0.0,0.0,0.0,0.0,0.0,0.0,0.0,0.0,0.0,0.0,0.0,0.0,0.0,0.0,0.0,0.0,0.0,0.0,0.0,0.0,0.0,0.0,0.0,0.0,0.0,0.0,0.0,0.0,0.0,0.0,0.0,0.0,0.0,0.0,0.0,0.0,0.0,0.0,0.0,0.0,0.0,0.0,0.0,0.0,0.0,0.0,0.0,0.0,0.0,0.0,0.0,0.0,0.0,0.0,0.0,0.0,0.0,0.0,0.0,0.0,0.0,0.0,0.0,0.0,0.0,0.0,0.0,0.0,0.0,0.0,0.0,0.0,0.0,0.0,0.0,0.0,0.0,0.0,0.0,0.0,0.0,0.0,0.0,0.0,0.0,0.0,0.0,0.0,0.0,0.0,0.0,0.0,0.0,0.0,0.0,0.0,0.0,0.0,0.0,0.0,0.0,0.0,0.0,0.0,0.0,0.0,0.0,0.0,0.0,0.0,0.0,0.0,0.0,0.0,0.0,0.0,0.0,0.0,0.0,0.0,0.0,0.0,0.0,0.0,0.0,0.0,0.0,0.0,0.0,0.0,0.0,0.0,0.0,0.0,0.0,0.0,0.0,0.0,0.0,0.0,0.0,0.0,0.0,0.0,0.0,0.0,0.0,0.0,0.0,0.0,0.0,0.0,0.0,0.0,0.0,0.0,0.0,0.0,0.0,0.0,0.0,0.0,0.0,0.0,0.0,0.0,0.0,0.0,0.0,0.0,0.0,0.0,0.0,0.0,0.0,0.0,0.0,0.0,0.0,0.0,0.0,0.0,0.0,0.0,0.0,0.0,0.0,0.0,0.0,0.0,0.0,0.0,0.0,0.0,0.0,0.0,0.0,0.0,0.0,0.0,0.0,0.0,0.0,0.0,0.0,0.0,0.0,0.0,0.0,0.0,0.0,0.0,0.0,0.0,0.0,0.0,0.0,0.0,0.0,0.0,0.0,0.0,0.0,0.0,0.0,0.0,0.0,0.0,0.0,0.0,0.0,0.0,0.0,0.0,0.0,0.0,0.0,0.0,0.0,0.0,0.0,0.0,0.0,0.0,0.0,0.0,0.0,0.0,0.0,0.0,0.0,0.0,0.0,0.0,0.0,0.0,0.0,0.0,0.0,0.0,0.0,0.0,0.0,0.0,0.0,0.0,0.0,0.0,0.0,0.0,0.0,0.0,0.0,0.0,0.0,0.0,0.0,0.0,0.0,0.0,0.0,0.0,0.0,0.0,0.0,0.0,0.0,0.0,0.0,0.0,0.0,0.0,0.0,0.0,0.0,0.0,0.0,0.0,0.0,0.0,0.0,0.0,0.0,0.0,0.0,0.0,0.0,0.0,0.0,0.0,0.0,0.0,0.0,0.0,0.0,0.0,0.0,0.0,0.0,0.0,0.0,0.0,0.0,0.0,0.0,0.0,0.0,0.0,0.0,0.0,0.0,0.0,0.0,0.0,0.0,0.0,0.0,0.0,0.0,0.0,0.0,0.0,0.0,0.0,0.0,0.0,0.0,0.0,0.0,0.0,0.0,0.0,0.0,0.0,0.0,0.0,0.0,0.0,0.0,0.0,0.0,0.0,0.0,0.0,0.0,0.0,0.0,0.0,0.0,0.0,0.0,0.0,0.0,0.0,0.0,0.0,0.0,0.0,0.0,0.0,0.0,0.0,0.0,0.0,0.0,0.0,0.0,0.0,0.0,0.0,0.0,0.0,0.0,0.0,0.0,0.0,0.0,0.0,0.0,0.0,0.0,0.0,0.0,0.0,0.0,0.0,0.0,0.0,0.0,0.0,0.0,0.0,0.0,0.0,0.0,0.0,0.0,0.0,0.0,0.0,0.0,0.0,0.0,0.0,0.0,0.0,0.0,0.0,0.0,0.0,0.0,0.0,0.0,0.0,0.0,0.0,0.0,0.0,0.0,0.0,0.0,0.0,0.0,0.0,0.0,0.0,0.0,0.0,0.0,0.0,0.0,0.0,0.0,0.0,0.0,0.0,0.0,0.0,0.0,0.0,0.0,0.0,0.0,0.0,0.0,0.0,0.0,0.0,0.0,0.0,0.0,0.0,0.0,0.0,0.0,0.0,0.0,0.0,0.0,0.0,0.0,0.0,0.0,0.0,0.0,0.0,0.0,0.0,0.0,0.0,0.0,0.0,0.0,0.0,0.0,0.0,0.0,0.0,0.0,0.0,0.0,0.0,0.0,0.0,0.0,0.0,0.0,0.0,0.0,0.0,0.0,0.0,0.0,0.0,0.0,0.0,0.0,0.0,0.0,0.0,0.0,0.0,0.0,0.0,0.0,0.0,0.0,0.0,0.0,0.0,0.0,0.0,0.0,0.0,0.0,0.0,0.0,0.0,0.0,0.0,0.0,0.0,0.0,0.0,0.0,0.0,0.0,0.0,0.0,0.0,0.0,0.0,0.0,0.0,0.0,0.0,0.0,0.0,0.0,4.1196,4.1287,0.0,0.0,0.0,0.0,0.0,0.0,0.0,0.0,0.0,0.0,0.0,0.0,0.0,0.0,0.0,0.0,0.0,0.0,0.0,0.0,0.0,0.0,0.0,0.0,0.0,0.0,0.0,0.0,0.0,0.0,0.0,0.0,0.0,0.0,0.0,0.0,0.0,0.0,4.461,4.461,4.461,4.461,4.461,4.461,0.0,0.0,0.0,0.0,0.0,0.0,0.0,0.0,0.0,0.0,0.0,0.0,0.0,0.0,0.0,0.0,0.0,0.0,0.0,0.0,0.0,0.0,0.0,0.0,0.0,0.0,0.0,0.0,0.0,0.0,0.0,0.0,0.0,0.0,0.0,0.0,0.0,0.0,0.0,0.0,0.0,0.0,0.0,0.0,0.0,0.0,0.0,0.0,0.0,0.0,0.0,0.0,0.0,0.0,0.0,0.0,0.0,0.0,0.0,0.0,0.0,0.0,0.0,0.0,0.0,0.0,0.0,0.0,0.0,0.0,4.2182,4.2054,0.0,0.0,0.0,0.0,0.0,0.0,0.0,0.0,0.0,0.0,0.0,0.0,0.0,0.0,0.0,0.0,0.0,0.0,0.0,0.0,0.0,0.0,0.0,0.0,4.461,4.461,4.461,0.0,0.0,0.0,0.0,0.0,0.0,0.0,0.0,0.0,0.0,4.461,4.461,4.461,4.461,4.461,4.461,4.461,4.461,0.0,0.0,0.0,0.0,0.0,0.0,0.0,0.0,0.0,0.0,0.0,0.0,0.0,0.0,0.0,0.0,0.0,0.0,0.0,0.0,0.0,0.0,0.0,0.0,0.0,0.0,0.0,0.0,0.0,0.0,0.0,0.0,0.0,0.0,0.0,0.0,0.0,0.0,0.0,0.0,0.0,0.0,0.0,0.0,0.0,0.0,0.0,0.0,0.0,0.0,0.0,0.0,0.0,0.0,0.0,0.0,0.0,0.0,0.0,0.0,0.0,0.0,0.0,4.4104,4.4104,4.4065,4.4104,4.4181,4.4205,4.2992,4.2765,4.3183,4.2636,0.0,0.0,0.0,0.0,0.0,0.0,0.0,0.0,0.0,0.0,0.0,0.0,0.0,0.0,0.0,0.0,0.0,0.0,0.0,0.0,0.0,4.461,4.461,4.461,4.461,4.461,0.0,0.0,0.0,0.0,0.0,0.0,0.0,4.461,4.461,4.461,4.461,4.461,4.461,4.461,4.461,4.461,4.461,4.461,4.461,0.0,0.0,0.0,0.0,0.0,0.0,0.0,0.0,0.0,0.0,0.0,0.0,0.0,0.0,0.0,0.0,0.0,0.0,0.0,0.0,0.0,0.0,0.0,0.0,0.0,0.0,0.0,0.0,0.0,0.0,0.0,0.0,0.0,0.0,0.0,0.0,0.0,0.0,0.0,0.0,0.0,4.1984,4.2652,0.0,0.0,0.0,0.0,0.0,0.0,0.0,0.0,0.0,0.0,0.0,0.0,0.0,4.3988,4.3988,4.4181,4.4228,4.4228,4.4419,4.4419,4.4297,4.4419,4.4419,4.4305,4.4273,0.0,4.4106,4.4014,0.0,0.0,0.0,0.0,0.0,0.0,0.0,0.0,0.0,0.0,0.0,0.0,0.0,0.0,0.0,0.0,0.0,0.0,0.0,0.0,0.0,4.461,4.461,4.461,4.461,4.461,4.461,0.0,0.0,0.0,0.0,0.0,4.461,4.461,4.461,4.461,4.461,4.461,4.461,4.461,4.461,4.461,4.461,4.461,4.461,4.461,0.0,0.0,0.0,0.0,0.0,0.0,0.0,0.0,0.0,0.0,0.0,0.0,0.0,0.0,0.0,0.0,0.0,0.0,0.0,0.0,0.0,0.0,0.0,0.0,0.0,0.0,0.0,0.0,0.0,0.0,0.0,0.0,0.0,0.0,0.0,0.0,0.0,0.0,0.0,4.2284,4.2765,4.3295,4.3472,4.3731,0.0,0.0,0.0,0.0,0.0,0.0,0.0,0.0,0.0,4.4374,4.4374,4.4374,4.4374,4.4419,4.4458,4.4458,4.4934,4.5118,4.5041,4.5487,4.5672,4.5594,4.5672,4.5672,4.5532,4.4765,4.4343,4.4181,0.0,0.0,0.0,0.0,4.4065,4.4181,0.0,0.0,0.0,0.0,0.0,0.0,0.0,0.0,0.0,0.0,0.0,0.0,4.461,4.461,4.461,4.461,4.461,4.461,4.461,4.461,0.0,0.0,0.0,4.461,4.461,4.461,4.461,4.461,4.461,4.461,4.461,4.461,4.461,4.461,4.461,4.461,4.461,4.461,4.461,0.0,0.0,0.0,0.0,0.0,0.0,0.0,0.0,0.0,0.0,0.0,0.0,0.0,0.0,0.0,0.0,0.0,0.0,0.0,0.0,0.0,0.0,0.0,0.0,0.0,0.0,0.0,0.0,0.0,0.0,0.0,0.0,0.0,0.0,0.0,0.0,0.0,0.0,4.3172,4.3532,4.3833,4.3999,4.422,0.0,0.0,0.0,0.0,0.0,0.0,4.4381,4.4496,4.461,4.461,4.4795,4.4887,4.4887,4.5041,4.5095,4.5133,4.5618,4.5834,4.5865,4.6357,4.6603,4.6603,4.6603,4.6603,4.6511,4.5311,4.4772,4.4626,4.4473,4.4297,4.4143,4.4143,4.4258,4.4412,0.0,0.0,0.0,0.0,0.0,0.0,0.0,0.0,0.0,0.0,0.0,4.461,4.461,4.461,4.461,4.461,4.461,4.461,4.461,4.461,4.461,4.461,4.461,4.461,4.461,4.461,4.461,4.461,4.461,4.461,4.461,4.461,4.461,4.461,4.461,4.461,4.461,4.461,4.461,4.461,0.0,0.0,0.0,0.0,0.0,0.0,0.0,0.0,0.0,0.0,0.0,0.0,0.0,0.0,0.0,0.0,0.0,0.0,0.0,0.0,0.0,0.0,0.0,0.0,0.0,0.0,0.0,0.0,0.0,0.0,0.0,0.0,0.0,0.0,0.0,0.0,0.0,0.0,0.0,4.4579,4.4572,0.0,0.0,0.0,0.0,4.4572,4.4572,4.4572,4.4572,4.4572,4.461,4.461,4.5226,4.5526,4.5526,4.6172,4.648,4.648,4.6542,4.6542,4.6542,4.6573,4.6603,4.6603,4.6603,4.6603,4.6542,4.5834,4.5526,4.5464,4.4818,4.4572,4.4572,4.4572,4.4572,4.4572,0.0,0.0,0.0,0.0,0.0,0.0,0.0,0.0,0.0,4.461,4.461,4.461,4.461,4.461,4.461,4.461,4.461,4.461,4.461,4.461,4.461,4.461,4.461,4.461,4.461,4.461,4.461,4.461,4.461,4.461,4.461,4.461,4.461,4.461,4.461,4.461,4.461,4.461,4.461,4.461,4.461,4.461,0.0,0.0,0.0,0.0,0.0,0.0,0.0,0.0,0.0,0.0,0.0,0.0,0.0,0.0,0.0,0.0,0.0,0.0,0.0,0.0,0.0,0.0,0.0,0.0,0.0,0.0,0.0,0.0,0.0,0.0,0.0,0.0,0.0,0.0,0.0,0.0,0.0,4.461,4.461,0.0,4.461,4.461,4.461,4.461,4.461,4.4795,4.5218,4.5218,4.5434,4.5865,4.6111,4.6234,4.6234,4.648,4.6603,4.6603,4.7034,4.725,4.725,4.7681,4.7896,4.7896,4.7896,4.7896,4.7835,4.7157,4.6634,4.6203,4.5957,4.5865,4.5865,4.5865,4.5865,4.5865,0.0,0.0,0.0,0.0,0.0,0.0,0.0,0.0,4.461,4.461,4.461,4.461,4.461,4.461,4.461,4.461,4.461,4.461,4.461,4.461,4.461,4.461,4.461,4.461,4.461,4.461,4.461,4.461,4.461,4.461,4.461,4.461,4.461,4.461,4.461,4.461,4.461,4.461,4.461,4.461,4.461,4.461,4.461,0.0,0.0,0.0,0.0,0.0,0.0,0.0,0.0,0.0,0.0,0.0,0.0,0.0,0.0,0.0,0.0,0.0,0.0,0.0,0.0,0.0,0.0,0.0,0.0,0.0,0.0,0.0,0.0,0.0,0.0,0.0,0.0,0.0,0.0,4.461,4.461,4.461,4.461,4.461,4.461,4.4825,4.4949,4.4949,4.5126,4.5464,4.5895,4.5926,4.6142,4.6573,4.6819,4.6942,4.6942,4.7157,4.7281,4.7281,4.7742,4.7958,4.7958,4.8419,4.8604,4.8604,4.8604,4.8604,4.8573,4.8142,4.7681,4.7219,4.6788,4.6603,4.6603,4.6603,4.6603,4.6603,0.0,0.0,0.0,0.0,0.0,0.0,0.0,4.461,4.461,4.461,4.461,4.461,4.461,4.461,4.461,4.461,4.461,4.461,4.461,4.461,4.461,4.461,4.461,4.461,4.461,4.461,4.461,4.461,4.4641,4.4641,4.4603,4.4671,4.4671,4.4641,4.4641,4.4641,4.461,4.461,4.461,4.461,4.461,4.461,4.461,0.0,0.0,0.0,0.0,0.0,0.0,0.0,0.0,0.0,0.0,0.0,0.0,0.0,0.0,0.0,0.0,0.0,0.0,0.0,0.0,0.0,0.0,0.0,0.0,0.0,0.0,0.0,0.0,0.0,0.0,0.0,0.0,0.0,4.461,4.461,4.4641,4.4641,4.4641,4.4641,4.4671,4.5249,4.5618,4.5618,4.6234,4.6603,4.6634,4.6634,4.6634,4.6665,4.7281,4.7619,4.7619,4.8296,4.8635,4.8635,4.8635,4.8666,4.8696,4.8696,4.8696,4.8696,4.8696,4.8696,4.8696,4.8696,4.8696,4.8543,4.7188,4.6665,4.6665,4.6665,4.6665,4.6665,0.0,0.0,0.0,0.0,0.0,0.0,0.0,4.461,4.461,4.461,4.461,4.461,4.461,4.461,4.461,4.461,4.461,4.461,4.461,4.461,4.461,4.461,4.461,4.461,4.461,4.461,4.461,4.461,4.5064,4.5311,4.5311,4.5803,4.5772,4.5311,4.5311,4.5072,4.461,4.461,4.461,4.461,4.461,4.461,4.461,0.0,0.0,0.0,0.0,0.0,0.0,0.0,0.0,0.0,0.0,0.0,0.0,0.0,0.0,0.0,0.0,0.0,0.0,0.0,0.0,0.0,0.0,0.0,0.0,0.0,0.0,0.0,0.0,0.0,0.0,0.0,4.461,4.461,4.461,4.461,4.4795,4.5249,4.5311,4.5495,4.5988,4.6203,4.6326,4.6326,4.648,4.6819,4.7311,4.7342,4.7558,4.805,4.8235,4.8327,4.8327,4.8512,4.8881,4.9404,4.9404,4.9651,5.0112,5.0112,5.0112,5.0112,5.0112,5.0112,5.0112,5.0112,5.0112,4.9989,4.8604,4.805,4.805,4.805,4.805,4.805,0.0,0.0,0.0,0.0,0.0,0.0,0.0,4.461,4.461,4.461,4.461,4.461,4.461,4.461,4.461,4.461,4.461,4.461,4.461,4.461,4.461,4.461,4.461,4.461,4.461,4.4887,4.5003,4.5003,4.568,4.6018,4.6018,4.6419,4.6388,4.6018,4.6018,4.5649,4.5003,4.5003,4.4849,4.461,4.461,4.461,4.461,4.461,4.461,4.461,4.461,4.461,4.461,4.461,0.0,0.0,0.0,0.0,0.0,0.0,0.0,0.0,0.0,0.0,0.0,0.0,0.0,0.0,0.0,0.0,0.0,0.0,0.0,0.0,0.0,0.0,0.0,0.0,4.4856,4.5003,4.5003,4.5003,4.5157,4.5526,4.5834,4.6172,4.6542,4.685,4.7034,4.7034,4.7281,4.7619,4.8019,4.8019,4.8204,4.8604,4.8604,4.8758,4.9066,4.9066,4.9404,5.0112,5.0112,5.0328,5.0697,5.0697,5.0697,5.0697,5.0697,5.0697,5.0697,5.0697,5.0697,5.0574,0.0,0.0,0.0,0.0,4.8604,4.8604,0.0,0.0,0.0,0.0,0.0,0.0,0.0,4.4572,4.4572,4.461,4.461,4.461,4.461,4.461,4.461,4.461,4.461,4.461,4.461,4.461,4.461,4.461,4.461,4.461,4.461,4.5249,4.5588,4.5588,4.6357,4.6696,4.6696,4.6788,4.6788,4.6696,4.6696,4.6296,4.5588,4.5588,4.5187,4.461,4.461,4.461,4.461,4.461,4.461,4.461,4.461,4.461,4.461,4.461,0.0,0.0,0.0,0.0,0.0,0.0,0.0,0.0,0.0,0.0,0.0,0.0,0.0,0.0,0.0,0.0,0.0,0.0,0.0,0.0,0.0,0.0,0.0,0.0,4.5187,4.5618,4.568,4.5772,4.5803,4.5803,4.6357,4.6726,4.6819,4.7373,4.7711,4.7711,4.8266,4.8604,4.8604,4.8604,0.0,0.0,0.0,4.9066,4.9805,4.9805,5.0143,5.082,5.082,5.0851,5.0913,5.0913,5.0913,5.0913,5.0913,5.0913,5.0913,5.0913,5.0882,5.0759,5.0051,4.9805,4.9712,4.9097,4.885,4.885,0.0,0.0,0.0,0.0,0.0,0.0,0.0,4.4343,4.4419,4.4572,4.461,4.461,4.461,4.461,4.461,4.461,4.461,4.461,4.461,4.461,4.461,4.461,4.461,4.461,4.461,4.5249,4.5588,4.5588,4.6819,4.7404,4.7434,4.7958,4.7927,4.7404,4.7404,4.6726,4.5588,4.5588,4.5187,4.461,4.461,4.461,4.461,4.461,4.461,4.461,4.461,4.461,4.461,4.461,4.461,4.461,4.461,0.0,0.0,0.0,0.0,0.0,0.0,0.0,0.0,0.0,0.0,0.0,0.0,0.0,0.0,0.0,0.0,0.0,0.0,0.0,0.0,4.5311,4.5495,4.5772,4.6326,4.688,4.7219,4.7219,4.7342,4.7619,4.8173,4.8327,4.8419,4.8419,4.8543,4.8604,4.8604,4.8604,4.8881,4.9466,4.9497,4.9805,5.0482,5.0513,5.082,5.1498,5.1498,0.0,5.2329,5.2329,5.2329,5.2329,5.2329,5.2329,5.2329,5.2329,5.199,5.1436,5.0759,5.0513,5.0482,5.0359,5.0297,5.0297,0.0,0.0,0.0,0.0,0.0,0.0,0.0,4.4297,4.4343,4.4572,4.461,4.461,4.461,4.461,4.461,4.461,4.461,4.461,4.461,4.461,4.461,4.461,4.461,4.4764,4.5064,4.5741,4.6265,4.6603,4.7619,4.8112,4.8112,4.845,4.8419,4.8112,4.8112,4.7373,4.608,4.608,4.5495,4.461,4.461,4.461,4.461,4.461,4.461,4.461,4.461,4.461,4.461,4.461,4.461,4.461,4.461,4.461,4.461,0.0,0.0,0.0,0.0,0.0,0.0,0.0,0.0,0.0,0.0,0.0,0.0,0.0,0.0,4.461,4.461,0.0,4.5187,4.5526,4.6142,4.6726,4.7065,4.7681,4.7989,4.765,4.7896,4.8235,4.8573,4.8604,4.8604,4.8604,4.8604,4.8758,4.9127,4.9158,4.9466,5.0174,5.0205,5.0513,5.119,5.119,5.1528,5.2206,5.2206,5.239,5.2698,5.2698,5.2698,5.2698,5.2698,5.2698,5.2698,5.2698,5.2513,5.2175,5.1836,5.1282,5.0697,5.0697,5.0697,5.0697,0.0,0.0,0.0,0.0,0.0,0.0,0.0,0.0,4.4297,4.4496,4.4496,4.4496,4.4572,4.4572,4.4534,4.461,4.461,4.461,4.461,4.461,4.461,4.461,4.461,4.4856,4.5372,4.6049,4.6726,4.7404,4.8081,4.8481,4.8604,4.8604,4.8604,4.8604,4.8481,4.7742,4.6573,4.6449,4.5711,4.461,4.461,4.461,4.461,4.461,4.461,4.461,4.461,4.461,4.461,4.461,4.461,4.461,4.461,4.461,4.461,4.461,4.461,0.0,0.0,0.0,0.0,0.0,0.0,0.0,0.0,4.461,4.461,4.461,4.461,4.4641,4.4756,4.5218,4.568,4.5926,4.6911,4.765,4.7773,4.8266,4.8419,4.7865,4.8296,4.8604,4.8604,4.8604,4.8604,4.8604,4.8758,4.9066,4.9651,4.9805,5.0205,5.0882,5.0882,5.1221,5.1898,5.1898,5.2175,5.2698,5.2698,5.2698,5.2698,5.2698,5.2698,5.2698,5.2698,5.2698,5.2698,5.2698,5.2698,5.2698,5.2698,5.2052,5.1097,5.1097,5.1097,5.1097,0.0,0.0,0.0,0.0,0.0,0.0,0.0,0.0,0.0,4.4266,4.4181,4.422,4.4572,4.4419,4.4381,4.4572,4.461,4.461,4.461,4.461,4.461,4.461,4.461,4.4641,4.4733,4.5372,4.6018,4.6696,4.7373,4.8019,4.8604,4.8604,4.8604,4.8573,4.7989,4.7311,4.6542,4.5957,4.528,4.461,4.461,4.461,4.461,4.461,4.461,4.461,4.461,4.461,4.461,4.461,4.461,4.461,4.461,4.461,4.461,4.461,4.461,4.461,4.461,4.461,4.461,4.461,4.461,4.461,0.0,4.461,4.461,4.461,4.461,4.4756,4.5372,4.5526,4.5988,4.7188,4.7496,4.7804,4.8419,4.8573,4.8573,4.8512,4.8573,4.8604,4.8604,4.8604,4.8604,4.8604,4.922,4.9589,4.9682,5.0266,5.0882,5.1559,5.159,5.1929,5.2606,5.2606,5.2637,5.2698,5.2698,5.2698,5.2698,5.2698,5.2698,5.2698,5.2698,5.2698,5.2698,5.2698,5.2698,5.2698,5.2698,5.2637,5.2483,5.2483,5.2483,5.2483,0.0,0.0,0.0,0.0,0.0,0.0,0.0,0.0,0.0,0.0,4.4065,4.4065,4.4258,4.4181,4.422,4.4381,4.4419,4.4458,4.4572,4.461,4.461,4.461,4.461,4.4756,4.5157,4.5434,4.5926,4.6603,4.688,4.7157,4.7434,4.7434,4.7434,4.7434,4.7127,4.6634,4.5988,4.5711,4.5187,4.461,4.461,4.461,4.461,4.461,4.461,4.461,4.461,4.461,0.0,0.0,4.461,4.461,4.461,4.461,4.461,4.461,4.461,4.461,4.461,4.461,4.461,4.461,4.461,4.461,4.461,4.461,4.461,4.461,4.488,4.5249,4.5526,4.6234,4.6942,4.7527,4.7927,4.8296,4.8573,4.8604,4.8604,4.8604,4.8604,4.8604,4.8604,4.8604,4.8789,4.922,4.9528,5.002,5.082,5.1128,5.159,5.2267,5.2298,5.2421,5.2698,5.2698,5.2698,5.2698,5.2698,5.2698,5.2698,5.2698,5.2698,5.2698,5.2698,5.2698,5.2698,5.2698,5.2698,5.2698,5.2698,5.2698,5.2698,5.2698,5.2698,5.2698,0.0,0.0,0.0,0.0,0.0,0.0,0.0,0.0,0.0,0.0,0.0,4.3832,4.391,4.3988,4.4065,4.422,4.422,4.4297,4.4496,4.4496,4.4534,4.461,4.461,4.4856,4.5311,4.5311,4.5649,4.6326,4.6326,4.6419,4.6603,4.6603,4.6603,4.6573,4.6419,4.6049,4.5588,4.5372,4.5033,4.461,4.461,4.461,4.461,4.461,4.461,4.461,4.461,4.461,0.0,0.0,4.461,4.461,4.461,4.461,4.461,4.461,4.461,4.461,4.461,4.461,4.461,4.461,4.461,4.461,4.461,4.461,4.4671,4.4856,4.5249,4.5711,4.608,4.6942,4.7681,4.7865,4.8296,4.8604,4.8604,4.8604,4.8604,4.8604,4.8604,4.8604,4.8604,4.8789,4.9127,4.9651,5.002,5.0667,5.1652,5.1898,5.2206,5.2698,5.2698,5.2698,5.2698,5.2698,5.2698,5.2698,5.2698,5.2698,5.2698,5.2698,5.2698,5.2698,5.2698,5.2821,5.3006,5.3006,5.3098,5.3283,5.3283,5.3283,5.3283,5.3283,5.3037,5.2698,0.0,0.0,0.0,0.0,0.0,0.0,0.0,0.0,0.0,0.0,0.0,0.0,0.0,4.3871,4.3988,4.4026,4.4026,4.4104,4.4297,4.4335,4.4381,4.4572,4.461,4.4641,4.4641,4.4641,4.4941,4.5618,4.5618,4.5957,4.6603,4.6603,4.6603,4.6573,4.5926,4.5618,4.5557,4.488,4.4641,4.461,4.461,4.461,4.461,4.461,4.461,4.461,4.461,0.0,0.0,0.0,4.461,4.461,4.461,4.461,4.461,4.461,4.461,4.461,4.461,4.461,4.461,4.461,4.461,4.461,4.461,4.461,4.4756,4.5434,4.5588,4.5988,4.7311,4.7588,4.7804,4.8481,4.8604,4.8604,4.8604,4.8604,4.8604,4.8604,4.8604,4.8604,4.8604,4.9251,4.9651,4.9682,5.0882,5.1652,5.1713,5.2329,5.2698,5.2698,5.2698,5.2698,5.2698,5.2698,5.2698,5.2698,5.2698,5.2698,5.2698,5.2698,5.2698,5.2698,5.2698,5.3098,5.3637,5.3637,5.4037,5.4621,5.4621,5.4621,5.4621,5.4621,5.3837,5.2698,0.0,0.0,0.0,0.0,0.0,0.0,0.0,0.0,0.0,0.0,0.0,0.0,0.0,0.0,0.0,0.0,4.3793,4.3871,4.4104,4.4104,4.4181,4.4381,4.4381,4.4458,4.461,4.461,4.4733,4.4949,4.4949,4.5033,4.5249,4.5249,4.5249,4.5249,4.5033,4.4949,4.491,4.4702,4.461,4.461,4.461,4.461,4.461,4.461,4.461,4.461,0.0,0.0,0.0,0.0,0.0,4.461,4.461,4.461,4.461,4.461,4.461,4.461,4.461,4.461,4.461,4.461,4.461,4.461,4.461,4.491,4.5311,4.5526,4.6296,4.7065,4.7527,4.7958,4.8358,4.8573,4.8604,4.8604,4.8604,4.8604,4.8604,4.8604,4.8604,4.8789,4.9281,4.9528,4.9866,5.0328,5.119,5.1898,5.2359,5.2575,5.2698,5.2698,5.2698,5.2698,5.2698,5.2698,5.2698,5.2729,5.316,5.3375,5.3406,5.3791,5.4052,5.4052,5.4052,5.4176,5.4345,5.4345,5.4468,5.4683,5.4683,5.4683,5.4683,5.4683,5.4406,5.4052,0.0,0.0,0.0,0.0,0.0,0.0,0.0,0.0,0.0,0.0,0.0,0.0,0.0,0.0,0.0,0.0,0.0,4.3636,4.3871,4.391,4.3988,4.4151,4.422,4.4228,4.4381,4.4412,4.4419,4.4496,4.4496,4.4534,4.461,4.461,4.461,4.461,4.461,4.461,4.461,4.461,4.461,4.461,4.461,4.461,4.461,4.461,4.461,0.0,0.0,0.0,0.0,0.0,0.0,4.461,4.461,4.461,4.461,4.461,4.461,4.461,4.461,4.461,4.461,4.461,4.4795,4.4941,4.4941,4.5464,4.6018,4.6265,4.7004,4.7681,4.7927,4.8327,4.8604,4.8604,4.8604,4.8604,4.8604,4.8604,4.8604,4.8604,4.885,4.9189,4.9651,5.0112,5.0574,5.1005,5.1682,5.2267,5.2698,5.2698,5.2698,5.2698,5.2698,5.2698,5.2698,5.2698,5.2821,5.3067,5.3453,5.3837,5.4037,5.4468,5.4683,5.4683,5.4683,5.4806,5.5068,5.5068,5.5222,5.5468,5.5468,5.5468,5.5468,5.5468,5.5468,5.5376,0.0,0.0,0.0,0.0,0.0,0.0,0.0,0.0,0.0,0.0,0.0,0.0,0.0,0.0,0.0,0.0,0.0,0.0,4.3636,4.3675,4.3754,4.3988,4.3988,4.3988,4.3988,4.3988,4.4104,4.4297,4.4297,4.4381,4.461,4.461,4.461,4.461,4.461,4.461,4.461,4.461,4.461,4.461,4.461,4.461,4.461,4.461,0.0,0.0,0.0,0.0,0.0,4.461,4.461,4.461,4.461,4.461,4.461,4.461,4.461,4.461,4.461,4.4641,4.4671,4.4671,4.5164,4.5618,4.5588,4.6111,4.6788,4.7434,4.7588,4.7804,4.8481,4.8604,4.8604,4.8604,4.8604,4.8604,4.8604,4.8604,4.8635,4.8666,4.9281,4.9712,4.9774,5.0944,5.1713,5.1744,5.2359,5.2698,5.2698,5.2698,5.2698,5.2698,5.2698,5.2698,5.2698,5.276,5.3098,5.3775,5.3806,5.4145,5.4745,5.4775,5.4806,5.4806,5.4806,5.5191,5.5745,5.5745,5.6146,5.681,5.681,5.681,5.681,5.681,5.681,5.6625,0.0,0.0,0.0,0.0,0.0,0.0,0.0,0.0,0.0,0.0,0.0,0.0,0.0,0.0,0.0,0.0,0.0,0.0,4.3369,4.3369,4.3518,4.3754,4.3754,4.3832,4.3988,0.0,0.0,4.4297,4.4297,4.4381,4.461,4.461,4.461,4.461,4.461,4.461,4.461,4.461,4.461,4.461,0.0,4.461,4.461,0.0,0.0,0.0,0.0,0.0,4.461,4.461,4.461,4.461,4.461,4.461,4.461,4.461,4.461,4.461,4.461,4.4941,4.5341,4.5341,4.5834,4.6203,4.5711,4.6111,4.6634,4.6819,4.725,4.7804,4.8481,4.8604,4.8604,4.8604,4.8604,4.8604,4.8604,4.8604,4.882,4.9343,4.9589,5.0082,5.1097,5.1498,5.1929,5.2421,5.2606,5.2698,5.2698,5.2698,5.2698,5.2698,5.2698,5.2698,5.2698,5.3221,5.376,5.4437,5.4945,5.5284,5.5468,5.5992,5.6238,5.6238,5.6238,5.633,5.6532,5.6532,5.6656,5.681,5.681,5.681,5.681,5.681,5.681,5.6748,0.0,0.0,0.0,0.0,0.0,0.0,0.0,0.0,0.0,0.0,0.0,0.0,0.0,0.0,0.0,0.0,0.0,0.0,0.0,4.329,4.3369,4.3518,4.3518,4.3446,4.3331,0.0,0.0,0.0,0.0,0.0,4.4028,4.4335,4.4496,4.461,4.461,4.461,4.461,4.461,0.0,0.0,0.0,0.0,0.0,0.0,0.0,0.0,0.0,4.461,4.461,4.461,4.461,4.461,4.461,4.461,4.461,4.461,4.461,4.4671,4.4941,4.5311,4.5649,4.5957,4.6542,4.685,4.6172,4.6542,4.6942,4.6665,4.7127,4.7711,4.8112,4.8419,4.8604,4.8604,4.8604,4.8604,4.8604,4.8881,4.922,4.962,5.0205,5.0882,5.1621,5.1959,5.2298,5.2698,5.2698,5.2698,5.2698,5.2698,5.2698,5.2698,5.2698,5.2852,5.316,5.3837,5.4514,5.5161,5.553,5.5869,5.6176,5.6625,5.681,5.681,5.681,5.681,5.681,5.681,5.681,5.681,5.681,5.681,5.681,5.681,5.681,5.681,0.0,0.0,0.0,0.0,0.0,0.0,0.0,0.0,0.0,0.0,0.0,0.0,0.0,0.0,0.0,0.0,0.0,0.0,0.0,0.0,0.0,0.0,4.317,4.288,4.2291,4.2261,4.2106,4.1693,4.2258,0.0,0.0,0.0,0.0,0.0,0.0,0.0,0.0,0.0,0.0,0.0,0.0,0.0,0.0,0.0,0.0,0.0,4.461,4.461,4.461,4.461,4.461,4.461,4.461,4.461,4.461,4.461,4.461,4.4764,4.5403,4.5649,4.5865,4.6573,4.7188,4.7434,4.6757,4.6973,4.7188,4.6573,4.7004,4.7496,4.7588,4.8173,4.8604,4.8604,4.8604,4.8604,4.8604,4.922,4.9712,4.9805,5.0944,5.1744,5.1836,5.2359,5.2698,5.2698,5.2698,5.2698,5.2698,5.2698,5.276,5.2852,5.2852,5.3221,5.396,5.4529,5.5191,5.5838,5.5838,5.6146,5.681,5.681,5.681,5.681,5.681,5.681,5.681,5.681,5.681,5.681,5.681,5.681,5.681,5.681,5.681,5.681,0.0,0.0,0.0,0.0,0.0,0.0,0.0,0.0,0.0,0.0,4.329,4.329,0.0,0.0,0.0,0.0,0.0,0.0,0.0,0.0,0.0,0.0,4.256,4.2261,4.1602,4.1602,4.1618,4.1693,4.1814,0.0,0.0,0.0,0.0,0.0,0.0,0.0,0.0,0.0,0.0,0.0,0.0,0.0,0.0,0.0,0.0,0.0,4.461,4.461,4.461,4.461,4.461,4.461,4.461,4.461,4.461,4.461,4.461,4.4764,4.5403,4.5988,4.6573,4.725,4.7527,4.7434,4.6757,4.6265,4.5895,4.5803,4.6296,4.6942,4.7496,4.8173,4.8604,4.8604,4.8604,4.8604,4.8604,4.922,4.9897,5.0451,5.1221,5.1929,5.2483,5.2637,5.2698,5.2698,5.2698,5.2698,5.2698,5.2698,5.2975,5.3529,5.356,5.4114,5.5345,5.5468,5.5869,5.6625,5.6625,5.6686,5.681,5.681,5.681,5.681,5.681,5.681,5.681,5.681,5.681,5.681,5.681,5.681,5.681,5.681,5.681,5.681,0.0,0.0,0.0,0.0,0.0,0.0,0.0,4.329,4.329,4.329,4.329,4.329,4.329,4.329,4.329,0.0,0.0,0.0,0.0,0.0,0.0,0.0,0.0,0.0,0.0,4.0876,4.077,4.0484,0.0,4.1287,4.1805,4.225,4.2954,4.3784,4.386,0.0,0.0,0.0,0.0,0.0,0.0,0.0,0.0,0.0,0.0,0.0,0.0,4.461,4.461,4.461,4.461,4.461,4.461,4.461,4.461,4.461,4.461,4.4764,4.5403,4.5834,4.6234,4.6911,4.7065,4.6911,4.6234,4.5803,4.5495,4.5126,4.5588,4.6265,4.6942,4.7619,4.8204,4.8543,4.8604,4.8604,4.8604,4.9528,5.0328,5.0667,5.159,5.2359,5.2698,5.2698,5.2698,5.2698,5.2698,5.2698,5.2698,5.2698,5.3037,5.3714,5.4006,5.473,5.5684,5.6053,5.6471,5.681,5.681,5.681,5.681,5.681,5.681,5.681,5.681,5.681,5.681,5.681,5.681,5.681,5.681,5.681,5.681,5.681,5.681,5.681,0.0,0.0,0.0,0.0,0.0,0.0,0.0,4.329,4.329,4.329,4.329,4.329,4.329,4.329,4.329,0.0,0.0,0.0,0.0,0.0,0.0,0.0,0.0,0.0,0.0,0.0,0.0,3.9373,3.9948,0.0,0.0,0.0,0.0,0.0,4.3288,4.3806,4.461,0.0,0.0,0.0,0.0,4.461,0.0,0.0,0.0,0.0,0.0,4.461,4.461,4.461,4.461,4.461,4.461,4.461,4.461,4.461,4.461,4.4764,4.5403,4.5588,4.5741,4.6419,4.648,4.6234,4.5711,4.5464,4.5218,4.4733,4.5126,4.5803,4.648,4.7157,4.7835,4.8512,4.8604,4.8604,4.8604,4.9805,5.0697,5.0697,5.1898,5.2698,5.2698,5.2698,5.2698,5.2698,5.2698,5.2698,5.2698,5.2852,5.3252,5.3899,5.4529,5.5253,5.593,5.6532,5.681,5.681,5.681,5.681,5.681,5.681,5.681,5.681,5.681,5.681,5.681,5.681,5.681,5.681,5.681,5.681,5.681,5.681,5.681,5.681,0.0,0.0,0.0,0.0,0.0,0.0,0.0,4.329,4.329,4.329,4.329,4.329,4.329,4.329,4.329,0.0,0.0,0.0,0.0,0.0,0.0,0.0,0.0,0.0,0.0,0.0,0.0,3.9373,3.9433,0.0,0.0,0.0,0.0,0.0,0.0,4.3806,4.461,4.461,0.0,0.0,0.0,0.0,0.0,0.0,0.0,0.0,0.0,4.461,4.461,4.461,4.461,4.461,4.461,4.461,4.461,4.461,4.461,4.4764,4.5403,4.5588,4.5741,4.6419,4.6142,4.568,4.5588,4.5126,4.4702,4.4641,4.5126,4.5803,4.648,4.7157,4.7835,4.8512,4.8604,4.8604,4.8604,4.9805,5.0697,5.0697,5.1898,5.2698,5.2698,5.2698,5.2698,5.2698,5.2698,5.2698,5.2698,5.3283,5.3929,5.456,5.5253,5.593,5.6717,5.6779,5.681,5.681,5.681,5.681,5.681,5.681,5.681,5.681,5.681,5.681,0.0,5.681,5.681,5.681,5.681,5.681,5.681,5.681,5.681,5.681,0.0,0.0,0.0,0.0,0.0,0.0,4.329,4.329,4.329,4.329,4.329,4.329,4.329,4.329,4.329,4.329,0.0,0.0,0.0,0.0,0.0,0.0,0.0,0.0,0.0,0.0,3.9373,3.9373,3.9373,0.0,0.0,0.0,0.0,0.0,0.0,4.3192,4.4024,4.4456,0.0,0.0,0.0,0.0,0.0,0.0,0.0,0.0,0.0,0.0,4.461,4.461,4.461,4.461,4.461,4.461,4.461,4.461,4.461,4.4671,4.4949,4.4972,4.5033,4.5311,4.5187,4.4972,4.4972,4.4795,4.461,4.461,4.4825,4.5311,4.6388,4.6819,4.7342,4.845,4.8604,4.8604,4.8604,4.9466,5.0236,5.0636,5.1528,5.2267,5.2667,5.2698,5.2698,5.2698,5.3098,5.3314,5.3314,5.356,5.4206,5.5284,5.5561,5.6023,5.681,5.681,5.681,5.681,5.681,5.681,5.681,5.681,5.681,5.681,5.681,5.681,0.0,5.681,5.681,5.681,5.681,5.681,5.681,5.681,5.681,5.681,0.0,0.0,0.0,0.0,0.0,4.325,4.329,4.329,4.329,4.329,4.329,4.329,4.329,4.329,4.329,4.329,4.329,0.0,0.0,0.0,0.0,0.0,0.0,0.0,0.0,0.0,3.9373,3.9373,3.9373,3.9373,0.0,0.0,4.013,4.1043,0.0,0.0,0.0,0.0,0.0,0.0,0.0,0.0,0.0,0.0,0.0,0.0,0.0,0.0,0.0,0.0,0.0,4.461,4.461,4.461,4.461,4.461,4.461,4.461,4.461,4.461,4.461,4.461,4.461,4.461,4.461,4.461,4.461,4.461,4.461,4.5003,4.6357,4.6603,4.7034,4.8389,4.8604,4.8604,4.8604,4.922,4.9928,5.0605,5.1282,5.1959,5.2637,5.2698,5.2698,5.2698,5.3345,5.3806,5.3976,5.4206,5.473,5.5653,5.5899,5.6238,5.681,5.681,5.681,5.681,5.681,5.681,5.681,5.681,5.681,5.681,5.681,5.681,0.0,5.681,5.681,5.681,5.681,5.681,5.681,5.681,5.681,5.681,0.0,0.0,0.0,0.0,0.0,0.0,4.325,4.329,4.329,4.329,4.329,4.329,4.329,4.329,4.329,4.329,4.329,0.0,0.0,0.0,0.0,0.0,0.0,0.0,0.0,0.0,3.9373,3.9373,3.9373,3.9373,3.9373,3.9373,3.9986,4.1013,0.0,0.0,0.0,0.0,0.0,0.0,0.0,0.0,0.0,0.0,0.0,0.0,0.0,0.0,0.0,0.0,0.0,0.0,0.0,4.461,4.461,4.461,4.461,4.461,4.461,4.461,4.461,4.461,4.461,4.461,4.461,4.461,4.461,4.461,4.461,4.5003,4.6357,4.6603,4.7034,4.8389,4.8604,4.8604,4.8604,4.922,4.9928,5.0605,5.1282,5.1959,5.2637,5.2698,5.2698,5.2698,5.3345,5.3976,5.4621,5.5315,5.5684,5.5684,5.644,5.681,5.681,5.681,5.681,5.681,5.681,5.681,5.681,5.681,5.681,5.681,5.681,5.681,0.0,5.681,5.681,5.681,5.681,5.681,5.681,5.681,5.681,5.681,0.0,0.0,0.0,0.0,0.0,0.0,0.0,4.321,4.329,4.329,4.329,4.329,4.329,4.329,4.329,4.329,4.329,0.0,0.0,0.0,0.0,0.0,0.0,0.0,0.0,0.0,3.9858,3.9373,3.9373,3.9373,3.9373,3.9553,3.9853,4.0345,4.1157,4.2046,0.0,0.0,0.0,0.0,0.0,0.0,4.461,0.0,0.0,0.0,0.0,0.0,0.0,0.0,0.0,0.0,0.0,0.0,0.0,4.461,4.461,4.461,4.461,4.461,4.461,4.461,4.461,4.461,4.461,4.461,4.461,4.461,4.461,4.5003,4.6357,4.6603,4.7034,4.8389,4.8604,4.8604,4.8604,4.882,4.9374,5.0543,5.1713,5.2483,5.2698,5.2698,5.2698,5.2698,5.3775,5.4468,5.4683,5.5807,5.6471,5.6471,5.6686,5.681,5.681,5.681,5.681,5.681,5.681,5.681,5.681,5.681,5.681,5.681,5.681,5.681,5.681,5.681,5.681,5.681,5.681,5.681,5.681,5.681,5.681,5.681,0.0,0.0,0.0,0.0,0.0,0.0,0.0,4.321,4.329,4.329,4.329,4.329,4.329,4.329,4.329,4.329,4.329,0.0,0.0,0.0,0.0,0.0,0.0,0.0,0.0,4.0666,4.0217,3.9798,3.9493,3.9373,3.9373,3.9517,3.9732,4.0041,4.1096,4.1949,0.0,0.0,0.0,0.0,0.0,0.0,4.461,0.0,0.0,0.0,0.0,0.0,0.0,0.0,0.0,0.0,0.0,0.0,0.0,0.0,4.461,4.461,4.461,4.461,4.461,4.461,4.461,4.461,4.461,4.461,4.461,4.461,4.461,4.5003,4.6357,4.6603,4.7034,4.8389,4.8604,4.8604,4.8604,4.8604,4.9127,5.0513,5.1898,5.2698,5.2698,5.2698,5.2698,5.2698,5.3745,5.4406,5.4683,5.5776,5.6532,5.681,5.681,5.681,5.681,5.681,5.681,5.681,5.681,5.681,5.681,5.681,5.681,5.681,5.681,5.681,0.0,5.681,5.681,5.681,5.681,5.681,5.681,5.681,5.681,5.684,0.0,0.0,0.0,0.0,0.0,0.0,0.0,4.329,4.329,4.329,4.329,4.329,4.329,4.329,4.329,4.329,0.0,0.0,0.0,0.0,0.0,0.0,0.0,0.0,4.241,4.1175,4.0516,4.0457,3.9798,3.9463,3.9463,3.9403,3.9619,4.0097,4.1377,4.2206,4.2756,4.4048,4.461,4.461,4.461,4.461,0.0,0.0,0.0,0.0,0.0,0.0,0.0,0.0,0.0,0.0,0.0,0.0,0.0,0.0,0.0,0.0,0.0,4.461,4.461,4.461,4.461,4.461,4.461,4.461,0.0,4.461,4.461,4.5003,4.6357,4.6603,4.7034,4.8389,4.8604,4.8604,4.8604,4.8696,4.9251,5.0543,5.1898,5.2698,5.2698,5.2698,5.2698,5.2698,5.3345,5.3976,5.4652,5.5345,5.6023,5.6779,5.681,5.681,5.681,5.681,5.681,5.681,5.681,5.681,5.681,5.681,5.681,5.681,5.681,5.681,5.681,5.681,5.681,5.681,5.681,5.681,5.681,5.681,5.684,5.6964,0.0,0.0,0.0,0.0,0.0,0.0,0.0,0.0,0.0,0.0,4.329,4.329,4.329,4.329,4.329,0.0,0.0,0.0,0.0,0.0,0.0,0.0,0.0,0.0,4.241,4.2081,4.1692,4.1145,4.0487,4.0157,4.0157,3.9649,3.9787,4.0553,4.1001,4.2023,4.3439,4.4271,4.461,4.461,4.461,4.461,0.0,0.0,0.0,0.0,4.461,4.461,0.0,0.0,0.0,0.0,0.0,0.0,0.0,0.0,4.461,4.461,4.461,0.0,4.461,4.461,4.461,4.461,0.0,4.461,4.461,4.461,4.461,4.5003,4.6357,4.6603,4.7034,4.8389,4.8604,4.8604,4.8604,4.9528,5.0328,5.0667,5.1898,5.2698,5.2698,5.2698,5.2698,5.2698,5.3345,5.3976,5.4652,5.5345,5.6023,5.6779,5.681,5.681,5.681,5.681,5.681,5.681,5.681,5.681,5.681,5.681,5.681,5.681,5.681,5.681,5.681,5.681,5.681,5.681,5.681,5.681,5.681,5.681,5.7148,5.7611,0.0,0.0,0.0,0.0,0.0,0.0,0.0,0.0,0.0,0.0,0.0,4.329,4.329,4.329,0.0,0.0,0.0,0.0,0.0,0.0,0.0,0.0,0.0,4.314,4.2821,4.256,4.2231,4.1871,4.1175,4.0846,4.0846,4.0487,4.0628,4.121,4.1808,4.2622,4.3655,4.4332,4.461,4.461,4.461,0.0,0.0,0.0,0.0,0.0,4.461,4.461,0.0,4.461,4.461,4.461,0.0,0.0,0.0,0.0,4.461,4.461,4.461,4.461,4.461,4.461,4.461,4.461,4.461,4.461,4.461,4.461,4.461,4.5003,4.6357,4.6603,4.7034,4.8389,4.8604,4.8604,4.8604,4.9805,5.0697,5.0697,5.1898,5.2698,5.2698,5.2698,5.2698,5.2698,5.3067,5.3514,5.4237,5.4884,5.5561,5.6238,5.6625,5.681,5.681,5.681,5.681,5.681,5.681,5.681,5.681,5.681,5.681,5.681,5.681,5.681,5.681,5.681,5.681,5.681,5.681,5.681,5.684,5.7179,5.7518,5.7919,0.0,0.0,0.0,0.0,0.0,0.0,0.0,0.0,0.0,0.0,0.0,0.0,0.0,0.0,0.0,0.0,0.0,0.0,0.0,0.0,0.0,0.0,0.0,4.329,4.329,4.2791,4.256,4.256,4.1901,4.1572,4.1572,4.1482,4.1595,4.1934,4.2947,4.3554,4.3809,4.4363,4.461,4.461,4.461,0.0,0.0,0.0,0.0,0.0,0.0,0.0,0.0,4.461,4.461,4.461,4.461,0.0,0.0,0.0,0.0,0.0,4.461,4.461,4.461,4.461,4.461,4.461,4.461,4.461,4.461,4.461,4.4664,4.5126,4.6357,4.6665,4.7157,4.8419,4.8604,4.8604,4.8604,4.9805,5.0697,5.0697,5.1898,5.2698,5.2698,5.2698,5.2698,5.2698,5.2698,5.3006,5.3683,5.4314,5.5037,5.5684,5.644,5.681,5.681,5.681,5.681,5.681,5.681,5.681,5.681,5.681,5.681,5.681,5.681,0.0,5.681,5.681,5.681,5.681,5.681,5.6871,5.7025,5.7611,5.7949,5.827,0.0,0.0,0.0,0.0,0.0,0.0,0.0,0.0,0.0,0.0,0.0,0.0,0.0,0.0,0.0,0.0,0.0,0.0,0.0,0.0,0.0,4.329,4.329,4.329,4.329,4.32,4.314,4.314,4.2521,4.2261,4.2231,4.1692,4.1912,4.2826,4.3571,4.4106,4.4456,4.4579,4.461,4.461,4.461,0.0,0.0,0.0,0.0,0.0,0.0,0.0,0.0,4.461,4.461,4.461,4.461,0.0,0.0,0.0,0.0,0.0,4.461,4.461,4.461,4.461,4.461,4.461,4.461,4.461,4.461,4.461,4.5033,4.568,4.6449,4.7065,4.7711,4.8481,4.8604,4.8604,4.8604,4.9805,5.0697,5.0697,5.1898,5.2698,5.2698,5.2698,5.2698,5.2698,5.2698,5.3006,5.3683,5.4314,5.5037,5.5684,5.644,5.681,5.681,5.681,5.681,5.681,5.681,5.681,5.681,5.681,5.681,5.681,0.0,5.681,5.681,5.681,5.681,5.681,5.681,5.7179,5.7672,5.7795,5.8485,5.9593,0.0,0.0,0.0,0.0,0.0,0.0,0.0,0.0,0.0,0.0,0.0,0.0,0.0,0.0,0.0,0.0,0.0,0.0,0.0,0.0,0.0,4.329,4.329,4.329,4.329,4.329,4.329,4.329,4.303,4.288,4.288,4.2581,4.2634,4.3016,4.3684,4.4006,4.4086,4.4456,4.461,4.461,0.0,0.0,0.0,0.0,0.0,0.0,0.0,0.0,0.0,0.0,4.461,4.461,4.461,0.0,0.0,0.0,0.0,0.0,4.461,4.461,4.461,4.461,4.461,4.461,4.461,4.461,4.461,4.461,4.5126,4.5803,4.648,4.7157,4.7835,4.8512,4.8604,4.8604,4.8604,4.9805,5.0697,5.0697,5.1898,5.2698,5.2698,5.2698,5.2698,5.2698,5.2698,5.2852,5.316,5.3837,5.4483,5.5161,5.5838,5.6409,5.681,5.681,5.681,5.681,5.681,5.681,5.681,5.681,5.681,5.681,0.0,5.681,5.681,5.681,5.681,5.684,5.721,5.7549,5.7919,5.8577,5.9501,6.0363,0.0,0.0,0.0,0.0,0.0,0.0,0.0,0.0,0.0,0.0,0.0,0.0,0.0,0.0,0.0,0.0,0.0,0.0,0.0,0.0,4.329,4.329,4.329,4.329,4.329,4.329,4.329,4.329,4.329,4.329,4.329,4.329,4.3256,4.3259,4.3745,4.3915,4.387,4.4394,4.461,4.461,0.0,0.0,0.0,0.0,0.0,0.0,0.0,0.0,0.0,0.0,0.0,0.0,0.0,0.0,0.0,4.461,4.461,4.461,4.461,4.461,4.461,4.461,4.461,4.461,4.461,4.461,4.4633,4.4825,4.5341,4.6018,4.6696,4.7373,4.8019,4.8543,4.8604,4.8604,4.8604,4.9805,5.0697,5.0697,5.1898,5.2698,5.2698,5.2698,5.2698,5.2698,5.2698,5.2698,5.2698,5.3345,5.3976,5.4652,5.5345,5.6023,5.681,5.681,5.681,5.681,5.681,5.681,5.681,5.681,5.681,5.681,5.681,5.681,5.681,5.681,5.681,5.6871,5.7549,5.8011,5.8393,5.9593,6.0363,6.0794,0.0,0.0,0.0,0.0,0.0,0.0,0.0,0.0,0.0,0.0,0.0,0.0,0.0,0.0,0.0,0.0,0.0,0.0,0.0,0.0,4.329,4.329,4.329,4.329,4.329,4.329,4.329,4.329,4.329,4.329,4.329,4.329,4.3497,4.3927,4.3957,4.4189,4.4548,4.4579,4.461,4.461,4.461,0.0,0.0,0.0,0.0,0.0,0.0,0.0,0.0,0.0,0.0,0.0,0.0,0.0,4.461,4.461,4.461,4.461,4.461,4.461,4.461,4.461,4.461,4.461,4.461,4.461,4.4795,4.5372,4.6049,4.6726,4.7404,4.8081,4.8543,4.8604,4.8604,4.8604,4.8604,4.9805,5.0697,5.0697,5.1898,5.2698,5.2698,5.2698,5.2698,5.2698,5.2698,5.2698,5.2698,5.3345,5.3976,5.4652,5.5345,5.6023,5.681,5.681,5.681,5.681,5.681,5.681,5.681,5.681,5.681,5.681,5.681,5.681,5.681,5.681,5.681,5.6871,5.7549,5.8547,5.9716,6.0455,6.0763,6.0794,0.0,0.0,0.0,0.0,0.0,0.0,0.0,0.0,0.0,0.0,0.0,0.0,0.0,0.0,0.0,0.0,0.0,0.0,0.0,4.329,4.329,4.329,4.329,4.329,4.329,4.329,4.329,4.329,4.329,4.329,4.329,4.329,4.3527,4.3988,4.3988,4.4189,4.461,4.461,4.461,4.461,4.461,4.461,0.0,0.0,0.0,0.0,0.0,0.0,0.0,0.0,4.461,4.461,4.461,4.461,4.461,4.461,4.461,4.461,4.461,4.461,4.461,4.461,4.461,4.461,4.461,4.461,4.4795,4.5434,4.6111,4.6942,4.8019,4.845,4.8604,4.8604,4.8604,4.8604,4.8604,4.9805,5.0697,5.0697,5.1898,5.2698,5.2698,5.2698,5.2698,5.2698,5.2698,5.2698,5.2698,5.2944,5.3591,5.4652,5.4976,5.5622,5.681,5.681,5.681,5.681,5.681,5.681,5.681,5.681,5.681,5.681,5.681,5.681,5.681,5.681,5.7056,5.7549,5.8608,5.9593,6.0455,6.0701,6.0794,6.0794,0.0,0.0,0.0,0.0,0.0,0.0,0.0,0.0,0.0,0.0,0.0,0.0,0.0,0.0,0.0,0.0,0.0,0.0,4.329,4.329,4.329,4.329,4.329,4.329,4.329,4.329,4.329,4.329,4.329,4.329,4.329,4.329,4.3527,4.3988,4.3988,4.4189,4.461,4.461,4.461,4.461,4.461,4.461,0.0,0.0,0.0,0.0,0.0,0.0,0.0,0.0,4.461,4.461,4.461,4.461,4.461,4.461,4.461,4.461,4.461,4.461,4.461,4.4685,4.4648,4.461,4.4685,4.4833,4.5133,4.5772,4.6603,4.7527,4.845,4.8604,4.8604,4.8604,4.8604,4.8604,4.8604,4.9805,5.0697,5.0697,5.1898,5.2698,5.2698,5.2698,5.2698,5.2698,5.2698,5.2698,5.2698,5.2698,5.3345,5.4652,5.4683,5.5376,5.681,5.681,5.681,5.681,5.681,5.681,5.681,5.681,5.681,5.681,5.681,5.681,5.681,5.681,5.7333,5.8258,5.9347,6.0209,6.0794,6.0794,6.0794,6.0794,0.0,0.0,0.0,0.0,0.0,0.0,0.0,0.0,0.0,0.0,0.0,0.0,0.0,0.0,0.0,0.0,0.0,0.0,4.329,4.329,4.329,4.329,4.329,4.329,4.329,4.329,4.329,4.329,4.329,4.329,4.329,4.329,4.3527,4.3988,4.3988,4.4189,4.461,4.461,4.461,4.461,4.461,4.461,4.461,0.0,0.0,0.0,0.0,0.0,0.0,0.0,4.461,4.461,4.461,4.461,4.461,4.461,4.461,4.461,4.461,4.461,4.4648,4.4836,4.4761,4.4648,4.4836,4.5248,4.5772,4.648,4.7681,4.8604,4.8604,4.8604,4.8604,4.8604,4.8604,4.8604,4.8604,4.9805,5.0697,5.0697,5.1898,5.2698,5.2698,5.2698,5.2698,5.2698,5.2698,5.2698,5.2698,5.2698,5.3345,5.4652,5.4683,5.5376,5.681,5.681,5.681,5.681,5.681,5.681,5.681,5.681,5.681,5.681,5.681,5.681,5.681,5.681,5.7611,5.8854,5.9532,6.0209,6.0794,6.0794,6.0794,6.0794,0.0,0.0,0.0,0.0,0.0,0.0,0.0,0.0,0.0,0.0,0.0,0.0,0.0,0.0,0.0,0.0,0.0,0.0,4.329,4.329,4.329,4.329,4.329,4.329,4.329,4.329,4.329,4.329,4.329,4.329,4.329,4.329,4.3527,4.3988,4.3988,4.4189,4.461,4.461,4.461,4.461,4.461,4.461,4.461,0.0,0.0,0.0,0.0,0.0,0.0,0.0,0.0,0.0,4.461,4.461,4.461,4.461,4.461,4.461,4.4761,4.4799,4.4836,4.5055,4.498,4.4836,4.4874,4.5248,4.5926,4.7065,4.7989,4.8604,4.8604,4.8604,4.8604,4.8604,4.8604,4.8604,4.8604,4.9404,5.0174,5.0636,5.1467,5.2206,5.2667,5.2698,5.2698,5.2698,5.2698,5.2698,5.2698,5.2698,5.3345,5.4652,5.4683,5.5376,5.681,5.681,5.681,5.681,5.681,5.681,5.681,5.681,5.681,5.681,5.681,5.681,5.6871,5.7826,5.8701,5.9562,6.024,6.0609,6.0794,6.0794,6.0794,6.0794,0.0,0.0,0.0,0.0,0.0,0.0,0.0,0.0,0.0,0.0,0.0,0.0,0.0,0.0,0.0,0.0,0.0,0.0,0.0,4.329,4.329,4.329,4.329,4.329,4.329,4.3369,4.3478,4.3478,4.3329,4.329,4.329,4.3409,4.3675,4.3988,4.4104,4.4297,4.461,4.461,4.461,4.461,4.461,4.461,4.461,0.0,0.0,0.0,0.0,0.0,0.0,0.0,0.0,0.0,4.461,4.461,4.461,4.461,4.461,4.461,4.4761,4.4836,4.4949,4.5129,4.5092,4.5142,4.567,4.5912,4.6357,4.7742,4.8327,4.8604,4.8604,4.8604,4.8604,4.8604,4.8604,4.8604,4.8604,4.922,4.9928,5.0605,5.1282,5.1959,5.2637,5.2698,5.2698,5.2698,5.2698,5.2698,5.2698,5.2698,5.3345,5.4652,5.4683,5.5376,5.681,5.681,5.681,5.681,5.681,5.681,5.681,5.681,5.681,5.681,5.681,5.6964,5.7303,5.8331,5.9193,5.987,6.0547,6.0794,6.0794,6.0794,6.0794,6.0794,0.0,0.0,0.0,0.0,0.0,0.0,0.0,0.0,0.0,0.0,0.0,0.0,0.0,0.0,0.0,0.0,0.0,0.0,0.0,0.0,4.3349,4.329,4.3329,4.3329,4.3329,4.3596,4.3714,4.3714,4.3478,4.3329,4.3329,4.3596,4.3793,4.3988,4.4181,4.4343,4.4534,4.4572,4.4572,4.4572,4.4572,4.461,4.461,4.461,0.0,0.0,0.0,0.0,0.0,0.0,0.0,0.0,4.461,4.461,4.461,4.461,4.461,4.461,4.461,4.4761,4.4949,4.5167,4.5204,4.5578,4.692,4.6919,4.7013,4.8368,4.8604,4.8604,4.8604,4.8604,4.8604,4.8604,4.8604,4.8604,4.8604,4.9189,4.9866,5.0605,5.1251,5.1898,5.2637,5.2698,5.2698,5.2698,5.2698,5.2698,5.2698,5.2698,5.3345,5.4652,5.4683,5.5376,5.681,5.681,5.681,5.681,5.681,5.681,5.681,5.681,5.681,5.681,5.6871,5.7303,5.7949,5.8577,5.9285,5.9932,6.0547,6.0794,6.0794,6.0794,6.0794,6.0794,0.0,0.0,0.0,0.0,0.0,0.0,0.0,0.0,0.0,0.0,0.0,0.0,0.0,0.0,0.0,0.0,0.0,0.0,0.0,0.0,4.3828,4.3319,4.3518,4.3596,4.3596,4.3832,4.3949,4.3949,4.3871,4.3793,4.3596,4.3675,4.3714,4.3754,4.3793,4.3949,4.4143,4.4297,4.4343,4.4412,4.4534,4.461,4.461,4.461,0.0,0.0,0.0,0.0,0.0,0.0,0.0,0.0,4.461,4.461,4.461,4.461,4.461,4.4648,4.4799,4.498,4.5167,4.542,4.5457,4.5765,4.6958,4.7006,4.7212,4.8604,4.8759,4.8604,4.8604,4.8604,4.8604,4.8604,4.8604,4.8604,4.8604,4.8758,4.9312,5.0543,5.082,5.1374,5.2606,5.2698,5.2698,5.2698,5.2698,5.2698,5.2698,5.2698,5.3345,5.4652,5.4683,5.5376,5.681,5.681,5.681,5.681,5.681,5.681,5.681,5.681,5.681,5.684,5.7364,5.798,5.8608,5.9285,5.9963,6.0609,6.0732,6.0794,6.0794,6.0794,6.0794,6.0794,0.0,0.0,0.0,0.0,0.0,0.0,0.0,0.0,0.0,0.0,0.0,0.0,0.0,0.0,0.0,0.0,0.0,0.0,0.0,0.0,4.4687,4.4479,4.4268,4.4167,4.4316,4.41,4.3988,4.3988,4.3988,4.391,4.3675,4.3793,4.3832,4.3832,4.4065,4.4181,4.4266,4.4381,4.4419,4.4458,4.4534,4.461,4.461,4.461,0.0,0.0,0.0,0.0,0.0,0.0,0.0,0.0,0.0,0.0,4.461,4.461,4.461,4.461,4.4723,4.498,4.5272,4.5457,4.5457,4.5728,4.7105,4.7076,4.7212,4.8808,4.8841,4.8604,4.8604,4.8604,4.8604,4.8604,4.8604,4.8604,4.8604,4.8604,4.9004,5.0082,5.0482,5.1097,5.2144,5.2513,5.2698,5.2698,5.2698,5.2698,5.2698,5.2698,5.3345,5.4652,5.4683,5.5376,5.681,5.681,5.681,5.681,5.681,5.681,5.681,5.681,5.681,5.684,5.7518,5.8196,5.8824,5.9501,6.0178,6.0794,6.0794,6.0794,6.0794,6.0794,6.0794,6.0794,0.0,0.0,0.0,0.0,0.0,0.0,0.0,0.0,0.0,0.0,0.0,0.0,0.0,0.0,0.0,0.0,0.0,0.0,0.0,0.0,0.0,4.5705,4.5092,4.4871,4.5141,4.4634,4.4339,4.4209,4.4217,4.407,4.3793,4.391,4.3988,4.4026,4.4305,4.4458,4.4496,4.4534,4.4534,4.4534,4.4572,4.461,4.461,4.461,4.461,4.461,4.461,0.0,4.461,4.461,0.0,0.0,0.0,0.0,4.461,4.461,4.461,4.461,4.461,4.4867,4.5204,4.5389,4.5315,4.5616,4.7181,4.7076,4.7132,4.8889,4.8893,4.8604,4.8604,4.8604,4.8604,4.8604,4.8604,4.8604,4.8604,4.8604,4.8881,4.9589,5.0266,5.0944,5.1621,5.2329,5.2698,5.2698,5.2698,5.2698,5.2698,5.2698,5.3345,5.4652,5.4683,5.5376,5.681,5.681,5.681,5.681,5.681,5.681,5.681,5.681,5.6871,5.7025,5.7703,5.8331,5.9008,5.9686,6.0301,6.0794,6.0794,6.0794,6.0794,6.0794,6.0794,6.0794,0.0,0.0,0.0,0.0,0.0,0.0,0.0,0.0,0.0,0.0,4.9385,0.0,0.0,0.0,0.0,0.0,0.0,0.0,0.0,0.0,0.0,4.5705,4.5544,4.5606,4.5839,4.595,4.5724,4.5105,4.5144,4.4808,4.422,4.3871,4.3832,4.3988,4.3871,4.391,4.4104,4.4297,4.4374,4.4374,4.4534,4.461,4.461,4.461,4.461,4.461,4.461,4.461,4.461,4.461,4.461,0.0,0.0,0.0,4.461,4.461,4.461,4.461,4.461,4.4761,4.4986,4.5167,4.5204,4.5578,4.6958,4.7076,4.7252,4.8757,4.88,4.8604,4.8604,4.8604,4.8604,4.8604,4.8604,4.8604,4.8604,4.8604,4.8881,4.9589,5.0266,5.0944,5.1621,5.2329,5.2698,5.2698,5.2698,5.2698,5.2698,5.2698,5.3345,5.4652,5.4683,5.5376,5.681,5.681,5.681,5.681,5.681,5.681,5.681,5.681,5.7118,5.7734,5.8412,5.9039,5.9716,6.0393,6.0732,6.0794,6.0794,6.0794,6.0794,6.0794,6.0794,6.0794,0.0,0.0,0.0,0.0,0.0,0.0,0.0,0.0,0.0,0.0,0.0,4.824,0.0,0.0,0.0,0.0,0.0,0.0,0.0,0.0,0.0,4.6749,4.6543,4.6496,4.6742,4.6427,4.6162,4.5856,4.5736,4.5624,4.5397,4.5031,4.4597,4.4181,4.4065,4.4143,4.4305,4.4335,4.4343,4.4458,4.4572,4.461,4.461,4.461,4.461,4.461,4.461,4.461,4.461,4.461,4.461,4.461,4.461,0.0,0.0,0.0,4.461,4.461,4.4723,4.4836,4.4911,4.5017,4.5055,4.5397,4.6726,4.688,4.7132,4.8676,4.88,4.8604,4.8604,4.8604,4.8604,4.8604,4.8604,4.8604,4.8604,4.8604,4.8727,4.9035,5.0051,5.082,5.1097,5.2082,5.2698,5.2698,5.2698,5.2698,5.2698,5.2698,5.3345,5.4652,5.4683,5.5376,5.681,5.681,5.681,5.681,5.681,5.681,5.681,5.681,5.7179,5.7857,5.8485,5.9162,5.9839,6.0517,6.0794,6.0794,6.0794,6.0794,6.0794,6.0794,6.0794,6.0794,0.0,0.0,0.0,0.0,0.0,0.0,0.0,0.0,0.0,0.0,0.0,0.0,0.0,0.0,0.0,0.0,0.0,0.0,0.0,0.0,0.0,4.8324,4.7562,4.7361,4.7835,4.717,4.6712,4.6528,4.6478,4.6427,4.6364,4.6042,4.5565,4.4863,4.4602,4.458,4.4742,4.4511,4.4419,4.4534,4.4572,4.461,4.461,4.461,4.461,4.461,4.461,4.461,4.461,4.461,4.461,4.461,4.461,4.461,0.0,0.0,0.0,4.461,4.4761,4.4836,4.4836,4.4836,4.4836,4.5108,4.6284,4.6599,4.6982,4.8347,4.8636,4.8604,4.8604,4.8604,4.8604,4.8604,4.8604,4.8604,4.8604,4.8604,4.8604,4.8604,4.9835,5.0697,5.0697,5.1929,5.2698,5.2698,5.2698,5.2698,5.2698,5.2883,5.3498,5.4652,5.4837,5.5561,5.681,5.681,5.681,5.681,5.681,5.681,5.681,5.6994,5.7426,5.8054,5.8547,5.9255,6.0086,6.0578,6.0794,6.0794,6.0794,6.0794,6.0794,6.0794,6.0794,6.0794,0.0,0.0,0.0,0.0,0.0,0.0,0.0,0.0,0.0,0.0,0.0,0.0,0.0,4.7764,4.7309,4.7309,0.0,0.0,0.0,0.0,0.0,5.0165,4.8512,0.0,4.9345,4.8605,4.7873,4.7232,4.7436,4.7179,4.6603,4.6564,4.6533,4.6441,4.5401,4.5087,4.5222,4.4772,4.4458,4.4305,4.4534,4.461,4.461,4.461,4.461,4.461,4.461,4.461,4.461,4.461,4.461,4.461,4.461,4.461,4.461,0.0,0.0,0.0,4.461,4.461,4.461,4.461,4.461,4.4795,4.5503,4.6142,4.6788,4.7527,4.8173,4.8604,4.8604,4.8604,4.8604,4.8604,4.8604,4.8604,4.8604,4.8604,4.8604,4.8604,4.9835,5.0697,5.0697,5.1929,5.2698,5.2698,5.2698,5.2698,5.2698,5.3314,5.3945,5.4652,5.5315,5.5992,5.681,5.681,5.681,5.681,5.681,5.681,5.684,5.7487,5.8085,5.8731,5.8762,5.9532,6.0763,6.0794,6.0794,6.0794,6.0794,6.0794,6.0794,6.0794,6.0794,6.0794,0.0,0.0,0.0,0.0,0.0,0.0,0.0,0.0,0.0,0.0,0.0,0.0,0.0,4.9116,4.8708,4.8187,4.8407,0.0,0.0,0.0,0.0,4.8831,4.8355,4.8271,4.8697,4.8563,4.8357,4.8142,4.8224,4.8142,4.7896,4.7773,4.7773,4.7835,4.6477,4.5877,4.5886,4.5175,4.49,4.4908,4.4527,4.4458,4.461,4.461,4.461,4.461,4.461,4.461,4.4685,4.5142,4.4993,4.4685,4.5179,4.4955,4.461,4.461,4.461,4.461,4.461,4.461,4.461,4.461,4.461,4.4795,4.5434,4.6111,4.6788,4.7465,4.8142,4.8604,4.8604,4.8604,4.8604,4.8604,4.8604,4.8604,4.8604,4.8604,4.8604,4.8604,4.9835,5.0697,5.0697,5.1929,5.2698,5.2698,5.2698,5.2698,5.2698,5.2944,5.3591,5.4652,5.4945,5.5622,5.681,5.681,5.681,5.681,5.681,5.681,5.684,5.7518,5.8196,5.8793,5.9224,5.9963,6.0794,6.0794,6.0794,6.0794,6.0794,6.0794,6.0794,6.0794,6.0794,6.0794,0.0,0.0,0.0,0.0,0.0,0.0,0.0,0.0,0.0,0.0,0.0,0.0,0.0,0.0,4.9884,4.9615,4.9367,4.9399,4.9837,4.9318,4.8984,4.8944,4.8521,4.8438,4.8852,4.8471,4.8389,4.8604,4.8389,4.8389,4.8604,4.8438,4.8438,4.8573,4.7518,4.6915,4.659,4.5797,4.5523,4.5611,4.52,4.501,4.4949,4.4949,4.4825,4.461,4.461,4.461,4.4685,4.5179,4.4993,4.4685,4.5179,4.4993,4.461,4.461,4.461,4.461,4.461,4.461,4.461,4.461,4.461,4.4733,4.5157,4.5957,4.6726,4.7188,4.7989,4.8604,4.8604,4.8604,4.8604,4.8604,4.8604,4.8604,4.8604,4.8604,4.8604,4.8604,4.9651,5.0451,5.0667,5.1713,5.2483,5.2698,5.2698,5.2698,5.2698,5.2914,5.3652,5.5007,5.5284,5.5838,5.681,5.681,5.681,5.681,5.681,5.681,5.684,5.7734,5.8412,5.8824,5.9747,6.0393,6.0794,6.0794,6.0794,6.0794,6.0794,6.0794,6.0794,6.0794,6.0794,6.0794,0.0,0.0,0.0,0.0,0.0,0.0,0.0,0.0,0.0,5.2903,0.0,0.0,0.0,0.0,0.0,5.1525,5.0855,5.0773,5.1623,5.0112,4.9678,5.0723,0.0,0.0,4.9829,4.8404,4.7958,4.8604,4.7958,4.7958,4.8604,4.8604,4.8604,4.8604,4.8563,4.8111,4.7262,4.659,4.6314,4.6355,4.6524,4.6203,4.5618,4.5618,4.5218,4.4671,4.4641,4.4641,4.4641,4.461,4.461,4.461,4.461,4.461,4.461,4.461,4.461,4.461,0.0,0.0,0.0,4.461,4.461,4.461,4.461,4.5618,4.6603,4.6603,4.7681,4.8604,4.8604,4.8604,4.8604,4.8604,4.8604,4.8604,4.8604,4.8604,4.8604,4.8604,4.9251,4.9959,5.0636,5.1313,5.199,5.2667,5.2698,5.2698,5.2698,5.3375,5.433,5.5622,5.644,5.681,5.681,5.681,5.681,5.681,5.681,5.681,5.6871,5.8227,5.8793,5.8854,6.0209,6.0794,6.0794,6.0794,6.0794,6.0794,6.0794,6.0794,6.0794,6.0794,6.0794,6.0794,0.0,0.0,0.0,0.0,0.0,0.0,0.0,0.0,5.3041,0.0,0.0,0.0,5.2522,5.1776,5.1377,5.1598,5.0855,5.055,5.0925,5.0002,4.9638,5.0143,4.9097,4.8646,4.8975,4.8543,4.8419,4.8604,4.8419,4.8419,4.8604,4.8604,4.8604,4.8563,4.8438,4.8346,4.8173,4.7375,4.7018,4.6956,4.6578,4.6361,4.6326,4.6326,4.6203,4.5988,4.5495,4.5311,4.5334,4.5372,4.503,4.461,4.461,4.461,4.461,4.461,4.461,4.461,4.461,0.0,0.0,0.0,0.0,0.0,4.461,4.5618,4.6603,4.6603,4.7681,4.8604,4.8604,4.8604,4.8604,4.8604,4.8604,4.8604,4.8604,4.8604,4.8604,4.8604,4.9251,4.9959,5.0636,5.1313,5.199,0.0,5.2698,5.2698,5.2698,5.3837,5.456,5.4976,5.6146,5.681,5.681,5.681,5.681,5.681,5.681,5.681,5.6871,5.8227,5.8793,5.8854,6.0209,6.0794,6.0794,6.0794,6.0794,6.0794,6.0794,6.0794,6.0794,6.0794,6.0794,6.0794,0.0,0.0,0.0,0.0,0.0,0.0,5.3212,5.3246,5.328,0.0,0.0,0.0,5.3178,5.2696,5.2383,5.2383,5.199,5.1594,5.1406,5.0925,5.0615,5.0416,4.959,4.9138,4.9138,4.8491,4.8327,4.8604,4.8327,4.8327,4.8604,4.8604,4.8604,4.8563,4.848,4.848,4.8563,4.808,4.7814,4.7783,4.7416,4.7159,4.7004,4.7004,4.685,4.6542,4.6142,4.6018,4.6004,4.6064,4.5797,4.5428,4.5087,4.5053,4.4993,4.4685,4.461,4.461,0.0,0.0,4.461,4.461,0.0,0.0,4.461,4.5618,4.6603,4.6603,4.7681,4.8604,4.8604,4.8604,4.8604,4.8604,4.8604,4.8604,4.8604,4.8604,4.8604,4.8604,4.8974,4.962,5.0605,5.1036,5.1682,5.2637,5.2698,5.2698,5.2698,5.3945,5.4683,5.4683,5.6053,5.681,5.681,5.681,5.681,5.681,5.681,5.6964,5.7272,5.835,5.8947,5.9255,6.0332,6.0794,6.0794,6.0794,6.0794,6.0794,6.0794,6.0794,6.0794,6.0794,6.0794,6.0794,0.0,0.0,0.0,0.0,0.0,5.3518,5.3518,5.3518,5.3518,0.0,5.3518,5.3518,5.3518,5.3518,5.3518,5.3518,5.3518,5.3212,5.2485,5.2343,5.1987,5.1257,5.0377,4.9908,4.9908,4.8466,4.8019,4.8604,4.8019,4.8019,4.8604,4.8604,4.8604,4.8604,4.8604,4.8604,4.8604,4.8604,4.8604,4.8604,4.8604,4.8235,4.7711,4.7711,4.7342,4.6819,4.6726,4.6696,4.6696,4.6634,4.6641,4.6567,4.5912,4.5746,4.5662,4.5036,4.4771,0.0,0.0,0.0,0.0,4.461,4.461,0.0,4.4664,4.568,4.6603,4.6696,4.7711,4.8604,4.8604,4.8604,4.8604,4.8604,4.8604,4.8604,4.8604,4.8604,4.8604,4.8604,4.8604,4.9127,5.0451,5.0667,5.1221,5.2513,5.2667,5.2698,5.2698,5.3945,5.4683,5.4683,5.6053,5.681,5.681,5.681,5.681,5.681,5.681,5.7179,5.7857,5.8485,5.9162,5.9839,6.0517,6.0794,6.0794,6.0794,6.0794,6.0794,6.0794,6.0794,6.0794,6.0794,6.0794,6.0794,0.0,0.0,0.0,0.0,0.0,0.0,5.3518,5.3518,5.3518,5.3518,5.3518,5.3518,5.3518,5.3518,5.3518,5.3518,5.3518,5.3416,5.328,5.2659,5.2236,5.2059,5.0685,4.9908,4.9908,4.8932,4.8481,4.8604,4.8481,4.8481,4.8604,4.8604,4.8604,4.8604,4.8604,4.8604,4.8604,4.8604,4.8604,4.8604,4.8604,4.8543,4.8419,4.8419,4.8327,4.8142,4.7619,4.7404,4.7311,4.6788,4.663,4.6585,4.6427,4.6414,4.6431,4.6335,4.587,4.5403,4.5452,4.5067,4.461,4.461,4.461,0.0,4.528,4.6018,4.6757,4.7281,4.805,4.8604,4.8604,4.8604,4.8604,4.8604,4.8604,4.8604,4.8604,4.8604,4.8604,4.8604,4.8604,4.8943,4.9805,5.0389,5.1036,5.1836,5.2421,5.2698,5.2698,5.3945,5.4683,5.4683,5.6053,5.681,5.681,5.681,5.681,5.681,5.681,5.7179,5.7857,5.8485,5.9162,5.9839,6.0517,6.0794,6.0794,6.0794,6.0794,6.0794,6.0794,6.0794,6.0794,6.0794,6.0794,6.0794,0.0,5.3518,5.3518,0.0,0.0,0.0,0.0,5.3518,5.3518,5.3518,5.3518,5.3518,5.3518,5.3518,5.3518,5.3518,0.0,0.0,0.0,5.3144,5.2729,5.2307,5.1145,5.0306,4.9908,4.9056,4.8604,4.8604,4.8604,4.8604,4.8604,4.8604,4.8604,4.8604,4.8604,4.8604,4.8604,4.8604,4.8604,4.8604,4.8604,4.8604,4.8604,4.8604,4.8604,4.8573,4.8235,4.8112,4.805,4.7711,4.7623,4.7582,4.7216,4.7128,4.7068,4.6725,4.667,4.6615,4.6233,4.6178,4.6102,4.5704,4.5588,0.0,0.0,4.6603,4.7188,4.7527,4.8142,4.8604,4.8604,4.8604,4.8604,4.8604,4.8604,4.8604,4.8604,4.8604,4.8604,4.8604,4.8604,4.8881,4.962,5.0297,5.1128,5.2144,5.2513,5.2698,5.2698,5.3945,5.4683,5.4683,5.6053,5.681,5.681,5.681,5.681,5.681,5.681,5.7333,5.83,5.8639,5.9347,6.0301,6.064,6.0794,6.0794,6.0794,6.0794,6.0794,6.0794,6.0794,6.0794,6.0794,6.0794,6.0794,5.3518,5.3518,5.3518,0.0,0.0,0.0,0.0,0.0,5.3518,5.3518,5.3518,5.3416,5.328,5.3382,5.3416,5.328,5.3416,0.0,5.3518,5.3348,5.2972,5.2307,5.1369,5.0538,4.9908,4.9056,4.8604,4.8604,4.8604,4.8604,4.8604,4.8604,4.8604,4.8604,4.8604,4.8604,4.8604,4.8604,4.8604,4.8604,4.8604,4.8604,4.8604,4.8604,4.8604,4.8604,4.8604,4.8604,4.8604,4.8604,4.8643,4.8584,4.7976,4.7845,4.7777,4.7176,4.7356,4.7635,4.6998,4.7169,4.7408,4.677,4.6603,4.6634,0.0,0.0,0.0,4.7773,4.8235,4.8604,4.8604,4.8604,4.8543,4.8266,4.845,4.8512,4.8266,4.845,4.8604,4.8604,4.8604,4.885,4.9435,5.0205,5.1251,5.2606,5.2698,5.2698,5.2698,5.3945,5.4683,5.4683,5.6053,5.681,5.681,5.681,5.681,5.681,5.681,5.7457,5.8577,5.8731,5.9439,6.0609,6.0732,6.0794,6.0794,6.0794,6.0794,6.0794,6.0794,6.0794,6.0794,6.0794,6.0794,6.0794,5.3518,5.3518,5.3518,5.3518,0.0,0.0,0.0,0.0,5.3518,5.3518,5.3518,5.3246,5.2485,5.3041,5.3212,5.2485,5.3109,5.3518,5.3518,5.2834,5.2378,5.2307,5.0876,4.9986,4.9908,4.9056,4.8604,4.8604,4.8604,4.8604,4.8604,4.8604,4.8604,4.8604,4.8604,4.8604,4.8604,4.8604,4.8604,4.8604,4.8604,4.8604,4.8604,4.8604,4.8604,4.8604,4.8604,4.8604,4.8604,4.8604,4.8615,4.8605,4.8481,4.8492,4.848,4.8498,4.8034,4.7623,4.7558,4.7131,4.6691,4.6643,4.6603,4.6757,4.7342,0.0,4.7773,4.8358,0.0,4.8604,4.8604,0.0,0.0,4.7034,4.7835,4.8204,4.7004,4.7865,4.8604,4.8604,4.8604,4.8635,4.8727,4.9928,5.1251,5.2606,5.2698,5.2698,5.2698,5.3945,5.4683,5.4683,5.6053,5.681,5.681,5.681,5.681,5.681,5.681,5.721,5.79,5.8516,5.9193,5.9932,6.0547,6.0794,6.0794,6.0794,6.0794,6.0794,6.0794,6.0794,6.0794,6.0794,6.0794,6.0794,5.3518,5.3518,5.3518,5.3518,0.0,0.0,0.0,5.3518,5.3518,5.3518,5.3518,5.3348,5.3007,5.2868,5.2868,5.2972,5.2868,5.2799,5.2799,5.2903,5.2378,5.0989,5.1177,5.0615,4.9178,4.9269,4.9138,4.8604,4.8604,4.8604,4.8604,4.8604,4.8604,4.8604,4.8604,4.8604,4.8604,4.8604,4.8604,4.8604,4.8604,4.8604,4.8604,4.8604,4.8604,4.8604,4.8604,4.8604,4.8604,4.8604,4.8604,4.8604,4.8604,4.8604,4.8584,4.8602,4.8783,4.884,4.8329,4.8386,4.8386,4.7895,4.7773,4.7835,4.8112,4.8173,4.8266,4.8543,0.0,0.0,0.0,0.0,0.0,0.0,4.8235,4.8419,4.7835,4.8266,4.8604,4.8604,4.8604,4.8789,4.9189,5.0112,5.1097,5.2052,5.2483,5.2698,5.2698,5.3945,5.4683,5.4683,5.6053,5.681,5.681,5.681,5.681,5.681,5.681,5.7179,5.7857,5.8485,5.9162,5.9839,6.0517,6.0794,6.0794,6.0794,6.0794,6.0794,6.0794,6.0794,6.0794,6.0794,6.0794,6.0794,5.3518,5.3518,5.3518,5.3518,5.3518,5.3518,5.3518,5.3687,5.3788,5.3788,5.3991,5.4024,5.3784,5.3471,5.34,5.375,5.3225,5.2904,5.2904,5.3059,5.2247,5.0272,5.1124,5.0691,4.8646,4.9219,4.9228,4.8604,4.8604,4.8604,4.8604,4.8604,4.8604,4.8604,4.8604,4.8604,4.8604,4.8604,4.8727,4.8912,4.8912,4.9004,4.9127,4.8758,4.8604,4.8604,4.8604,4.8604,4.8604,4.8604,4.8604,4.8604,4.8604,4.8604,4.8604,4.8604,4.9056,4.939,4.8769,4.9056,4.939,4.8769,4.8604,4.8604,4.8604,4.8604,4.8604,4.8604,4.8604,0.0,0.0,0.0,0.0,0.0,0.0,4.8481,4.8112,4.8389,4.8604,4.8604,4.8604,4.8881,4.962,5.0297,5.0974,5.1652,5.2329,5.2698,5.2698,5.3945,5.4683,5.4683,5.6053,5.681,5.681,5.681,5.681,5.681,5.681,5.7056,5.758,5.8393,5.9039,5.9562,6.0424,6.0794,6.0794,6.0794,6.0794,6.0794,6.0794,6.0794,6.0794,6.0794,6.0794,6.0794,5.3518,5.3518,5.3518,5.3518,5.3518,5.3518,5.3518,5.4093,5.4566,5.4566,5.5209,5.5333,5.4546,5.512,5.5297,5.4509,5.4394,5.4357,5.4357,5.2954,5.1759,5.092,5.0295,4.955,4.8604,4.8604,4.8604,4.8604,4.8604,4.8604,4.8604,4.8604,4.8604,4.8604,4.8604,4.8604,4.8604,4.8604,4.9004,4.9651,4.9651,5.0051,5.0482,4.9127,4.8604,4.8604,4.8604,4.8604,4.8604,4.8604,4.8604,0.0,0.0,0.0,4.8604,4.8604,4.8604,4.8646,4.8604,4.8604,4.8646,4.8604,4.8604,4.8604,4.8604,4.8604,4.8604,4.8604,4.8604,4.8604,4.8604,0.0,0.0,0.0,0.0,0.0,0.0,4.7804,4.8604,4.8604,4.8604,4.8881,4.962,5.0297,5.0974,5.1652,5.2329,5.2698,5.2698,5.3945,5.4683,5.4683,5.6053,5.681,5.681,5.681,5.681,5.681,5.681,5.681,5.6902,5.8177,5.8793,5.8885,6.0209,6.0794,6.0794,6.0794,6.0794,6.0794,6.0794,6.0794,6.0794,6.0794,6.0794,6.0794,5.3518,5.389,5.4059,5.3585,5.3518,5.3653,5.416,5.4431,5.4562,5.4501,5.4695,5.4719,5.4427,5.4204,5.4128,5.439,5.394,5.3363,5.2773,5.2785,5.2181,5.0807,5.1556,5.1167,4.9385,4.9864,4.9614,4.8604,4.8604,4.8604,4.8604,4.8604,4.8604,4.8604,4.8604,4.8881,4.9312,4.9312,4.9712,5.0359,5.0359,5.0482,5.0636,5.0174,4.9989,4.9989,4.9989,4.9989,0.0,4.9989,4.9682,4.9312,4.9312,4.9004,4.8604,4.8604,4.8604,4.8604,0.0,0.0,4.8604,4.8604,0.0,0.0,4.8604,4.8604,4.8604,4.8604,4.8604,4.8604,0.0,0.0,0.0,0.0,0.0,0.0,0.0,4.8327,4.8604,4.8604,4.8604,4.8696,4.8943,5.002,5.079,5.1005,5.2082,5.2698,5.2698,5.3945,5.4683,5.4683,5.6053,5.681,5.681,5.681,5.681,5.681,5.681,5.681,5.6871,5.8227,5.8793,5.8854,6.0209,6.0794,6.0794,6.0794,6.0794,6.0794,6.0794,6.0794,6.0794,6.0794,6.0794,6.0794,5.4296,5.4668,5.4769,5.4025,5.4126,5.4465,5.4905,5.493,5.4977,5.5123,5.5117,5.5187,5.5411,5.4977,5.4857,5.5372,5.4657,5.3866,5.306,5.3518,5.3009,5.1154,5.2377,5.2148,5.0094,5.0538,5.0362,4.9343,4.9343,4.9343,4.9343,4.9343,4.922,4.9004,4.9251,4.9466,4.9712,4.9928,5.042,5.1067,5.1313,5.1405,5.1405,5.1405,5.1128,5.0697,0.0,5.0697,5.0697,5.0697,5.0389,5.0051,5.0051,4.9743,4.9343,4.9343,4.9343,4.9312,4.9066,4.9004,0.0,4.8696,4.8604,0.0,4.8604,0.0,4.8604,0.0,0.0,0.0,0.0,0.0,0.0,0.0,0.0,0.0,0.0,4.8604,4.8604,4.8604,4.8604,4.8604,4.8604,4.9866,5.0697,5.0697,5.1959,5.2698,5.2698,5.3945,5.4683,5.4683,5.6053,5.681,5.681,5.681,5.681,5.681,5.681,5.681,5.6871,5.8227,5.8793,5.8854,6.0209,6.0794,6.0794,6.0794,6.0794,6.0794,6.0794,6.0794,6.0794,6.0794,6.0794,6.0794,5.5681,5.5715,5.5581,5.4938,5.531,5.575,5.5818,5.5639,5.5781,5.6465,5.6401,5.6547,5.7183,5.7248,5.7248,5.7248,5.6471,5.5734,5.5027,5.5091,5.42,5.1924,5.2676,5.2458,5.0802,5.0759,5.0728,5.0697,5.0697,5.0697,5.0697,5.0697,5.0359,4.9774,5.042,5.0359,4.9835,5.0482,5.1128,5.1805,5.2452,5.2698,5.2698,5.2698,5.1929,5.079,5.079,5.079,5.079,5.079,5.0759,5.0759,5.0759,5.0728,5.0697,5.0697,5.0697,5.0543,4.9897,4.9743,4.9558,4.8881,4.8727,0.0,0.0,0.0,4.8666,0.0,0.0,0.0,0.0,0.0,0.0,0.0,0.0,0.0,0.0,4.8604,4.8604,4.8604,4.8604,4.8604,4.8604,4.9866,5.0697,5.0697,5.1959,5.2698,5.2698,5.3945,5.4683,5.4683,5.6053,5.681,5.681,5.681,5.681,5.681,5.681,5.681,5.6871,5.8227,5.8793,5.8854,6.0209,6.0794,6.0794,6.0794,6.0794,6.0794,6.0794,6.0794,6.0794,6.0794,6.0794,6.0794,5.5681,5.6156,5.6799,5.7712,5.6697,5.6089,5.7171,5.6709,5.6474,5.7119,5.652,5.6149,5.634,5.634,5.634,5.634,5.6151,5.5642,5.4822,5.4818,5.4324,5.3221,5.3454,5.2909,5.1467,5.1436,5.119,5.0697,5.0697,5.0697,5.0697,5.0697,5.0605,5.0451,5.0605,5.0882,5.119,5.1374,5.1836,5.2483,5.2637,5.2698,5.2698,5.2698,5.2513,5.2206,5.2206,5.2206,5.2206,5.2206,5.1867,5.1436,5.1436,5.1097,5.0697,5.0697,5.0697,5.0667,5.0482,5.042,5.0389,5.0205,5.0174,5.0174,0.0,0.0,0.0,0.0,0.0,0.0,0.0,0.0,0.0,0.0,0.0,0.0,0.0,4.8604,4.8604,4.8604,4.8604,4.8604,4.8604,4.9866,5.0697,5.0697,5.1959,5.2698,5.2698,0.0,5.4683,5.4683,5.6053,5.681,5.681,5.681,5.681,5.681,5.681,5.681,5.6871,5.8227,5.8793,5.8854,6.0209,6.0794,6.0794,6.0794,6.0794,6.0794,6.0794,6.0794,6.0794,6.0794,6.0794,6.0794,5.7645,5.7983,5.849,5.9336,5.8089,5.7293,5.8098,5.7502,5.698,5.7194,5.646,5.5981,5.6294,5.6325,5.6325,5.6325,5.6325,5.5969,5.5208,5.5504,5.524,5.4176,5.4481,5.403,5.2606,5.2575,5.2267,5.1559,5.1559,5.1559,5.1559,5.1559,5.1251,5.0728,5.1313,5.1467,5.1313,5.1898,5.2359,5.2698,5.2698,5.2698,0.0,5.3037,5.2975,5.276,5.3037,5.2975,5.2698,5.2698,5.2452,5.2144,5.2144,5.1898,5.1559,5.1559,5.1559,5.1498,5.1221,5.1128,5.1067,5.0759,5.0697,5.0697,5.0697,5.0389,5.0143,0.0,4.9805,4.9528,0.0,0.0,0.0,0.0,0.0,0.0,4.8604,4.8604,4.8604,4.8604,4.8604,4.8727,4.9066,5.0051,5.0697,5.0697,5.1959,5.2698,5.2698,0.0,5.4683,5.4683,5.6053,5.681,5.681,5.681,5.681,5.681,5.681,5.681,5.6871,5.8227,5.8793,5.8854,6.0209,6.0794,6.0794,6.0794,6.0794,6.0794,6.0794,6.0794,6.0794,6.0794,6.0794,6.0794,6.0114,6.0114,6.0076,6.0063,5.9488,5.8966,5.8766,5.7972,5.7323,5.7308,5.6638,5.6429,5.6994,5.7153,5.717,5.6933,5.6933,5.6656,5.5869,5.6528,5.6309,5.4884,5.5576,5.5277,5.3868,5.3837,5.3529,5.2852,5.2852,5.279,5.2698,5.2637,5.199,5.1005,5.2082,5.2021,5.1159,5.2359,5.2883,5.2975,5.2975,5.2975,5.3037,5.3622,5.3498,5.3067,5.3607,5.3345,5.2698,5.2698,5.2698,5.2698,5.2698,5.2698,5.2698,5.2698,5.2698,5.2575,5.199,5.1836,5.1682,5.1097,5.0944,5.0944,5.0944,5.0882,5.082,5.082,5.0759,5.0697,0.0,0.0,0.0,4.9004,0.0,4.8881,4.8881,4.8881,4.885,4.8758,4.882,0.0,4.962,5.0297,5.0728,5.082,5.199,5.2698,0.0,0.0,5.4683,5.4683,5.6053,5.681,5.681,5.681,5.681,5.681,5.681,5.681,5.6871,5.8227,5.8793,5.8854,6.0209,6.0794,6.0794,6.0794,6.0794,6.0794,6.0794,6.0794,6.0794,6.0794,6.0794,6.0794,6.0114,6.0114,6.0054,5.9951,6.0443,6.0451,5.9287,5.7915,5.7494,5.8639,5.8703,5.8608,5.8461,5.9197,5.9124,5.7752,5.7641,5.7364,5.6656,5.6769,5.6429,5.5561,5.5688,5.5379,5.4529,5.4498,5.4191,5.3529,5.3529,5.3252,5.2698,5.2144,5.2052,5.2359,5.2021,5.2359,5.3221,5.3437,5.3822,5.4345,5.4345,5.4345,5.4345,5.4468,5.4437,5.4345,5.4468,5.3775,5.2698,5.2698,5.2698,5.2698,5.2698,5.2698,5.2698,5.2698,5.2698,5.2698,5.2575,5.2544,5.2513,5.239,5.2359,5.2359,5.2359,5.1929,5.1528,5.1528,5.1067,5.0697,5.0697,0.0,0.0,0.0,0.0,5.0328,5.0328,5.0328,5.0112,4.9558,4.9989,5.0174,4.9712,5.0297,5.0913,5.1498,5.2267,5.2698,0.0,0.0,5.4683,0.0,5.6053,0.0,0.0,0.0,5.681,5.681,5.681,5.681,5.6871,5.8227,5.8793,5.8854,6.0209,6.0794,6.0794,6.0794,6.0794,6.0794,6.0794,6.0794,6.0794,6.0794,6.0794,6.0794,6.1298,6.1603,6.17,6.1111,6.1267,6.1098,5.9916,5.8718,5.8179,5.8913,5.9024,5.8954,5.8831,5.9228,5.9203,5.8381,5.835,5.7993,5.7364,5.7333,5.7025,5.6269,5.6286,5.593,5.5253,5.5222,5.4914,5.4191,5.4191,5.3899,5.3221,5.2544,5.2206,5.2206,5.2206,5.279,5.3699,5.4037,5.4375,5.4683,5.4683,5.4683,5.4714,5.5099,5.5007,5.4745,5.5099,5.4607,5.3775,5.3775,5.3775,5.3775,5.3775,5.3775,5.3637,5.3345,5.3221,5.316,5.2821,5.2698,5.2698,5.2698,5.2698,5.2698,5.2698,5.2452,5.2236,5.2236,5.1959,5.1621,5.1282,5.1221,0.0,0.0,0.0,0.0,5.0697,5.0697,5.0574,5.0266,5.0482,5.0697,5.0728,5.1036,5.1344,5.1682,5.2329,5.2698,0.0,0.0,5.4683,0.0,0.0,0.0,5.681,0.0,5.681,5.681,5.681,5.681,5.6871,5.8227,5.8793,5.8854,6.0209,6.0794,6.0794,6.0794,6.0794,6.0794,6.0794,6.0794,6.0794,6.0794,6.0794,6.0794,6.2582,6.3013,6.3015,6.1807,6.165,6.1345,6.0279,5.9692,5.9228,5.9028,5.9178,5.929,5.9243,5.9394,5.9383,5.9059,5.9008,5.8701,5.8073,5.7888,5.758,5.7056,5.6902,5.6532,5.593,5.593,5.5592,5.4898,5.4898,0.0,0.0,0.0,5.2421,5.1959,5.276,5.3529,0.0,0.0,5.5007,5.5161,5.5161,5.5161,5.5222,5.5715,5.5592,5.5222,5.5745,5.5592,5.5161,5.5161,5.4929,5.4683,5.4683,5.4683,5.4591,5.4083,5.3883,5.3837,5.3283,5.316,5.316,5.316,5.3037,5.2914,5.2914,5.2821,5.2698,5.2698,5.2698,5.2544,5.2021,5.1929,0.0,0.0,0.0,0.0,0.0,5.1128,5.1067,5.0913,5.0913,5.1128,5.1652,5.1713,5.1775,5.1898,5.2421,5.276,5.2914,0.0,0.0,0.0,0.0,5.681,5.681,0.0,5.681,5.681,5.681,5.6871,5.7056,5.8239,5.8854,5.907,6.027,6.0794,6.0794,6.0794,6.0794,6.0794,6.0794,6.0794,6.0794,6.0794,6.0794,6.0794,6.3197,6.3093,6.253,6.0674,6.1064,6.118,6.0016,6.0478,6.0644,5.9838,6.0478,6.0975,6.065,6.1414,6.1364,5.9849,5.9686,5.9408,5.8731,5.8165,5.7795,5.7734,5.7148,5.6779,5.6717,5.6717,5.633,5.5592,5.5592,5.4945,0.0,0.0,0.0,0.0,0.0,0.0,0.0,5.5561,5.5992,5.6625,5.6625,5.6625,5.6625,5.6686,5.6686,5.6625,5.6686,5.6686,5.6625,5.6625,5.5745,5.4683,5.4683,5.4683,5.4683,5.4591,5.4591,5.456,5.4498,5.4498,5.4498,5.4498,5.4083,5.3622,5.3622,5.316,5.2698,5.2698,5.2698,5.2698,5.2637,5.2637,5.2606,0.0,0.0,0.0,0.0,5.2513,5.2298,5.1682,5.1621,5.1621,5.1682,5.1713,5.1959,5.2575,5.2667,5.2975,0.0,0.0,0.0,5.5592,5.6361,5.681,5.681,5.681,5.681,5.681,5.681,5.7118,5.7734,5.8504,5.9131,5.9747,6.0486,6.0794,6.0794,6.0794,6.0794,6.0794,6.0794,6.0794,6.0794,6.0794,6.0794,6.0794,6.2397,6.2546,6.2399,6.1026,6.1471,6.1641,6.0588,6.0721,6.0823,6.0445,6.0721,6.0967,6.0815,6.1175,6.1102,6.0476,6.0393,6.0116,5.9439,5.9131,5.8793,5.8442,5.7795,5.7426,5.7426,5.7025,5.6656,5.6378,5.6378,0.0,0.0,0.0,0.0,0.0,0.0,5.5438,5.5715,5.6146,5.6532,5.681,5.681,5.681,5.681,5.681,5.681,5.681,5.681,5.681,5.681,5.681,5.644,5.5961,5.5961,5.5961,5.5869,5.5438,5.5315,5.5222,5.4806,5.4683,5.4683,5.4683,5.4468,5.4283,5.4283,5.4068,5.3883,5.3883,5.3883,5.3806,5.3375,5.3314,5.3191,5.279,0.0,0.0,0.0,0.0,5.2606,5.2329,5.2298,5.2298,5.2298,5.2298,5.2575,5.3283,5.2944,0.0,0.0,0.0,0.0,5.5684,0.0,5.681,5.681,5.681,5.681,5.681,5.681,5.7179,5.7857,5.8485,5.9378,6.0424,6.0671,6.0794,6.0794,6.0794,6.0794,6.0794,6.0794,6.0794,6.0794,6.0794,6.0794,6.0794,6.2063,6.2216,6.2285,6.1249,6.1508,6.1602,6.0897,6.0794,6.0794,6.0794,6.0794,6.0794,6.0794,6.0794,6.0794,6.0794,6.0794,6.0609,6.0116,5.9901,5.9562,5.9101,5.8423,5.8054,5.8054,5.7457,5.7118,5.7118,5.6902,0.0,0.0,0.0,0.0,0.0,5.5499,5.5992,5.6053,5.6594,5.681,5.681,5.681,5.681,5.681,5.681,5.681,5.681,5.681,5.681,5.681,5.681,5.681,5.681,5.681,5.681,5.6717,5.6146,5.5992,5.5899,5.5468,5.5315,5.5315,5.5315,5.5161,5.5007,5.5007,5.4806,5.4683,5.4683,5.4683,5.4529,5.4068,5.3976,5.3868,5.3375,0.0,0.0,0.0,5.3314,5.3221,5.3037,5.2821,5.279,5.2975,5.2821,5.3067,5.396,0.0,0.0,0.0,0.0,0.0,0.0,0.0,0.0,5.681,5.681,5.681,5.681,5.681,5.7272,5.8085,5.8978,5.9901,6.0794,6.0794,6.0794,6.0794,6.0794,6.0794,6.0794,6.0794,6.0794,6.0794,6.0794,6.0794,6.0794,6.2649,6.2288,6.1972,6.0969,6.0794,6.0794,6.0794,6.0794,6.0794,6.0794,6.0794,6.0794,6.0794,6.0794,6.0794,6.0794,6.0794,6.0794,6.0794,6.0147,5.9778,5.9778,5.9131,5.8762,5.8762,5.8165,5.7795,5.7795,0.0,0.0,5.5684,0.0,5.5684,5.5715,5.6471,5.681,5.681,5.681,5.681,5.681,5.681,5.681,5.681,5.681,5.681,5.681,5.681,5.681,5.681,5.681,5.681,5.681,5.681,5.681,5.681,5.681,5.681,5.6779,5.6779,5.6779,5.6779,5.6779,5.6255,5.5684,5.5684,5.5191,5.4683,5.4683,5.4683,5.4683,5.4683,5.4683,5.4683,5.4652,0.0,0.0,0.0,5.4652,0.0,5.3775,5.3129,5.2975,5.3607,5.3098,5.3283,5.456,0.0,0.0,0.0,0.0,0.0,5.6748,5.681,0.0,5.681,5.681,5.681,5.681,5.681,5.7518,5.8824,6.0147,6.0794,6.0794,6.0794,6.0794,6.0794,6.0794,6.0794,6.0794,6.0794,6.0794,6.0794,6.0794,6.0794,6.0794,6.1551,6.1277,6.1175,6.0845,6.0794,6.0794,6.0794,6.0794,6.0794,6.0794,6.0794,6.0794,6.0794,6.0794,6.0794,6.0794,6.0794,6.0794,6.0794,6.0609,6.0486,6.0486,5.9839,5.947,5.947,5.8793,5.8454,5.8454,0.0,0.0,0.0,5.7808,5.7808,5.7808,5.8073,5.8146,5.8146,5.8146,5.8146,5.8146,5.8146,5.7919,5.7487,5.7487,5.721,5.681,5.681,5.681,5.681,5.681,5.681,5.681,5.681,5.681,5.681,5.681,5.681,5.681,5.681,5.681,5.681,5.681,5.6625,5.6471,5.6471,5.6269,5.6115,5.6115,5.6115,5.5961,5.5468,5.5376,5.5253,5.4745,5.4683,0.0,5.4683,0.0,5.4591,5.4406,5.416,5.4129,5.4345,5.416,0.0,0.0,0.0,0.0,0.0,0.0,0.0,0.0,5.681,0.0,5.681,5.681,5.681,5.681,5.7272,5.8146,5.9501,6.0393,6.0794,6.0794,6.0794,6.0794,6.0794,6.0794,6.0794,6.0794,6.0794,6.0794,6.0794,6.0794,6.0794,6.0794,6.1,6.0794,6.0794,6.0794,6.0794,6.0886,6.1132,6.1194,6.1255,6.1532,6.1348,6.1194,6.1194,6.0948,6.0794,6.0794,6.0794,6.0794,6.0794,6.0794,6.0794,6.0794,6.0393,6.0178,6.0178,5.9501,0.0,5.9162,5.8916,5.8793,5.8793,5.8793,5.8793,5.8793,5.8793,5.8793,5.8793,5.8793,5.8793,5.8793,5.8793,5.8516,5.8196,5.8196,5.7949,5.758,5.758,5.758,5.758,5.758,5.7395,5.7179,5.7179,5.7025,5.681,5.681,5.681,5.681,5.681,5.681,5.681,5.681,5.681,5.681,5.681,5.681,5.681,5.681,5.681,5.6686,5.6176,5.6084,5.5961,5.5561,5.5499,5.5499,5.5499,0.0,5.5407,5.513,5.5099,5.5099,0.0,5.5099,5.5191,0.0,0.0,0.0,0.0,0.0,0.0,5.6779,5.681,5.681,5.681,5.681,5.681,5.681,5.7765,5.8731,5.9809,6.0486,6.0794,6.0794,6.0794,6.0794,6.0794,6.0794,6.0794,6.0794,6.0794,6.0794,6.0794,6.0794,6.0794,6.0794,6.1124,6.0948,6.0948,6.0948,6.0948,6.1163,6.1779,6.1871,6.2086,6.2733,6.2271,6.1871,6.1871,6.1317,6.0917,6.0886,0.0,0.0,6.0794,6.0794,6.0794,6.0794,6.0794,6.0794,6.0794,6.0178,5.987,5.987,5.9224,5.8916,5.8916,5.8916,5.8916,5.8916,5.8916,5.8916,5.8916,5.8916,5.8916,5.8916,5.8916,5.8885,5.8854,5.8854,5.8824,5.8793,5.8793,5.8793,5.8793,5.8793,5.8362,5.7888,5.7888,5.7457,5.6933,5.684,5.681,5.681,5.681,5.681,5.681,5.681,5.681,5.681,5.681,5.681,5.681,5.681,5.681,5.681,5.681,5.681,5.681,5.681,5.681,5.681,5.681,5.681,5.6563,5.5838,0.0,0.0,5.5776,5.5776,5.6023,0.0,0.0,0.0,0.0,0.0,5.6084,5.6779,5.681,5.681,5.681,5.681,5.6871,5.6964,5.8239,5.9193,5.987,6.0517,6.0794,6.0794,6.0794,6.0794,6.0794,6.0794,6.0794,6.0794,6.0794,6.0794,6.0794,6.0794,6.0794,6.0794,6.2386,6.2333,6.2333,6.2333,6.2333,6.2394,6.2548,6.2579,6.2641,6.2794,6.2671,6.2579,6.2579,6.2425,6.2148,6.1625,6.1101,6.0794,6.0794,6.0794,6.0794,6.0794,6.0794,6.0794,6.0794,6.064,6.0547,6.0547,6.0393,6.0332,6.0332,6.0332,6.0332,6.0332,6.0332,6.0332,6.0332,6.0332,6.0332,6.0332,6.0332,6.0024,5.9562,5.9562,5.9224,5.8793,5.8793,5.8793,5.8793,5.8793,5.867,5.8547,5.8547,5.8423,5.8165,5.7118,5.681,5.681,5.681,5.681,5.681,5.681,5.681,5.681,5.681,5.681,5.681,5.681,5.681,5.681,5.681,5.681,5.681,5.681,5.681,5.681,5.681,5.681,5.6748,0.0,5.6563,5.6563,5.6563,5.6563,5.6409,0.0,0.0,5.6563,5.5961,5.6347,5.6625,5.681,5.681,5.681,5.681,5.681,5.7333,5.83,5.9162,5.9901,6.0578,6.0732,6.0794,6.0794,6.0794,6.0794,6.0794,6.0794,6.0794,6.0794,6.0794,6.0794,6.0794,6.0794,6.0794,6.0794,6.2825,6.2825,6.2825,6.2825,6.2825,6.2918,6.3225,6.3287,6.341,6.3718,6.3472,6.3287,6.3287,6.301,6.2671,6.2302,6.1656,6.1132,6.0824,6.0794,6.0794,6.0794,6.0794,6.0794,6.0794,6.0794,6.0794,6.0794,6.0794,6.0794,6.0794,6.0794,6.0794,6.0794,6.0794,6.0794,6.0794,6.0794,6.0794,6.0794,6.0794,6.0578,6.024,6.024,6.0024,5.9686,5.9686,5.9686,5.9686,5.9686,5.9501,5.9255,5.9255,5.9039,5.8639,5.7949,5.7518,5.7272,5.7272,5.7056,5.681,5.681,5.681,5.681,5.681,5.681,5.681,5.681,5.681,5.681,5.681,5.681,5.681,5.681,5.681,5.681,5.681,5.681,5.681,5.681,5.681,5.681,5.681,5.681,5.6656,5.6207,5.6594,0.0,5.6207,5.6594,5.681,5.681,5.681,5.681,5.681,5.7118,5.7795,5.8793,5.947,6.0147,6.0794,6.0794,6.0794,6.0794,6.0794,6.0794,6.0794,6.0794,6.0794,6.0794,6.0794,6.0794,6.0794,6.0794,6.0794,6.0794,6.3133,6.3133,6.3133,6.3133,6.3133,6.3318,6.3903,6.3995,6.421,6.4826,6.4364,6.3995,6.3995,6.3472,6.3071,6.2979,6.2456,6.1779,6.1009,6.0948,6.0917,6.0794,6.0794,6.0794,6.0794,6.0794,6.0794,6.0794,6.0794,6.0794,6.0794,6.0794,6.0794,6.0794,6.0794,6.0794,6.0794,6.0794,6.0794,6.0794,6.0794,6.0794,6.0794,6.0794,6.0794,6.0794,6.0794,6.0794,6.0794,6.0794,6.0424,5.9932,5.9932,5.9562,5.907,5.907,5.8608,5.8104,5.8011,5.7549,5.7118,5.7118,5.7118,5.7087,5.6994,5.6964,5.6933,5.684,5.681,5.681,5.681,5.681,5.681,5.681,5.681,5.681,5.681,0.0,5.681,5.681,5.681,5.681,5.681,5.681,5.681,5.681,5.681,5.681,5.681,5.681,5.681,5.681,5.681,5.6871,5.6964,5.7641,5.827,5.8947,5.9624,6.024,6.0794,6.0794,6.0794,6.0794,6.0794,6.0794,6.0794,6.0794,6.0794,6.0794,6.0794,6.0794,6.0794,6.0794,6.0794,6.0794,6.458,6.458,6.458,6.458,6.458,6.4611,6.4703,6.4734,6.4764,6.4888,6.4795,6.4734,6.4734,6.4641,6.4334,6.3718,6.3564,6.2979,6.1748,6.1656,6.1379,6.0824,6.0794,6.0794,6.0794,6.0794,6.0794,6.0794,6.0794,6.0794,6.0794,6.0794,6.0794,6.0794,6.0794,6.0794,6.0794,6.0794,6.0794,6.0794,6.0794,6.0794,6.0794,6.0794,6.0794,6.0794,6.0794,6.0794,6.0794,6.0794,6.0732,6.064,6.064,6.0578,6.0486,6.0486,5.9993,5.9347,5.8793,5.8547,5.8454,5.8454,5.8454,5.83,5.7795,5.7672,5.7487,5.6933,5.681,5.681,5.681,5.681,5.681,5.681,5.681,5.681,5.681,0.0,5.681,5.681,5.681,5.681,5.681,5.681,5.681,5.681,5.681,5.681,5.681,5.681,5.681,5.681,5.681,5.7087,5.7672,5.83,5.8978,5.9624,6.0301,6.0701,6.0794,6.0794,6.0794,6.0794,6.0794,6.0794,6.0794,6.0794,6.0794,6.0794,6.0794,6.0794,6.0794,6.0794,6.0794,6.0794,6.4888,6.4888,6.4888,6.4888,6.4888,6.4888,6.4888,6.4888,6.4888,6.4888,6.4888,6.4888,6.4888,6.4888,6.4764,6.4426,6.4395,6.3964,6.2948,6.2548,6.221,6.1902,6.1532,6.1163,6.0824,6.0794,6.0794,6.0794,6.0794,6.0794,6.0794,6.0794,6.0794,6.0794,6.0794,6.0794,6.0794,6.0794,6.0794,6.0794,6.0794,6.0794,6.0794,6.0794,6.0794,6.0794,6.0794,6.0794,6.0794,6.0794,6.0794,6.0794,6.0794,6.0794,6.0794,6.0794,6.0332,5.9624,5.8978,5.8793,5.8793,5.8793,5.8793,5.8701,5.8393,5.83,5.8239,5.7949,5.7888,5.7888,5.7888,5.7888,5.7888,5.7888,5.7888,0.0,5.7888,5.7888,5.7888,5.7888,5.7888,5.7888,5.7888,5.7888,5.7734,5.7395,5.7364,5.7179,5.684,5.7148,5.7364,5.7364,5.7364,5.7518,5.7826,5.8793,5.947,5.9809,6.0486,6.0794,6.0794,6.0794,6.0794,6.0794,6.0794,6.0794,6.0794,6.0794,6.0794,6.0794,6.0794,6.0794,6.0794,6.0794,6.0794,6.0794,6.4888,6.4888,6.4888,6.4888,6.4888,6.4888,6.4888,6.4888,6.4888,6.4888,6.4888,6.4888,6.4888,6.4888,6.4888,6.4888,6.4888,6.4672,6.4118,6.3595,6.3164,6.2825,6.2333,6.1809,6.1286,6.1255,6.1255,6.1255,6.1101,6.104,6.104,6.0886,6.0794,6.0794,6.0794,6.0794,6.0794,6.0794,6.0794,6.0794,6.0794,6.0794,6.0794,6.0794,6.0794,6.0794,6.0794,6.0794,6.0794,6.0794,6.0794,6.0794,6.0794,6.0794,6.0794,6.0794,6.0424,5.9901,5.9378,5.9255,5.9255,5.9255,5.9255,5.9193,5.9039,5.9008,5.8978,5.8824,5.8793,5.8793,5.8793,5.8793,5.8793,5.8793,0.0,5.8793,5.8793,5.8793,5.8793,5.8793,5.8793,5.8793,5.8793,5.8793,5.8577,5.8054,5.7993,5.7826,5.7303,5.7765,5.7993,5.7993,5.7993,5.8085,5.8239,5.9285,5.987,6.0024,6.0547,6.0794,6.0794,6.0794,6.0794,6.0794,6.0794,6.0794,6.0794,6.0794,6.0794,6.0794,6.0794,6.0794,6.0794,6.0794,6.0794,6.0794,6.4888,6.4888,6.4888,6.4888,6.4888,6.4888,6.4888,6.4888,6.4888,6.4888,6.4888,6.4888,6.4888,6.4888,6.4888,6.4888,6.4888,6.4888,6.4826,6.4764,6.418,6.2887,6.2764,6.2702,6.2671,6.2671,6.2671,6.2671,6.2025,6.1748,6.1717,6.1101,6.0794,6.0794,6.0794,6.0794,6.0794,6.0794,6.0794,6.0794,6.0794,6.0794,6.0794,6.0794,6.0794,6.0794,6.0794,6.0794,6.0794,6.0794,6.0794,6.0794,6.0794,6.0794,6.0794,6.0794,6.0763,6.0701,6.0671,6.064,6.064,6.064,6.064,6.0486,5.987,5.9716,5.9532,5.8916,5.8793,5.8793,5.8793,5.8793,5.8793,5.8793,0.0,0.0,5.8793,5.8793,5.8793,5.8793,5.8793,5.8793,5.8793,5.8793,5.8762,5.8701,5.8701,5.867,5.8639,5.867,5.8701,5.8701,5.8701,5.9008,5.9624,5.9747,6.0116,6.0732,6.0763,6.0794,6.0794,6.0794,6.0794,6.0794,6.0794,6.0794,6.0794,6.0794,6.0794,6.0794,6.0794,6.0794,6.0794,6.0794,6.0794,6.0794,6.4888,6.4888,6.4888,6.4888,6.4888,6.4888,6.4888,6.4888,6.4888,6.4888,6.4888,6.4888,6.4888,6.4888,6.4888,6.4888,6.4888,6.4888,6.4888,6.4888,6.4457,6.3472,6.3441,6.3256,6.2825,6.2825,6.2825,6.2825,6.2548,6.2425,6.2425,6.2179,6.2056,6.2025,6.1625,6.144,6.1379,6.0978,6.0794,6.0794,6.0794,6.0794,6.0794,6.0794,6.0794,6.0794,6.0794,6.0794,6.0794,6.0794,6.0794,6.0794,6.0794,6.0794,6.0794,6.0794,6.0794,6.0794,6.0794,6.0794,6.0794,6.0794,6.0794,6.0732,6.0486,6.0424,6.0332,6.0086,6.0024,6.0024,6.0024,6.0024,6.0024,6.0024,0.0,6.0024,6.0024,6.0024,6.0024,6.0024,6.0024,6.0024,6.0024,6.0024,5.987,5.9439,5.9408,5.9224,5.8793,5.9193,5.9593,6.0024,6.0024,5.9963,5.9778,6.0209,6.0547,6.0794,6.0794,6.0794,6.0794,6.0794,6.0794,6.0794,6.0794,6.0794,6.0794,6.0794,6.0794,6.0794,6.0794,6.0794,6.0794,6.0794,6.0794,6.0794,6.4888,6.4888,6.4888,6.4888,6.4888,6.4888,6.4888,6.4888,6.4888,6.4888,6.4888,6.4888,6.4888,6.4888,6.4888,6.4888,6.4888,6.4888,6.4888,6.4888,6.4672,6.418,6.418,6.3933,6.3472,6.3472,6.3472,6.3472,6.3256,6.3133,6.3133,6.2918,6.2825,6.2794,6.2333,6.2117,6.2086,6.1625,6.144,6.1409,6.1194,6.1101,6.1101,6.0886,6.0794,6.0794,6.0794,6.0794,6.0794,6.0794,6.0794,6.0794,6.0794,6.0794,6.0794,6.0794,6.0794,6.0794,6.0794,6.0794,6.0794,6.0794,6.0794,6.0794,6.0794,6.0794,6.0794,6.0794,6.0794,6.0794,6.0794,6.0794,6.0794,6.0794,6.0794,6.0794,6.0794,6.0794,6.0794,6.0794,6.0794,6.0794,6.0794,6.0794,6.0609,6.0147,6.0116,5.9901,5.9439,5.9839,6.0301,6.0794,6.0794,6.0578,6.0116,6.0578,6.0794,6.0794,6.0794,6.0794,6.0794,6.0794,6.0794,6.0794,6.0794,6.0794,6.0794,6.0794,6.0794,6.0794,6.0794,6.0794,6.0794,6.0794,6.0794,6.0794,6.4888,6.4888,6.4888,6.4888,6.4888,6.4888,6.4888,6.4888,6.4888,6.4888,6.4888,6.4888,6.4888,6.4888,6.4888,6.4888,6.4888,6.4888,6.4888,6.4888,6.4888,6.4888,6.4888,6.4888,6.4888,6.4888,6.4888,6.4888,6.418,6.3787,6.381,6.3133,6.2825,6.2825,6.2825,6.2825,6.2825,6.2825,6.2825,6.2764,6.2086,6.1809,6.1748,6.1071,6.0824,6.0824,6.0794,6.0794,6.0794,6.0794,6.0794,6.0794,6.0794,6.0794,6.0794,6.0794,6.0794,6.0794,6.0794,6.0794,6.0794,6.0794,6.0794,6.0794,6.0794,6.0794,6.0794,6.0794,6.0794,6.0794,6.0794,6.0794,6.0794,6.0794,6.0794,6.0794,6.0794,6.0794,6.0794,6.0794,6.0794,6.0794,6.0794,6.0794,6.0794,6.0794,6.0794,6.0794,6.0794,6.0794,6.0794,6.0794,6.0794,6.0794,6.0794,6.0794,6.0794,6.0794,6.0794,6.0794,6.0794,6.0794,6.0794,6.0794,6.0794,6.0794,6.0794,6.0794,6.0794,6.0794,6.0794,6.0794,6.0794,6.0794,6.0794,6.0794,6.4888,6.4888,6.4888,6.4888,6.4888,6.4888,6.4888,6.4888,6.4888,6.4888,6.4888,6.4888,6.4888,6.4888,6.4888,6.4888,6.4888,6.4888,6.4888,6.4888,6.4888,6.4888,6.4888,6.4888,6.4888,6.4888,6.4888,6.4888,6.4672,6.458,6.458,6.4364,6.4272,6.4241,6.3749,6.3533,6.3502,6.301,6.2825,6.2794,6.261,6.2517,6.2456,6.1779,6.1502,6.144,6.0978,6.0794,6.0794,6.0794,6.0794,6.0794,6.0794,6.0794,6.0794,6.0794,6.0794,6.0794,6.0794,6.0794,6.0794,6.0794,6.0794,6.0794,6.0794,6.0794,6.0794,6.0794,6.0794,6.0794,6.0794,6.0794,6.0794,6.0794,6.0794,6.0794,6.0794,6.0794,6.0794,6.0794,6.0794,6.0794,6.0794,6.0794,6.0794,6.0794,6.0794,6.0794,6.0794,6.0794,6.0794,6.0794,6.0794,6.0794,6.0794,6.0794,6.0794,6.0794,6.0794,6.0794,6.0794,6.0794,6.0794,6.0794,6.0794,6.0794,6.0794,6.0794,6.0794,6.0794,6.0794,6.0794,6.0794,6.0794,6.0794,6.0794,6.4888,6.4888,6.4888,6.4888,6.4888,6.4888,6.4888,6.4888,6.4888,6.4888,6.4888,6.4888,6.4888,6.4888,6.4888,6.4888,6.4888,6.4888,6.4888,6.4888,6.4888,6.4888,6.4888,6.4888,6.4888,6.4888,6.4888,6.4888,6.4888,6.4888,6.4888,6.4888,6.4888,6.4888,6.4426,6.4241,6.4241,6.381,6.3626,6.3626,6.3318,6.3225,6.3133,6.2456,6.221,6.2117,6.144,6.1194,6.1163,6.0886,6.0794,6.0794,6.0794,6.0794,6.0794,6.0794,6.0794,6.0794,6.0794,6.0794,6.0794,6.0794,6.0794,6.0794,6.0794,6.0794,6.0794,6.0794,6.0794,6.0794,6.0794,6.0794,6.0794,6.0794,6.0794,6.0794,6.0794,6.0794,6.0794,6.0794,6.0794,6.0794,6.0794,6.0794,6.0794,6.0794,6.0794,6.0794,6.0794,6.0794,6.0794,6.0794,6.0794,6.0794,6.0794,6.0794,6.0794,6.0794,6.0794,6.0794,6.0794,6.0794,6.0794,6.0794,6.0794,6.0794,6.0794,6.0794,6.0794,6.0794,6.0794,6.0794,6.0794,6.0794,6.0794,6.0794,6.4888,6.4888,6.4888,6.4888,6.4888,6.4888,6.4888,6.4888,6.4888,6.4888,6.4888,6.4888,6.4888,6.4888,6.4888,6.4888,6.4888,6.4888,6.4888,6.4888,6.4888,6.4888,6.4888,6.4888,6.4888,6.4888,6.4888,6.4888,6.4888,6.4888,6.4888,6.4888,6.4888,6.4888,6.4888,6.4888,6.4888,6.4888,6.4888,6.4826,6.418,6.3933,6.3841,6.3164,6.2918,6.2825,6.2148,6.1871,6.1717,6.104,6.0794,6.0794,6.0794,6.0794,6.0794,6.0794,6.0794,6.0794,6.0794,6.0794,6.0794,6.0794,6.0794,6.0794,6.0794,6.0794,6.0794,6.0794,6.0794,6.0794,6.0794,6.0794,6.0794,6.0794,6.0794,6.0794,6.0794,6.0794,6.0794,6.0794,6.0794,6.0794,6.0794,6.0794,6.0794,6.0794,6.0794,6.0794,6.0794,6.0794,6.0794,6.0794,6.0794,6.0794,6.0794,6.0794,6.0794,6.0794,6.0794,6.0794,6.0794,6.0794,6.0794,6.0794,6.0794,6.0794,6.0794,6.0794,6.0794,6.0794,6.0794,6.0794,6.0794,6.0794,6.0794,6.0794,6.4888,6.4888,6.4888,6.4888,6.4888,6.4888,6.4888,6.4888,6.4888,6.4888,6.4888,6.4888,6.4888,6.4888,6.4888,6.4888,6.4888,6.4888,6.4888,6.4888,6.4888,6.4888,6.4888,6.4888,6.4888,6.4888,6.4888,6.4888,6.4888,6.4888,6.4888,6.4888,6.4888,6.4888,6.4888,6.4888,6.4888,6.4888,6.4888,6.4888,6.4734,6.4672,6.458,6.3872,6.3541,6.3533,6.2825,6.2271,6.1717,6.104,6.0794,6.0794,6.0794,6.0794,6.0794,6.0794,6.0794,6.0794,6.0794,6.0794,6.0794,6.0794,6.0794,6.0794,6.0794,6.0794,6.0794,6.0794,6.0794,6.0794,6.0794,6.0794,6.0794,6.0794,6.0794,6.0794,6.0794,6.0794,6.0794,6.0794,6.0794,6.0794,6.0794,6.0794,6.0794,6.0794,6.0794,6.0794,6.0794,6.0794,6.0794,6.0794,6.0794,6.0794,6.0794,6.0794,6.0794,6.0794,6.0794,6.0794,6.0794,6.0794,6.0794,6.0794,6.0794,6.0794,6.0794,6.0794,6.0794,6.0794,6.0794,6.0794,6.0794,6.0794,6.0794,6.0794,6.4888,6.4888,6.4888,6.4888,6.4888,6.4888,6.4888,6.4888,6.4888,6.4888,6.4888,6.4888,6.4888,6.4888,6.4888,6.4888,6.4888,6.4888,6.4888,6.4888,6.4888,6.4888,6.4888,6.4888,6.4888,6.4888,6.4888,6.4888,6.4888,6.4888,6.4888,6.4888,6.4888,6.4888,6.4888,6.4888,6.4888,6.4888,6.4888,6.4888,6.4888,6.4888,6.4857,6.4487,6.4334,6.4241,6.3533,6.2856,6.224,6.1871,6.1532,6.1286,6.1286,6.1071,6.0794,6.0794,6.0794,6.0794,6.0794,6.0794,6.0794,6.0794,6.0794,6.0794,6.0794,6.0794,6.0794,6.0794,6.0794,6.0794,6.0794,6.0794,6.0794,6.0794,6.0794,6.0794,6.0794,6.0794,6.0794,6.0794,6.0794,6.0794,6.0794,6.0794,6.0794,6.0794,6.0794,6.0794,6.0794,6.0794,6.0794,6.0794,6.0794,6.0794,6.0794,6.0794,6.0794,6.0794,6.0794,6.0794,6.0794,6.0794,6.0794,6.0794,6.0794,6.0794,6.0794,6.0794,6.0794,6.0794,6.0794,6.0794,6.0794,6.0794,6.0794,6.0794,6.4943,6.4888,6.4888,6.4888,6.4888,6.4888,6.4888,6.4888,6.4888,6.4888,6.4888,6.4888,6.4888,6.4888,6.4888,6.4888,6.4888,6.4888,6.4888,6.4888,6.4888,6.4888,6.4888,6.4888,6.4888,6.4888,6.4888,6.4888,6.4888,6.4888,6.4888,6.4888,6.4888,6.4888,6.4888,6.4888,6.4888,6.4888,6.4888,6.4888,6.4888,6.4888,6.4888,6.4888,6.4888,6.4826,6.4241,6.3564,6.2979,6.2856,6.2456,6.1994,6.1994,6.1594,6.1132,6.1132,6.1071,6.0978,6.0978,6.0886,6.0794,6.0794,6.0794,6.0794,6.0794,6.0794,6.0794,6.0794,6.0794,6.0794,6.0794,6.0794,6.0794,6.0794,6.0794,6.0794,6.0794,6.0794,6.0794,6.0794,6.0794,6.0794,6.0794,6.0794,6.0794,6.0794,6.0794,6.0794,6.0794,6.0794,6.0794,6.0794,6.0794,6.0794,6.0794,6.0794,6.0794,6.0794,6.0794,6.0794,6.0794,6.0794,6.0794,6.0794,6.0794,6.0794,6.0794,6.0794,6.0794,6.0794,6.0794,6.0794,6.0794,6.0794,6.0794,6.0794,6.5108,6.4888,6.4888,6.4888,6.4888,6.4888,6.4888,6.4888,6.4888,6.4888,6.4888,6.4888,6.4888,6.4888,6.4888,6.4888,6.4888,6.4888,6.4888,6.4888,6.4888,6.4888,6.4888,6.4888,6.4888,6.4888,6.4888,6.4888,6.4888,6.4888,6.4888,6.4888,6.4888,6.4888,6.4888,6.4888,6.4888,6.4888,6.4888,6.4888,6.4888,6.4888,6.4888,6.4888,6.4888,6.4888,6.4795,6.4303,6.3595,6.301,6.2764,6.2671,6.2671,6.261,6.2548,6.2548,6.2148,6.1656,6.1656,6.1255,6.0794,6.0794,6.0794,6.0794,6.0794,6.0794,6.0794,6.0794,6.0794,6.0794,6.0794,6.0794,6.0794,6.0794,6.0794,6.0794,6.0794,6.0794,6.0794,6.0794,6.0794,6.0794,6.0794,6.0794,6.0794,6.0794,6.0794,6.0794,6.0794,6.0794,6.0794,6.0794,6.0794,6.0794,6.0794,6.0794,6.0794,6.0794,6.0794,6.0794,6.0794,6.0794,6.0794,6.0794,6.0794,6.0794,6.0794,6.0794,6.0794,6.0794,6.0794,6.0794,6.0794,6.0794,6.0794,6.0794,6.5108,6.4888,6.4888,6.4888,6.4888,6.4888,6.4888,6.4888,6.4888,6.4888,6.4888,6.4888,6.4888,6.4888,6.4888,6.4888,6.4888,6.4888,6.4888,6.4888,6.4888,6.4888,6.4888,6.4888,6.4888,6.4888,6.4888,6.4888,6.4888,6.4888,6.4888,6.4888,6.4888,6.4888,6.4888,6.4888,6.4888,6.4888,6.4888,6.4888,6.4888,6.4888,6.4888,6.4888,6.4888,6.4888,6.4888,6.4703,6.4364,6.4087,6.3718,6.3379,6.3379,6.3133,6.2825,6.2825,6.261,6.2364,6.2364,6.2148,6.1933,6.1933,6.1933,6.1933,6.1933,6.1933,6.1717,6.0948,6.0794,6.0794,6.0794,6.0794,6.0794,6.0794,6.0794,6.0794,6.0794,6.0794,6.0794,6.0794,6.0794,6.0794,6.0794,6.0794,6.0794,6.0794,6.0794,6.0794,6.0794,6.0794,6.0794,6.0794,6.0794,6.0794,6.0794,6.0794,6.0794,6.0794,6.0794,6.0794,6.0794,6.0794,6.0794,6.0794,6.0794,6.0794,6.0794,6.0794,6.0794,6.0794,6.0794,6.0794,6.0794,6.0794,6.0794,6.0794]}]]